<?xml version="1.0" encoding="UTF-8" standalone="no" ?>
<gpx xmlns="http://www.topografix.com/GPX/1/1" xmlns:xsi="http://www.w3.org/2001/XMLSchema-instance" xsi:schemaLocation="http://www.topografix.com/GPX/1/1 http://www.topografix.com/GPX/1/1/gpx.xsd" version="1.1" creator="VisuGPX - https://www.visugpx.com">
  <metadata>
    <name>Cadaques J17</name>
    <desc><![CDATA[File with points/tracks from Locus Map/4.26.1]]></desc>
  </metadata>
  <trk>
    <name><![CDATA[2024-10-02 Puyo de Jaca J17]]></name>
    <extensions>
      <line xmlns="http://www.topografix.com/GPX/gpx_style/0/2">
        <color>0000FF</color>
        <opacity>0.70</opacity>
        <width>6.0</width>
      </line>
    </extensions>
    <trkseg>
      <trkpt lat="42.60401" lon="-0.12181">
        <ele>913.58</ele>
        <time>2024-10-02T07:46:57.999Z</time>
      </trkpt>
      <trkpt lat="42.60406" lon="-0.12191">
        <ele>912.17</ele>
        <time>2024-10-02T07:48:16.999Z</time>
      </trkpt>
      <trkpt lat="42.6041" lon="-0.12205">
        <ele>911.86</ele>
        <time>2024-10-02T07:48:24.999Z</time>
      </trkpt>
      <trkpt lat="42.60415" lon="-0.12223">
        <ele>911.7</ele>
        <time>2024-10-02T07:48:29.999Z</time>
      </trkpt>
      <trkpt lat="42.60423" lon="-0.12239">
        <ele>911.56</ele>
        <time>2024-10-02T07:48:34.999Z</time>
      </trkpt>
      <trkpt lat="42.60431" lon="-0.12257">
        <ele>911.44</ele>
        <time>2024-10-02T07:48:39.999Z</time>
      </trkpt>
      <trkpt lat="42.60441" lon="-0.12276">
        <ele>911.36</ele>
        <time>2024-10-02T07:48:44.999Z</time>
      </trkpt>
      <trkpt lat="42.60455" lon="-0.12296">
        <ele>911.18</ele>
        <time>2024-10-02T07:48:49.999Z</time>
      </trkpt>
      <trkpt lat="42.6047" lon="-0.12316">
        <ele>911.17</ele>
        <time>2024-10-02T07:48:54.999Z</time>
      </trkpt>
      <trkpt lat="42.60484" lon="-0.12341">
        <ele>911.15</ele>
        <time>2024-10-02T07:48:59.999Z</time>
      </trkpt>
      <trkpt lat="42.60505" lon="-0.12358">
        <ele>911.16</ele>
        <time>2024-10-02T07:49:04.999Z</time>
      </trkpt>
      <trkpt lat="42.60527" lon="-0.12375">
        <ele>911.22</ele>
        <time>2024-10-02T07:49:09.999Z</time>
      </trkpt>
      <trkpt lat="42.60555" lon="-0.12377">
        <ele>910.94</ele>
        <time>2024-10-02T07:49:14.999Z</time>
      </trkpt>
      <trkpt lat="42.60578" lon="-0.12367">
        <ele>910.54</ele>
        <time>2024-10-02T07:49:19.999Z</time>
      </trkpt>
      <trkpt lat="42.60599" lon="-0.12359">
        <ele>910.4</ele>
        <time>2024-10-02T07:49:24.999Z</time>
      </trkpt>
      <trkpt lat="42.60615" lon="-0.1235">
        <ele>910.47</ele>
        <time>2024-10-02T07:49:29.999Z</time>
      </trkpt>
      <trkpt lat="42.6063" lon="-0.12342">
        <ele>910.52</ele>
        <time>2024-10-02T07:49:34.999Z</time>
      </trkpt>
      <trkpt lat="42.6064" lon="-0.12341">
        <ele>910.59</ele>
        <time>2024-10-02T07:49:39.999Z</time>
      </trkpt>
      <trkpt lat="42.6065" lon="-0.12336">
        <ele>910.6</ele>
        <time>2024-10-02T07:49:44.999Z</time>
      </trkpt>
      <trkpt lat="42.60659" lon="-0.12332">
        <ele>910.62</ele>
        <time>2024-10-02T07:49:49.999Z</time>
      </trkpt>
      <trkpt lat="42.60669" lon="-0.12326">
        <ele>910.7</ele>
        <time>2024-10-02T07:49:54.999Z</time>
      </trkpt>
      <trkpt lat="42.60678" lon="-0.12322">
        <ele>910.78</ele>
        <time>2024-10-02T07:49:59.999Z</time>
      </trkpt>
      <trkpt lat="42.60687" lon="-0.12317">
        <ele>910.87</ele>
        <time>2024-10-02T07:50:04.999Z</time>
      </trkpt>
      <trkpt lat="42.60697" lon="-0.12312">
        <ele>910.99</ele>
        <time>2024-10-02T07:50:09.999Z</time>
      </trkpt>
      <trkpt lat="42.60708" lon="-0.12305">
        <ele>911.14</ele>
        <time>2024-10-02T07:50:14.999Z</time>
      </trkpt>
      <trkpt lat="42.60718" lon="-0.12301">
        <ele>911.41</ele>
        <time>2024-10-02T07:50:20.999Z</time>
      </trkpt>
      <trkpt lat="42.60727" lon="-0.12297">
        <ele>911.77</ele>
        <time>2024-10-02T07:50:27.999Z</time>
      </trkpt>
      <trkpt lat="42.60738" lon="-0.12294">
        <ele>912.07</ele>
        <time>2024-10-02T07:50:33.999Z</time>
      </trkpt>
      <trkpt lat="42.60747" lon="-0.12295">
        <ele>912.3</ele>
        <time>2024-10-02T07:50:38.999Z</time>
      </trkpt>
      <trkpt lat="42.60756" lon="-0.12296">
        <ele>912.54</ele>
        <time>2024-10-02T07:50:43.999Z</time>
      </trkpt>
      <trkpt lat="42.60765" lon="-0.12296">
        <ele>912.76</ele>
        <time>2024-10-02T07:50:48.999Z</time>
      </trkpt>
      <trkpt lat="42.60775" lon="-0.12294">
        <ele>913.05</ele>
        <time>2024-10-02T07:50:54.999Z</time>
      </trkpt>
      <trkpt lat="42.60785" lon="-0.12293">
        <ele>913.33</ele>
        <time>2024-10-02T07:51:00.999Z</time>
      </trkpt>
      <trkpt lat="42.60794" lon="-0.12291">
        <ele>913.57</ele>
        <time>2024-10-02T07:51:05.999Z</time>
      </trkpt>
      <trkpt lat="42.60804" lon="-0.1229">
        <ele>913.81</ele>
        <time>2024-10-02T07:51:10.999Z</time>
      </trkpt>
      <trkpt lat="42.60815" lon="-0.12291">
        <ele>914.12</ele>
        <time>2024-10-02T07:51:16.999Z</time>
      </trkpt>
      <trkpt lat="42.60824" lon="-0.12292">
        <ele>914.46</ele>
        <time>2024-10-02T07:51:22.999Z</time>
      </trkpt>
      <trkpt lat="42.60834" lon="-0.12295">
        <ele>914.77</ele>
        <time>2024-10-02T07:51:27.999Z</time>
      </trkpt>
      <trkpt lat="42.60843" lon="-0.12297">
        <ele>915.08</ele>
        <time>2024-10-02T07:51:32.999Z</time>
      </trkpt>
      <trkpt lat="42.60852" lon="-0.12301">
        <ele>915.48</ele>
        <time>2024-10-02T07:51:38.999Z</time>
      </trkpt>
      <trkpt lat="42.60862" lon="-0.12305">
        <ele>915.87</ele>
        <time>2024-10-02T07:51:44.999Z</time>
      </trkpt>
      <trkpt lat="42.60872" lon="-0.1231">
        <ele>916.28</ele>
        <time>2024-10-02T07:51:50.999Z</time>
      </trkpt>
      <trkpt lat="42.60881" lon="-0.12314">
        <ele>916.63</ele>
        <time>2024-10-02T07:51:55.999Z</time>
      </trkpt>
      <trkpt lat="42.60891" lon="-0.12318">
        <ele>917.06</ele>
        <time>2024-10-02T07:52:01.999Z</time>
      </trkpt>
      <trkpt lat="42.609" lon="-0.12322">
        <ele>917.44</ele>
        <time>2024-10-02T07:52:06.999Z</time>
      </trkpt>
      <trkpt lat="42.6091" lon="-0.12327">
        <ele>917.87</ele>
        <time>2024-10-02T07:52:11.999Z</time>
      </trkpt>
      <trkpt lat="42.60919" lon="-0.12331">
        <ele>918.42</ele>
        <time>2024-10-02T07:52:17.999Z</time>
      </trkpt>
      <trkpt lat="42.60929" lon="-0.12334">
        <ele>918.95</ele>
        <time>2024-10-02T07:52:23.999Z</time>
      </trkpt>
      <trkpt lat="42.60938" lon="-0.12339">
        <ele>919.39</ele>
        <time>2024-10-02T07:52:28.999Z</time>
      </trkpt>
      <trkpt lat="42.60948" lon="-0.12344">
        <ele>919.83</ele>
        <time>2024-10-02T07:52:33.999Z</time>
      </trkpt>
      <trkpt lat="42.60957" lon="-0.12348">
        <ele>920.27</ele>
        <time>2024-10-02T07:52:38.999Z</time>
      </trkpt>
      <trkpt lat="42.60967" lon="-0.12354">
        <ele>920.82</ele>
        <time>2024-10-02T07:52:44.999Z</time>
      </trkpt>
      <trkpt lat="42.60977" lon="-0.1236">
        <ele>921.39</ele>
        <time>2024-10-02T07:52:50.999Z</time>
      </trkpt>
      <trkpt lat="42.60987" lon="-0.12365">
        <ele>921.87</ele>
        <time>2024-10-02T07:52:55.999Z</time>
      </trkpt>
      <trkpt lat="42.60995" lon="-0.12369">
        <ele>922.36</ele>
        <time>2024-10-02T07:53:00.999Z</time>
      </trkpt>
      <trkpt lat="42.61005" lon="-0.12375">
        <ele>922.86</ele>
        <time>2024-10-02T07:53:05.999Z</time>
      </trkpt>
      <trkpt lat="42.61014" lon="-0.1238">
        <ele>923.47</ele>
        <time>2024-10-02T07:53:11.999Z</time>
      </trkpt>
      <trkpt lat="42.61024" lon="-0.12386">
        <ele>923.96</ele>
        <time>2024-10-02T07:53:16.999Z</time>
      </trkpt>
      <trkpt lat="42.61033" lon="-0.12391">
        <ele>924.43</ele>
        <time>2024-10-02T07:53:22.000Z</time>
      </trkpt>
      <trkpt lat="42.61042" lon="-0.12394">
        <ele>924.89</ele>
        <time>2024-10-02T07:53:27.000Z</time>
      </trkpt>
      <trkpt lat="42.61051" lon="-0.124">
        <ele>925.41</ele>
        <time>2024-10-02T07:53:33.000Z</time>
      </trkpt>
      <trkpt lat="42.6106" lon="-0.12404">
        <ele>925.81</ele>
        <time>2024-10-02T07:53:38.000Z</time>
      </trkpt>
      <trkpt lat="42.61074" lon="-0.12414">
        <ele>926.19</ele>
        <time>2024-10-02T07:53:43.000Z</time>
      </trkpt>
      <trkpt lat="42.61086" lon="-0.12422">
        <ele>926.56</ele>
        <time>2024-10-02T07:53:48.000Z</time>
      </trkpt>
      <trkpt lat="42.61098" lon="-0.12429">
        <ele>926.92</ele>
        <time>2024-10-02T07:53:53.000Z</time>
      </trkpt>
      <trkpt lat="42.61108" lon="-0.12434">
        <ele>927.28</ele>
        <time>2024-10-02T07:53:58.000Z</time>
      </trkpt>
      <trkpt lat="42.6112" lon="-0.12439">
        <ele>927.65</ele>
        <time>2024-10-02T07:54:03.000Z</time>
      </trkpt>
      <trkpt lat="42.6113" lon="-0.12437">
        <ele>928.03</ele>
        <time>2024-10-02T07:54:08.000Z</time>
      </trkpt>
      <trkpt lat="42.6114" lon="-0.12431">
        <ele>928.52</ele>
        <time>2024-10-02T07:54:14.000Z</time>
      </trkpt>
      <trkpt lat="42.61148" lon="-0.12421">
        <ele>929.08</ele>
        <time>2024-10-02T07:54:20.000Z</time>
      </trkpt>
      <trkpt lat="42.61153" lon="-0.12409">
        <ele>929.65</ele>
        <time>2024-10-02T07:54:26.000Z</time>
      </trkpt>
      <trkpt lat="42.61156" lon="-0.12398">
        <ele>930.11</ele>
        <time>2024-10-02T07:54:31.000Z</time>
      </trkpt>
      <trkpt lat="42.61157" lon="-0.12384">
        <ele>930.63</ele>
        <time>2024-10-02T07:54:37.000Z</time>
      </trkpt>
      <trkpt lat="42.61157" lon="-0.12371">
        <ele>931.05</ele>
        <time>2024-10-02T07:54:42.000Z</time>
      </trkpt>
      <trkpt lat="42.61159" lon="-0.12355">
        <ele>931.48</ele>
        <time>2024-10-02T07:54:47.000Z</time>
      </trkpt>
      <trkpt lat="42.61162" lon="-0.12342">
        <ele>931.91</ele>
        <time>2024-10-02T07:54:52.000Z</time>
      </trkpt>
      <trkpt lat="42.61162" lon="-0.12326">
        <ele>932.37</ele>
        <time>2024-10-02T07:54:57.000Z</time>
      </trkpt>
      <trkpt lat="42.61162" lon="-0.12313">
        <ele>932.86</ele>
        <time>2024-10-02T07:55:02.000Z</time>
      </trkpt>
      <trkpt lat="42.61162" lon="-0.12299">
        <ele>933.44</ele>
        <time>2024-10-02T07:55:08.000Z</time>
      </trkpt>
      <trkpt lat="42.61162" lon="-0.12285">
        <ele>933.99</ele>
        <time>2024-10-02T07:55:14.000Z</time>
      </trkpt>
      <trkpt lat="42.61162" lon="-0.12271">
        <ele>934.42</ele>
        <time>2024-10-02T07:55:19.000Z</time>
      </trkpt>
      <trkpt lat="42.61162" lon="-0.12257">
        <ele>934.83</ele>
        <time>2024-10-02T07:55:24.000Z</time>
      </trkpt>
      <trkpt lat="42.61161" lon="-0.12245">
        <ele>935.23</ele>
        <time>2024-10-02T07:55:29.000Z</time>
      </trkpt>
      <trkpt lat="42.61158" lon="-0.12232">
        <ele>935.6</ele>
        <time>2024-10-02T07:55:34.000Z</time>
      </trkpt>
      <trkpt lat="42.61155" lon="-0.12217">
        <ele>935.95</ele>
        <time>2024-10-02T07:55:39.000Z</time>
      </trkpt>
      <trkpt lat="42.61151" lon="-0.12195">
        <ele>936.28</ele>
        <time>2024-10-02T07:55:44.000Z</time>
      </trkpt>
      <trkpt lat="42.61148" lon="-0.12174">
        <ele>936.59</ele>
        <time>2024-10-02T07:55:49.000Z</time>
      </trkpt>
      <trkpt lat="42.61145" lon="-0.12153">
        <ele>936.89</ele>
        <time>2024-10-02T07:55:54.000Z</time>
      </trkpt>
      <trkpt lat="42.61141" lon="-0.12132">
        <ele>937.18</ele>
        <time>2024-10-02T07:55:59.000Z</time>
      </trkpt>
      <trkpt lat="42.61139" lon="-0.12109">
        <ele>937.96</ele>
        <time>2024-10-02T07:56:04.000Z</time>
      </trkpt>
      <trkpt lat="42.61138" lon="-0.12086">
        <ele>938.21</ele>
        <time>2024-10-02T07:56:09.000Z</time>
      </trkpt>
      <trkpt lat="42.61137" lon="-0.12064">
        <ele>938.46</ele>
        <time>2024-10-02T07:56:14.000Z</time>
      </trkpt>
      <trkpt lat="42.61137" lon="-0.12045">
        <ele>938.71</ele>
        <time>2024-10-02T07:56:19.000Z</time>
      </trkpt>
      <trkpt lat="42.6114" lon="-0.12027">
        <ele>938.97</ele>
        <time>2024-10-02T07:56:24.000Z</time>
      </trkpt>
      <trkpt lat="42.61143" lon="-0.12012">
        <ele>939.23</ele>
        <time>2024-10-02T07:56:29.000Z</time>
      </trkpt>
      <trkpt lat="42.61146" lon="-0.11998">
        <ele>939.51</ele>
        <time>2024-10-02T07:56:34.000Z</time>
      </trkpt>
      <trkpt lat="42.61149" lon="-0.11985">
        <ele>939.88</ele>
        <time>2024-10-02T07:56:39.000Z</time>
      </trkpt>
      <trkpt lat="42.61153" lon="-0.11971">
        <ele>940.34</ele>
        <time>2024-10-02T07:56:44.000Z</time>
      </trkpt>
      <trkpt lat="42.61156" lon="-0.11959">
        <ele>940.85</ele>
        <time>2024-10-02T07:56:49.000Z</time>
      </trkpt>
      <trkpt lat="42.61159" lon="-0.11946">
        <ele>941.39</ele>
        <time>2024-10-02T07:56:54.000Z</time>
      </trkpt>
      <trkpt lat="42.61164" lon="-0.11935">
        <ele>942.04</ele>
        <time>2024-10-02T07:57:00.000Z</time>
      </trkpt>
      <trkpt lat="42.61172" lon="-0.11926">
        <ele>942.66</ele>
        <time>2024-10-02T07:57:06.000Z</time>
      </trkpt>
      <trkpt lat="42.61181" lon="-0.1192">
        <ele>943.27</ele>
        <time>2024-10-02T07:57:12.000Z</time>
      </trkpt>
      <trkpt lat="42.6119" lon="-0.11917">
        <ele>943.83</ele>
        <time>2024-10-02T07:57:18.000Z</time>
      </trkpt>
      <trkpt lat="42.612" lon="-0.11918">
        <ele>944.35</ele>
        <time>2024-10-02T07:57:24.000Z</time>
      </trkpt>
      <trkpt lat="42.61209" lon="-0.11923">
        <ele>944.91</ele>
        <time>2024-10-02T07:57:31.000Z</time>
      </trkpt>
      <trkpt lat="42.61216" lon="-0.11931">
        <ele>945.4</ele>
        <time>2024-10-02T07:57:38.000Z</time>
      </trkpt>
      <trkpt lat="42.61222" lon="-0.11942">
        <ele>945.85</ele>
        <time>2024-10-02T07:57:45.000Z</time>
      </trkpt>
      <trkpt lat="42.61226" lon="-0.11955">
        <ele>946.19</ele>
        <time>2024-10-02T07:57:51.000Z</time>
      </trkpt>
      <trkpt lat="42.61228" lon="-0.11967">
        <ele>946.52</ele>
        <time>2024-10-02T07:57:57.000Z</time>
      </trkpt>
      <trkpt lat="42.6123" lon="-0.11979">
        <ele>946.78</ele>
        <time>2024-10-02T07:58:02.000Z</time>
      </trkpt>
      <trkpt lat="42.61231" lon="-0.11992">
        <ele>947.17</ele>
        <time>2024-10-02T07:58:09.000Z</time>
      </trkpt>
      <trkpt lat="42.61232" lon="-0.12005">
        <ele>947.61</ele>
        <time>2024-10-02T07:58:15.000Z</time>
      </trkpt>
      <trkpt lat="42.6123" lon="-0.12018">
        <ele>948.2</ele>
        <time>2024-10-02T07:58:21.000Z</time>
      </trkpt>
      <trkpt lat="42.61228" lon="-0.1203">
        <ele>948.89</ele>
        <time>2024-10-02T07:58:27.000Z</time>
      </trkpt>
      <trkpt lat="42.61225" lon="-0.12043">
        <ele>949.62</ele>
        <time>2024-10-02T07:58:33.000Z</time>
      </trkpt>
      <trkpt lat="42.61221" lon="-0.12056">
        <ele>950.31</ele>
        <time>2024-10-02T07:58:39.000Z</time>
      </trkpt>
      <trkpt lat="42.61216" lon="-0.12067">
        <ele>951.01</ele>
        <time>2024-10-02T07:58:45.000Z</time>
      </trkpt>
      <trkpt lat="42.61211" lon="-0.12079">
        <ele>951.9</ele>
        <time>2024-10-02T07:58:52.000Z</time>
      </trkpt>
      <trkpt lat="42.61207" lon="-0.1209">
        <ele>952.88</ele>
        <time>2024-10-02T07:58:59.000Z</time>
      </trkpt>
      <trkpt lat="42.61203" lon="-0.12102">
        <ele>953.75</ele>
        <time>2024-10-02T07:59:05.000Z</time>
      </trkpt>
      <trkpt lat="42.61199" lon="-0.12114">
        <ele>954.72</ele>
        <time>2024-10-02T07:59:12.000Z</time>
      </trkpt>
      <trkpt lat="42.61195" lon="-0.12127">
        <ele>955.52</ele>
        <time>2024-10-02T07:59:18.000Z</time>
      </trkpt>
      <trkpt lat="42.61191" lon="-0.1214">
        <ele>956.32</ele>
        <time>2024-10-02T07:59:24.000Z</time>
      </trkpt>
      <trkpt lat="42.6119" lon="-0.12153">
        <ele>957.27</ele>
        <time>2024-10-02T07:59:31.000Z</time>
      </trkpt>
      <trkpt lat="42.61189" lon="-0.12166">
        <ele>958.26</ele>
        <time>2024-10-02T07:59:38.000Z</time>
      </trkpt>
      <trkpt lat="42.6119" lon="-0.12179">
        <ele>959.09</ele>
        <time>2024-10-02T07:59:44.000Z</time>
      </trkpt>
      <trkpt lat="42.61191" lon="-0.12192">
        <ele>959.9</ele>
        <time>2024-10-02T07:59:50.000Z</time>
      </trkpt>
      <trkpt lat="42.61191" lon="-0.12205">
        <ele>960.7</ele>
        <time>2024-10-02T07:59:56.000Z</time>
      </trkpt>
      <trkpt lat="42.61192" lon="-0.12218">
        <ele>961.59</ele>
        <time>2024-10-02T08:00:02.000Z</time>
      </trkpt>
      <trkpt lat="42.61192" lon="-0.1223">
        <ele>962.56</ele>
        <time>2024-10-02T08:00:08.000Z</time>
      </trkpt>
      <trkpt lat="42.61193" lon="-0.12243">
        <ele>963.59</ele>
        <time>2024-10-02T08:00:14.000Z</time>
      </trkpt>
      <trkpt lat="42.61195" lon="-0.12256">
        <ele>964.62</ele>
        <time>2024-10-02T08:00:20.000Z</time>
      </trkpt>
      <trkpt lat="42.61196" lon="-0.12269">
        <ele>965.63</ele>
        <time>2024-10-02T08:00:26.000Z</time>
      </trkpt>
      <trkpt lat="42.61199" lon="-0.12283">
        <ele>966.84</ele>
        <time>2024-10-02T08:00:33.000Z</time>
      </trkpt>
      <trkpt lat="42.61201" lon="-0.12297">
        <ele>968.04</ele>
        <time>2024-10-02T08:00:40.000Z</time>
      </trkpt>
      <trkpt lat="42.61202" lon="-0.1231">
        <ele>969.08</ele>
        <time>2024-10-02T08:00:46.000Z</time>
      </trkpt>
      <trkpt lat="42.61204" lon="-0.12322">
        <ele>970.11</ele>
        <time>2024-10-02T08:00:52.000Z</time>
      </trkpt>
      <trkpt lat="42.61206" lon="-0.12334">
        <ele>971.12</ele>
        <time>2024-10-02T08:00:58.000Z</time>
      </trkpt>
      <trkpt lat="42.6121" lon="-0.12347">
        <ele>972.27</ele>
        <time>2024-10-02T08:01:05.000Z</time>
      </trkpt>
      <trkpt lat="42.61213" lon="-0.1236">
        <ele>973.34</ele>
        <time>2024-10-02T08:01:12.000Z</time>
      </trkpt>
      <trkpt lat="42.61217" lon="-0.12372">
        <ele>974.31</ele>
        <time>2024-10-02T08:01:19.000Z</time>
      </trkpt>
      <trkpt lat="42.6122" lon="-0.12385">
        <ele>975.21</ele>
        <time>2024-10-02T08:01:26.000Z</time>
      </trkpt>
      <trkpt lat="42.61224" lon="-0.12398">
        <ele>975.92</ele>
        <time>2024-10-02T08:01:32.000Z</time>
      </trkpt>
      <trkpt lat="42.61227" lon="-0.12411">
        <ele>976.69</ele>
        <time>2024-10-02T08:01:39.000Z</time>
      </trkpt>
      <trkpt lat="42.61233" lon="-0.12421">
        <ele>977.41</ele>
        <time>2024-10-02T08:01:46.000Z</time>
      </trkpt>
      <trkpt lat="42.61241" lon="-0.12429">
        <ele>978.09</ele>
        <time>2024-10-02T08:01:53.000Z</time>
      </trkpt>
      <trkpt lat="42.61249" lon="-0.12437">
        <ele>978.62</ele>
        <time>2024-10-02T08:01:59.000Z</time>
      </trkpt>
      <trkpt lat="42.61257" lon="-0.12442">
        <ele>979.04</ele>
        <time>2024-10-02T08:02:04.000Z</time>
      </trkpt>
      <trkpt lat="42.61265" lon="-0.12447">
        <ele>979.51</ele>
        <time>2024-10-02T08:02:10.000Z</time>
      </trkpt>
      <trkpt lat="42.61276" lon="-0.12447">
        <ele>979.98</ele>
        <time>2024-10-02T08:02:16.000Z</time>
      </trkpt>
      <trkpt lat="42.61285" lon="-0.12443">
        <ele>980.37</ele>
        <time>2024-10-02T08:02:21.000Z</time>
      </trkpt>
      <trkpt lat="42.61293" lon="-0.12435">
        <ele>980.98</ele>
        <time>2024-10-02T08:02:28.000Z</time>
      </trkpt>
      <trkpt lat="42.61298" lon="-0.12423">
        <ele>981.54</ele>
        <time>2024-10-02T08:02:34.000Z</time>
      </trkpt>
      <trkpt lat="42.61303" lon="-0.12412">
        <ele>982.11</ele>
        <time>2024-10-02T08:02:40.000Z</time>
      </trkpt>
      <trkpt lat="42.61307" lon="-0.124">
        <ele>982.67</ele>
        <time>2024-10-02T08:02:46.000Z</time>
      </trkpt>
      <trkpt lat="42.61309" lon="-0.12388">
        <ele>983.26</ele>
        <time>2024-10-02T08:02:53.000Z</time>
      </trkpt>
      <trkpt lat="42.6131" lon="-0.12375">
        <ele>983.72</ele>
        <time>2024-10-02T08:02:59.000Z</time>
      </trkpt>
      <trkpt lat="42.61305" lon="-0.12364">
        <ele>985.46</ele>
        <time>2024-10-02T08:04:42.000Z</time>
      </trkpt>
      <trkpt lat="42.61305" lon="-0.1235">
        <ele>986.26</ele>
        <time>2024-10-02T08:04:56.000Z</time>
      </trkpt>
      <trkpt lat="42.61305" lon="-0.12337">
        <ele>986.7</ele>
        <time>2024-10-02T08:05:02.000Z</time>
      </trkpt>
      <trkpt lat="42.61306" lon="-0.12325">
        <ele>987.11</ele>
        <time>2024-10-02T08:05:08.000Z</time>
      </trkpt>
      <trkpt lat="42.61307" lon="-0.12311">
        <ele>987.54</ele>
        <time>2024-10-02T08:05:15.000Z</time>
      </trkpt>
      <trkpt lat="42.61307" lon="-0.12297">
        <ele>987.87</ele>
        <time>2024-10-02T08:05:21.000Z</time>
      </trkpt>
      <trkpt lat="42.61307" lon="-0.12283">
        <ele>988.17</ele>
        <time>2024-10-02T08:05:26.999Z</time>
      </trkpt>
      <trkpt lat="42.61307" lon="-0.1227">
        <ele>988.5</ele>
        <time>2024-10-02T08:05:33.999Z</time>
      </trkpt>
      <trkpt lat="42.61308" lon="-0.12256">
        <ele>988.8</ele>
        <time>2024-10-02T08:05:40.999Z</time>
      </trkpt>
      <trkpt lat="42.61306" lon="-0.12243">
        <ele>989.01</ele>
        <time>2024-10-02T08:05:45.999Z</time>
      </trkpt>
      <trkpt lat="42.61303" lon="-0.1223">
        <ele>989.25</ele>
        <time>2024-10-02T08:05:51.999Z</time>
      </trkpt>
      <trkpt lat="42.61302" lon="-0.12216">
        <ele>989.53</ele>
        <time>2024-10-02T08:05:58.999Z</time>
      </trkpt>
      <trkpt lat="42.613" lon="-0.12203">
        <ele>989.82</ele>
        <time>2024-10-02T08:06:06.999Z</time>
      </trkpt>
      <trkpt lat="42.613" lon="-0.12191">
        <ele>989.99</ele>
        <time>2024-10-02T08:06:11.999Z</time>
      </trkpt>
      <trkpt lat="42.61301" lon="-0.12178">
        <ele>990.15</ele>
        <time>2024-10-02T08:06:16.999Z</time>
      </trkpt>
      <trkpt lat="42.61298" lon="-0.12163">
        <ele>990.33</ele>
        <time>2024-10-02T08:06:22.999Z</time>
      </trkpt>
      <trkpt lat="42.61294" lon="-0.12151">
        <ele>990.51</ele>
        <time>2024-10-02T08:06:28.999Z</time>
      </trkpt>
      <trkpt lat="42.61293" lon="-0.12139">
        <ele>990.65</ele>
        <time>2024-10-02T08:06:33.999Z</time>
      </trkpt>
      <trkpt lat="42.61289" lon="-0.12126">
        <ele>990.86</ele>
        <time>2024-10-02T08:06:40.999Z</time>
      </trkpt>
      <trkpt lat="42.61287" lon="-0.12113">
        <ele>991.01</ele>
        <time>2024-10-02T08:06:45.999Z</time>
      </trkpt>
      <trkpt lat="42.61283" lon="-0.12101">
        <ele>991.24</ele>
        <time>2024-10-02T08:06:51.999Z</time>
      </trkpt>
      <trkpt lat="42.61281" lon="-0.12088">
        <ele>991.59</ele>
        <time>2024-10-02T08:06:59.999Z</time>
      </trkpt>
      <trkpt lat="42.61281" lon="-0.12074">
        <ele>991.91</ele>
        <time>2024-10-02T08:07:05.999Z</time>
      </trkpt>
      <trkpt lat="42.61286" lon="-0.12062">
        <ele>992.22</ele>
        <time>2024-10-02T08:07:10.999Z</time>
      </trkpt>
      <trkpt lat="42.6129" lon="-0.12051">
        <ele>992.58</ele>
        <time>2024-10-02T08:07:15.999Z</time>
      </trkpt>
      <trkpt lat="42.61295" lon="-0.12039">
        <ele>992.97</ele>
        <time>2024-10-02T08:07:20.999Z</time>
      </trkpt>
      <trkpt lat="42.61299" lon="-0.12026">
        <ele>993.38</ele>
        <time>2024-10-02T08:07:25.999Z</time>
      </trkpt>
      <trkpt lat="42.61304" lon="-0.12013">
        <ele>993.77</ele>
        <time>2024-10-02T08:07:30.999Z</time>
      </trkpt>
      <trkpt lat="42.61311" lon="-0.12003">
        <ele>994.15</ele>
        <time>2024-10-02T08:07:35.999Z</time>
      </trkpt>
      <trkpt lat="42.61319" lon="-0.11996">
        <ele>994.52</ele>
        <time>2024-10-02T08:07:40.999Z</time>
      </trkpt>
      <trkpt lat="42.61331" lon="-0.1199">
        <ele>994.86</ele>
        <time>2024-10-02T08:07:45.999Z</time>
      </trkpt>
      <trkpt lat="42.61344" lon="-0.11985">
        <ele>995.18</ele>
        <time>2024-10-02T08:07:50.999Z</time>
      </trkpt>
      <trkpt lat="42.61357" lon="-0.11986">
        <ele>995.48</ele>
        <time>2024-10-02T08:07:55.999Z</time>
      </trkpt>
      <trkpt lat="42.61372" lon="-0.11988">
        <ele>995.76</ele>
        <time>2024-10-02T08:08:00.999Z</time>
      </trkpt>
      <trkpt lat="42.61392" lon="-0.11988">
        <ele>997.07</ele>
        <time>2024-10-02T08:08:05.999Z</time>
      </trkpt>
      <trkpt lat="42.61409" lon="-0.11978">
        <ele>997.69</ele>
        <time>2024-10-02T08:08:10.999Z</time>
      </trkpt>
      <trkpt lat="42.61417" lon="-0.11962">
        <ele>998.22</ele>
        <time>2024-10-02T08:08:15.999Z</time>
      </trkpt>
      <trkpt lat="42.61421" lon="-0.11948">
        <ele>999.22</ele>
        <time>2024-10-02T08:08:20.999Z</time>
      </trkpt>
      <trkpt lat="42.61426" lon="-0.11934">
        <ele>1000.57</ele>
        <time>2024-10-02T08:08:25.999Z</time>
      </trkpt>
      <trkpt lat="42.61432" lon="-0.11921">
        <ele>1002.1</ele>
        <time>2024-10-02T08:08:30.999Z</time>
      </trkpt>
      <trkpt lat="42.61442" lon="-0.11911">
        <ele>1003.68</ele>
        <time>2024-10-02T08:08:35.999Z</time>
      </trkpt>
      <trkpt lat="42.61451" lon="-0.11905">
        <ele>1005.27</ele>
        <time>2024-10-02T08:08:40.999Z</time>
      </trkpt>
      <trkpt lat="42.61461" lon="-0.11901">
        <ele>1006.84</ele>
        <time>2024-10-02T08:08:45.999Z</time>
      </trkpt>
      <trkpt lat="42.61471" lon="-0.11897">
        <ele>1008.41</ele>
        <time>2024-10-02T08:08:50.999Z</time>
      </trkpt>
      <trkpt lat="42.61482" lon="-0.1189">
        <ele>1009.97</ele>
        <time>2024-10-02T08:08:55.999Z</time>
      </trkpt>
      <trkpt lat="42.61492" lon="-0.11879">
        <ele>1011.5</ele>
        <time>2024-10-02T08:09:00.999Z</time>
      </trkpt>
      <trkpt lat="42.61498" lon="-0.11865">
        <ele>1012.99</ele>
        <time>2024-10-02T08:09:05.999Z</time>
      </trkpt>
      <trkpt lat="42.61504" lon="-0.11854">
        <ele>1014.42</ele>
        <time>2024-10-02T08:09:10.999Z</time>
      </trkpt>
      <trkpt lat="42.61511" lon="-0.11844">
        <ele>1015.78</ele>
        <time>2024-10-02T08:09:15.999Z</time>
      </trkpt>
      <trkpt lat="42.6152" lon="-0.11834">
        <ele>1017.1</ele>
        <time>2024-10-02T08:09:20.999Z</time>
      </trkpt>
      <trkpt lat="42.61529" lon="-0.11827">
        <ele>1018.37</ele>
        <time>2024-10-02T08:09:25.999Z</time>
      </trkpt>
      <trkpt lat="42.61539" lon="-0.11823">
        <ele>1019.59</ele>
        <time>2024-10-02T08:09:30.999Z</time>
      </trkpt>
      <trkpt lat="42.6155" lon="-0.11821">
        <ele>1020.72</ele>
        <time>2024-10-02T08:09:35.999Z</time>
      </trkpt>
      <trkpt lat="42.61559" lon="-0.11825">
        <ele>1021.76</ele>
        <time>2024-10-02T08:09:40.999Z</time>
      </trkpt>
      <trkpt lat="42.61568" lon="-0.11835">
        <ele>1022.75</ele>
        <time>2024-10-02T08:09:45.999Z</time>
      </trkpt>
      <trkpt lat="42.61575" lon="-0.11846">
        <ele>1023.67</ele>
        <time>2024-10-02T08:09:50.999Z</time>
      </trkpt>
      <trkpt lat="42.61578" lon="-0.11858">
        <ele>1024.57</ele>
        <time>2024-10-02T08:09:55.999Z</time>
      </trkpt>
      <trkpt lat="42.61578" lon="-0.11872">
        <ele>1026.01</ele>
        <time>2024-10-02T08:10:03.999Z</time>
      </trkpt>
      <trkpt lat="42.61574" lon="-0.11883">
        <ele>1027.1</ele>
        <time>2024-10-02T08:10:09.999Z</time>
      </trkpt>
      <trkpt lat="42.61569" lon="-0.11896">
        <ele>1028.3</ele>
        <time>2024-10-02T08:10:16.999Z</time>
      </trkpt>
      <trkpt lat="42.61564" lon="-0.11906">
        <ele>1029.15</ele>
        <time>2024-10-02T08:10:21.999Z</time>
      </trkpt>
      <trkpt lat="42.61557" lon="-0.11915">
        <ele>1030.03</ele>
        <time>2024-10-02T08:10:26.999Z</time>
      </trkpt>
      <trkpt lat="42.6155" lon="-0.11925">
        <ele>1031.09</ele>
        <time>2024-10-02T08:10:32.999Z</time>
      </trkpt>
      <trkpt lat="42.61543" lon="-0.11936">
        <ele>1032.37</ele>
        <time>2024-10-02T08:10:39.999Z</time>
      </trkpt>
      <trkpt lat="42.61537" lon="-0.11946">
        <ele>1033.69</ele>
        <time>2024-10-02T08:10:46.999Z</time>
      </trkpt>
      <trkpt lat="42.61531" lon="-0.11957">
        <ele>1035.01</ele>
        <time>2024-10-02T08:10:53.999Z</time>
      </trkpt>
      <trkpt lat="42.61524" lon="-0.11966">
        <ele>1036.36</ele>
        <time>2024-10-02T08:11:00.999Z</time>
      </trkpt>
      <trkpt lat="42.61517" lon="-0.11977">
        <ele>1037.71</ele>
        <time>2024-10-02T08:11:07.999Z</time>
      </trkpt>
      <trkpt lat="42.6151" lon="-0.11986">
        <ele>1039.03</ele>
        <time>2024-10-02T08:11:14.999Z</time>
      </trkpt>
      <trkpt lat="42.61504" lon="-0.11996">
        <ele>1040.12</ele>
        <time>2024-10-02T08:11:20.999Z</time>
      </trkpt>
      <trkpt lat="42.61497" lon="-0.12006">
        <ele>1041.33</ele>
        <time>2024-10-02T08:11:27.999Z</time>
      </trkpt>
      <trkpt lat="42.61491" lon="-0.12015">
        <ele>1042.33</ele>
        <time>2024-10-02T08:11:33.999Z</time>
      </trkpt>
      <trkpt lat="42.61484" lon="-0.12024">
        <ele>1043.32</ele>
        <time>2024-10-02T08:11:39.999Z</time>
      </trkpt>
      <trkpt lat="42.61477" lon="-0.12033">
        <ele>1044.3</ele>
        <time>2024-10-02T08:11:45.999Z</time>
      </trkpt>
      <trkpt lat="42.6147" lon="-0.12043">
        <ele>1045.43</ele>
        <time>2024-10-02T08:11:52.999Z</time>
      </trkpt>
      <trkpt lat="42.61464" lon="-0.12052">
        <ele>1046.36</ele>
        <time>2024-10-02T08:11:58.999Z</time>
      </trkpt>
      <trkpt lat="42.61459" lon="-0.12064">
        <ele>1047.38</ele>
        <time>2024-10-02T08:12:05.999Z</time>
      </trkpt>
      <trkpt lat="42.61455" lon="-0.12076">
        <ele>1048.21</ele>
        <time>2024-10-02T08:12:11.999Z</time>
      </trkpt>
      <trkpt lat="42.61455" lon="-0.1209">
        <ele>1048.99</ele>
        <time>2024-10-02T08:12:17.999Z</time>
      </trkpt>
      <trkpt lat="42.61455" lon="-0.12103">
        <ele>1049.7</ele>
        <time>2024-10-02T08:12:23.999Z</time>
      </trkpt>
      <trkpt lat="42.61454" lon="-0.12117">
        <ele>1050.5</ele>
        <time>2024-10-02T08:12:30.999Z</time>
      </trkpt>
      <trkpt lat="42.61454" lon="-0.12132">
        <ele>1051.29</ele>
        <time>2024-10-02T08:12:37.999Z</time>
      </trkpt>
      <trkpt lat="42.61455" lon="-0.12145">
        <ele>1051.96</ele>
        <time>2024-10-02T08:12:43.999Z</time>
      </trkpt>
      <trkpt lat="42.61455" lon="-0.12158">
        <ele>1052.63</ele>
        <time>2024-10-02T08:12:49.999Z</time>
      </trkpt>
      <trkpt lat="42.61456" lon="-0.12172">
        <ele>1053.28</ele>
        <time>2024-10-02T08:12:55.999Z</time>
      </trkpt>
      <trkpt lat="42.61459" lon="-0.12186">
        <ele>1053.93</ele>
        <time>2024-10-02T08:13:01.999Z</time>
      </trkpt>
      <trkpt lat="42.61463" lon="-0.12196">
        <ele>1054.7</ele>
        <time>2024-10-02T08:13:08.999Z</time>
      </trkpt>
      <trkpt lat="42.61468" lon="-0.12208">
        <ele>1055.34</ele>
        <time>2024-10-02T08:13:14.999Z</time>
      </trkpt>
      <trkpt lat="42.61473" lon="-0.12219">
        <ele>1056.18</ele>
        <time>2024-10-02T08:13:22.999Z</time>
      </trkpt>
      <trkpt lat="42.61478" lon="-0.12232">
        <ele>1057.01</ele>
        <time>2024-10-02T08:13:30.999Z</time>
      </trkpt>
      <trkpt lat="42.61483" lon="-0.12242">
        <ele>1057.56</ele>
        <time>2024-10-02T08:13:36.999Z</time>
      </trkpt>
      <trkpt lat="42.61487" lon="-0.12254">
        <ele>1058.07</ele>
        <time>2024-10-02T08:13:42.999Z</time>
      </trkpt>
      <trkpt lat="42.61491" lon="-0.12266">
        <ele>1058.6</ele>
        <time>2024-10-02T08:13:49.999Z</time>
      </trkpt>
      <trkpt lat="42.61494" lon="-0.12279">
        <ele>1059.01</ele>
        <time>2024-10-02T08:13:55.999Z</time>
      </trkpt>
      <trkpt lat="42.61493" lon="-0.12294">
        <ele>1059.4</ele>
        <time>2024-10-02T08:14:01.999Z</time>
      </trkpt>
      <trkpt lat="42.6149" lon="-0.12306">
        <ele>1059.73</ele>
        <time>2024-10-02T08:14:07.999Z</time>
      </trkpt>
      <trkpt lat="42.61484" lon="-0.12317">
        <ele>1060.22</ele>
        <time>2024-10-02T08:14:16.999Z</time>
      </trkpt>
      <trkpt lat="42.61475" lon="-0.12321">
        <ele>1060.57</ele>
        <time>2024-10-02T08:14:23.999Z</time>
      </trkpt>
      <trkpt lat="42.61466" lon="-0.12323">
        <ele>1060.88</ele>
        <time>2024-10-02T08:14:29.999Z</time>
      </trkpt>
      <trkpt lat="42.61456" lon="-0.12319">
        <ele>1061.19</ele>
        <time>2024-10-02T08:14:35.999Z</time>
      </trkpt>
      <trkpt lat="42.6145" lon="-0.12307">
        <ele>1061.55</ele>
        <time>2024-10-02T08:14:42.999Z</time>
      </trkpt>
      <trkpt lat="42.61446" lon="-0.12296">
        <ele>1061.9</ele>
        <time>2024-10-02T08:14:48.999Z</time>
      </trkpt>
      <trkpt lat="42.61441" lon="-0.12284">
        <ele>1062.26</ele>
        <time>2024-10-02T08:14:54.999Z</time>
      </trkpt>
      <trkpt lat="42.61436" lon="-0.12273">
        <ele>1062.64</ele>
        <time>2024-10-02T08:15:00.999Z</time>
      </trkpt>
      <trkpt lat="42.61431" lon="-0.1226">
        <ele>1063.07</ele>
        <time>2024-10-02T08:15:07.999Z</time>
      </trkpt>
      <trkpt lat="42.61427" lon="-0.12247">
        <ele>1063.5</ele>
        <time>2024-10-02T08:15:14.999Z</time>
      </trkpt>
      <trkpt lat="42.61423" lon="-0.12235">
        <ele>1063.95</ele>
        <time>2024-10-02T08:15:20.999Z</time>
      </trkpt>
      <trkpt lat="42.61418" lon="-0.12224">
        <ele>1064.5</ele>
        <time>2024-10-02T08:15:27.999Z</time>
      </trkpt>
      <trkpt lat="42.6141" lon="-0.12217">
        <ele>1064.94</ele>
        <time>2024-10-02T08:15:32.999Z</time>
      </trkpt>
      <trkpt lat="42.61401" lon="-0.12212">
        <ele>1065.61</ele>
        <time>2024-10-02T08:15:39.999Z</time>
      </trkpt>
      <trkpt lat="42.61391" lon="-0.12214">
        <ele>1066.24</ele>
        <time>2024-10-02T08:15:45.999Z</time>
      </trkpt>
      <trkpt lat="42.61384" lon="-0.12223">
        <ele>1066.9</ele>
        <time>2024-10-02T08:15:51.999Z</time>
      </trkpt>
      <trkpt lat="42.61381" lon="-0.12235">
        <ele>1067.53</ele>
        <time>2024-10-02T08:15:57.999Z</time>
      </trkpt>
      <trkpt lat="42.61381" lon="-0.12249">
        <ele>1068.16</ele>
        <time>2024-10-02T08:16:03.999Z</time>
      </trkpt>
      <trkpt lat="42.61384" lon="-0.12262">
        <ele>1068.77</ele>
        <time>2024-10-02T08:16:09.999Z</time>
      </trkpt>
      <trkpt lat="42.61389" lon="-0.12273">
        <ele>1069.45</ele>
        <time>2024-10-02T08:16:16.999Z</time>
      </trkpt>
      <trkpt lat="42.61395" lon="-0.12284">
        <ele>1070.17</ele>
        <time>2024-10-02T08:16:24.999Z</time>
      </trkpt>
      <trkpt lat="42.61399" lon="-0.12297">
        <ele>1070.7</ele>
        <time>2024-10-02T08:16:30.999Z</time>
      </trkpt>
      <trkpt lat="42.61402" lon="-0.12308">
        <ele>1071.26</ele>
        <time>2024-10-02T08:16:36.999Z</time>
      </trkpt>
      <trkpt lat="42.61404" lon="-0.1232">
        <ele>1071.84</ele>
        <time>2024-10-02T08:16:42.999Z</time>
      </trkpt>
      <trkpt lat="42.61407" lon="-0.12332">
        <ele>1072.44</ele>
        <time>2024-10-02T08:16:48.999Z</time>
      </trkpt>
      <trkpt lat="42.61409" lon="-0.12346">
        <ele>1073.17</ele>
        <time>2024-10-02T08:16:55.999Z</time>
      </trkpt>
      <trkpt lat="42.61412" lon="-0.1236">
        <ele>1073.92</ele>
        <time>2024-10-02T08:17:02.999Z</time>
      </trkpt>
      <trkpt lat="42.61414" lon="-0.12373">
        <ele>1074.59</ele>
        <time>2024-10-02T08:17:08.999Z</time>
      </trkpt>
      <trkpt lat="42.61415" lon="-0.12385">
        <ele>1075.3</ele>
        <time>2024-10-02T08:17:14.999Z</time>
      </trkpt>
      <trkpt lat="42.61416" lon="-0.124">
        <ele>1076.15</ele>
        <time>2024-10-02T08:17:21.999Z</time>
      </trkpt>
      <trkpt lat="42.61417" lon="-0.12412">
        <ele>1076.88</ele>
        <time>2024-10-02T08:17:27.999Z</time>
      </trkpt>
      <trkpt lat="42.61419" lon="-0.12424">
        <ele>1077.6</ele>
        <time>2024-10-02T08:17:33.999Z</time>
      </trkpt>
      <trkpt lat="42.61421" lon="-0.12437">
        <ele>1078.31</ele>
        <time>2024-10-02T08:17:40.000Z</time>
      </trkpt>
      <trkpt lat="42.61423" lon="-0.12449">
        <ele>1079.01</ele>
        <time>2024-10-02T08:17:46.000Z</time>
      </trkpt>
      <trkpt lat="42.61426" lon="-0.12462">
        <ele>1079.72</ele>
        <time>2024-10-02T08:17:52.000Z</time>
      </trkpt>
      <trkpt lat="42.61428" lon="-0.12474">
        <ele>1080.42</ele>
        <time>2024-10-02T08:17:58.000Z</time>
      </trkpt>
      <trkpt lat="42.61431" lon="-0.12487">
        <ele>1081.2</ele>
        <time>2024-10-02T08:18:05.000Z</time>
      </trkpt>
      <trkpt lat="42.61432" lon="-0.12501">
        <ele>1081.94</ele>
        <time>2024-10-02T08:18:12.000Z</time>
      </trkpt>
      <trkpt lat="42.61432" lon="-0.12513">
        <ele>1082.53</ele>
        <time>2024-10-02T08:18:18.000Z</time>
      </trkpt>
      <trkpt lat="42.61432" lon="-0.12527">
        <ele>1083.21</ele>
        <time>2024-10-02T08:18:25.000Z</time>
      </trkpt>
      <trkpt lat="42.61431" lon="-0.12541">
        <ele>1083.86</ele>
        <time>2024-10-02T08:18:32.000Z</time>
      </trkpt>
      <trkpt lat="42.6143" lon="-0.12554">
        <ele>1084.41</ele>
        <time>2024-10-02T08:18:38.000Z</time>
      </trkpt>
      <trkpt lat="42.61428" lon="-0.12566">
        <ele>1084.96</ele>
        <time>2024-10-02T08:18:44.000Z</time>
      </trkpt>
      <trkpt lat="42.61428" lon="-0.12579">
        <ele>1085.49</ele>
        <time>2024-10-02T08:18:50.000Z</time>
      </trkpt>
      <trkpt lat="42.61427" lon="-0.12593">
        <ele>1086.08</ele>
        <time>2024-10-02T08:18:57.000Z</time>
      </trkpt>
      <trkpt lat="42.61426" lon="-0.12606">
        <ele>1086.57</ele>
        <time>2024-10-02T08:19:03.000Z</time>
      </trkpt>
      <trkpt lat="42.61426" lon="-0.1262">
        <ele>1087.11</ele>
        <time>2024-10-02T08:19:10.000Z</time>
      </trkpt>
      <trkpt lat="42.61424" lon="-0.12632">
        <ele>1087.56</ele>
        <time>2024-10-02T08:19:16.000Z</time>
      </trkpt>
      <trkpt lat="42.61424" lon="-0.12645">
        <ele>1088</ele>
        <time>2024-10-02T08:19:22.000Z</time>
      </trkpt>
      <trkpt lat="42.61423" lon="-0.12659">
        <ele>1088.48</ele>
        <time>2024-10-02T08:19:29.000Z</time>
      </trkpt>
      <trkpt lat="42.61422" lon="-0.12671">
        <ele>1088.89</ele>
        <time>2024-10-02T08:19:35.000Z</time>
      </trkpt>
      <trkpt lat="42.61421" lon="-0.12684">
        <ele>1089.29</ele>
        <time>2024-10-02T08:19:41.000Z</time>
      </trkpt>
      <trkpt lat="42.61419" lon="-0.12696">
        <ele>1089.68</ele>
        <time>2024-10-02T08:19:47.000Z</time>
      </trkpt>
      <trkpt lat="42.61418" lon="-0.1271">
        <ele>1090.13</ele>
        <time>2024-10-02T08:19:54.000Z</time>
      </trkpt>
      <trkpt lat="42.61419" lon="-0.12724">
        <ele>1090.57</ele>
        <time>2024-10-02T08:20:01.000Z</time>
      </trkpt>
      <trkpt lat="42.61419" lon="-0.12736">
        <ele>1090.93</ele>
        <time>2024-10-02T08:20:07.000Z</time>
      </trkpt>
      <trkpt lat="42.61419" lon="-0.12749">
        <ele>1091.28</ele>
        <time>2024-10-02T08:20:13.000Z</time>
      </trkpt>
      <trkpt lat="42.61419" lon="-0.12762">
        <ele>1091.63</ele>
        <time>2024-10-02T08:20:19.000Z</time>
      </trkpt>
      <trkpt lat="42.61418" lon="-0.12774">
        <ele>1091.97</ele>
        <time>2024-10-02T08:20:25.000Z</time>
      </trkpt>
      <trkpt lat="42.61417" lon="-0.12788">
        <ele>1092.37</ele>
        <time>2024-10-02T08:20:32.000Z</time>
      </trkpt>
      <trkpt lat="42.61416" lon="-0.128">
        <ele>1092.71</ele>
        <time>2024-10-02T08:20:38.000Z</time>
      </trkpt>
      <trkpt lat="42.61417" lon="-0.12814">
        <ele>1093.05</ele>
        <time>2024-10-02T08:20:44.000Z</time>
      </trkpt>
      <trkpt lat="42.61417" lon="-0.12827">
        <ele>1093.39</ele>
        <time>2024-10-02T08:20:50.000Z</time>
      </trkpt>
      <trkpt lat="42.61417" lon="-0.1284">
        <ele>1093.75</ele>
        <time>2024-10-02T08:20:56.000Z</time>
      </trkpt>
      <trkpt lat="42.6142" lon="-0.12851">
        <ele>1094.11</ele>
        <time>2024-10-02T08:21:02.000Z</time>
      </trkpt>
      <trkpt lat="42.61422" lon="-0.12864">
        <ele>1094.48</ele>
        <time>2024-10-02T08:21:08.000Z</time>
      </trkpt>
      <trkpt lat="42.61424" lon="-0.12876">
        <ele>1094.86</ele>
        <time>2024-10-02T08:21:14.000Z</time>
      </trkpt>
      <trkpt lat="42.61429" lon="-0.12889">
        <ele>1095.3</ele>
        <time>2024-10-02T08:21:21.000Z</time>
      </trkpt>
      <trkpt lat="42.61433" lon="-0.129">
        <ele>1095.68</ele>
        <time>2024-10-02T08:21:27.000Z</time>
      </trkpt>
      <trkpt lat="42.61436" lon="-0.12913">
        <ele>1096.13</ele>
        <time>2024-10-02T08:21:34.000Z</time>
      </trkpt>
      <trkpt lat="42.61441" lon="-0.12925">
        <ele>1096.51</ele>
        <time>2024-10-02T08:21:40.000Z</time>
      </trkpt>
      <trkpt lat="42.61443" lon="-0.12937">
        <ele>1096.89</ele>
        <time>2024-10-02T08:21:46.000Z</time>
      </trkpt>
      <trkpt lat="42.61445" lon="-0.1295">
        <ele>1097.28</ele>
        <time>2024-10-02T08:21:52.000Z</time>
      </trkpt>
      <trkpt lat="42.61449" lon="-0.12962">
        <ele>1097.72</ele>
        <time>2024-10-02T08:21:59.000Z</time>
      </trkpt>
      <trkpt lat="42.61452" lon="-0.12973">
        <ele>1098.09</ele>
        <time>2024-10-02T08:22:05.000Z</time>
      </trkpt>
      <trkpt lat="42.61456" lon="-0.12984">
        <ele>1098.44</ele>
        <time>2024-10-02T08:22:11.000Z</time>
      </trkpt>
      <trkpt lat="42.61459" lon="-0.12996">
        <ele>1098.78</ele>
        <time>2024-10-02T08:22:17.000Z</time>
      </trkpt>
      <trkpt lat="42.61462" lon="-0.13009">
        <ele>1099.1</ele>
        <time>2024-10-02T08:22:23.000Z</time>
      </trkpt>
      <trkpt lat="42.61465" lon="-0.13022">
        <ele>1099.47</ele>
        <time>2024-10-02T08:22:30.000Z</time>
      </trkpt>
      <trkpt lat="42.61465" lon="-0.13035">
        <ele>1099.77</ele>
        <time>2024-10-02T08:22:36.000Z</time>
      </trkpt>
      <trkpt lat="42.61465" lon="-0.13049">
        <ele>1100.13</ele>
        <time>2024-10-02T08:22:43.000Z</time>
      </trkpt>
      <trkpt lat="42.61464" lon="-0.13062">
        <ele>1100.46</ele>
        <time>2024-10-02T08:22:49.000Z</time>
      </trkpt>
      <trkpt lat="42.61464" lon="-0.13076">
        <ele>1100.87</ele>
        <time>2024-10-02T08:22:56.000Z</time>
      </trkpt>
      <trkpt lat="42.61466" lon="-0.13089">
        <ele>1101.23</ele>
        <time>2024-10-02T08:23:02.000Z</time>
      </trkpt>
      <trkpt lat="42.6147" lon="-0.13101">
        <ele>1101.62</ele>
        <time>2024-10-02T08:23:09.000Z</time>
      </trkpt>
      <trkpt lat="42.61473" lon="-0.13114">
        <ele>1101.94</ele>
        <time>2024-10-02T08:23:15.000Z</time>
      </trkpt>
      <trkpt lat="42.61478" lon="-0.13124">
        <ele>1102.24</ele>
        <time>2024-10-02T08:23:21.000Z</time>
      </trkpt>
      <trkpt lat="42.61483" lon="-0.13136">
        <ele>1102.55</ele>
        <time>2024-10-02T08:23:27.000Z</time>
      </trkpt>
      <trkpt lat="42.61488" lon="-0.13148">
        <ele>1102.91</ele>
        <time>2024-10-02T08:23:34.000Z</time>
      </trkpt>
      <trkpt lat="42.61491" lon="-0.13161">
        <ele>1103.24</ele>
        <time>2024-10-02T08:23:41.000Z</time>
      </trkpt>
      <trkpt lat="42.61493" lon="-0.13173">
        <ele>1103.49</ele>
        <time>2024-10-02T08:23:46.000Z</time>
      </trkpt>
      <trkpt lat="42.61495" lon="-0.13185">
        <ele>1103.81</ele>
        <time>2024-10-02T08:23:52.000Z</time>
      </trkpt>
      <trkpt lat="42.61496" lon="-0.13198">
        <ele>1104.18</ele>
        <time>2024-10-02T08:23:59.000Z</time>
      </trkpt>
      <trkpt lat="42.61497" lon="-0.13211">
        <ele>1104.51</ele>
        <time>2024-10-02T08:24:05.000Z</time>
      </trkpt>
      <trkpt lat="42.61497" lon="-0.13223">
        <ele>1104.95</ele>
        <time>2024-10-02T08:24:12.000Z</time>
      </trkpt>
      <trkpt lat="42.61498" lon="-0.13237">
        <ele>1105.51</ele>
        <time>2024-10-02T08:24:19.000Z</time>
      </trkpt>
      <trkpt lat="42.61498" lon="-0.1325">
        <ele>1106.09</ele>
        <time>2024-10-02T08:24:25.000Z</time>
      </trkpt>
      <trkpt lat="42.61497" lon="-0.13263">
        <ele>1106.89</ele>
        <time>2024-10-02T08:24:32.000Z</time>
      </trkpt>
      <trkpt lat="42.61496" lon="-0.13276">
        <ele>1107.7</ele>
        <time>2024-10-02T08:24:38.000Z</time>
      </trkpt>
      <trkpt lat="42.61497" lon="-0.1329">
        <ele>1108.76</ele>
        <time>2024-10-02T08:24:45.000Z</time>
      </trkpt>
      <trkpt lat="42.61497" lon="-0.13302">
        <ele>1109.73</ele>
        <time>2024-10-02T08:24:51.000Z</time>
      </trkpt>
      <trkpt lat="42.61497" lon="-0.13315">
        <ele>1110.92</ele>
        <time>2024-10-02T08:24:58.000Z</time>
      </trkpt>
      <trkpt lat="42.61497" lon="-0.1333">
        <ele>1112.14</ele>
        <time>2024-10-02T08:25:05.000Z</time>
      </trkpt>
      <trkpt lat="42.61498" lon="-0.13342">
        <ele>1113.2</ele>
        <time>2024-10-02T08:25:11.000Z</time>
      </trkpt>
      <trkpt lat="42.61498" lon="-0.13354">
        <ele>1114.27</ele>
        <time>2024-10-02T08:25:17.000Z</time>
      </trkpt>
      <trkpt lat="42.615" lon="-0.13368">
        <ele>1115.51</ele>
        <time>2024-10-02T08:25:24.000Z</time>
      </trkpt>
      <trkpt lat="42.61501" lon="-0.13382">
        <ele>1116.75</ele>
        <time>2024-10-02T08:25:31.000Z</time>
      </trkpt>
      <trkpt lat="42.61503" lon="-0.13394">
        <ele>1117.97</ele>
        <time>2024-10-02T08:25:38.000Z</time>
      </trkpt>
      <trkpt lat="42.61505" lon="-0.13407">
        <ele>1119.15</ele>
        <time>2024-10-02T08:25:45.000Z</time>
      </trkpt>
      <trkpt lat="42.61507" lon="-0.13421">
        <ele>1120.32</ele>
        <time>2024-10-02T08:25:52.000Z</time>
      </trkpt>
      <trkpt lat="42.61509" lon="-0.13434">
        <ele>1121.44</ele>
        <time>2024-10-02T08:25:59.000Z</time>
      </trkpt>
      <trkpt lat="42.61512" lon="-0.13447">
        <ele>1122.51</ele>
        <time>2024-10-02T08:26:06.000Z</time>
      </trkpt>
      <trkpt lat="42.61514" lon="-0.13459">
        <ele>1123.52</ele>
        <time>2024-10-02T08:26:13.000Z</time>
      </trkpt>
      <trkpt lat="42.61515" lon="-0.13472">
        <ele>1124.5</ele>
        <time>2024-10-02T08:26:20.000Z</time>
      </trkpt>
      <trkpt lat="42.61517" lon="-0.13485">
        <ele>1125.34</ele>
        <time>2024-10-02T08:26:26.000Z</time>
      </trkpt>
      <trkpt lat="42.61519" lon="-0.13499">
        <ele>1126.32</ele>
        <time>2024-10-02T08:26:33.000Z</time>
      </trkpt>
      <trkpt lat="42.61519" lon="-0.13512">
        <ele>1127.29</ele>
        <time>2024-10-02T08:26:40.000Z</time>
      </trkpt>
      <trkpt lat="42.61522" lon="-0.13525">
        <ele>1128.24</ele>
        <time>2024-10-02T08:26:47.000Z</time>
      </trkpt>
      <trkpt lat="42.61525" lon="-0.13536">
        <ele>1129.03</ele>
        <time>2024-10-02T08:26:53.000Z</time>
      </trkpt>
      <trkpt lat="42.61529" lon="-0.13549">
        <ele>1129.93</ele>
        <time>2024-10-02T08:27:00.000Z</time>
      </trkpt>
      <trkpt lat="42.61531" lon="-0.13562">
        <ele>1130.79</ele>
        <time>2024-10-02T08:27:07.000Z</time>
      </trkpt>
      <trkpt lat="42.61533" lon="-0.13575">
        <ele>1131.64</ele>
        <time>2024-10-02T08:27:14.000Z</time>
      </trkpt>
      <trkpt lat="42.61534" lon="-0.13587">
        <ele>1132.39</ele>
        <time>2024-10-02T08:27:20.000Z</time>
      </trkpt>
      <trkpt lat="42.61536" lon="-0.13599">
        <ele>1133.28</ele>
        <time>2024-10-02T08:27:27.000Z</time>
      </trkpt>
      <trkpt lat="42.61539" lon="-0.13613">
        <ele>1134.14</ele>
        <time>2024-10-02T08:27:34.000Z</time>
      </trkpt>
      <trkpt lat="42.61546" lon="-0.13623">
        <ele>1135.04</ele>
        <time>2024-10-02T08:27:42.000Z</time>
      </trkpt>
      <trkpt lat="42.61552" lon="-0.13631">
        <ele>1135.64</ele>
        <time>2024-10-02T08:27:48.000Z</time>
      </trkpt>
      <trkpt lat="42.6156" lon="-0.13639">
        <ele>1136.27</ele>
        <time>2024-10-02T08:27:55.000Z</time>
      </trkpt>
      <trkpt lat="42.61567" lon="-0.13647">
        <ele>1136.77</ele>
        <time>2024-10-02T08:28:01.000Z</time>
      </trkpt>
      <trkpt lat="42.61573" lon="-0.13658">
        <ele>1137.33</ele>
        <time>2024-10-02T08:28:08.000Z</time>
      </trkpt>
      <trkpt lat="42.61578" lon="-0.13669">
        <ele>1137.75</ele>
        <time>2024-10-02T08:28:13.000Z</time>
      </trkpt>
      <trkpt lat="42.6158" lon="-0.13682">
        <ele>1138.3</ele>
        <time>2024-10-02T08:28:19.000Z</time>
      </trkpt>
      <trkpt lat="42.61582" lon="-0.13694">
        <ele>1141.27</ele>
        <time>2024-10-02T08:29:27.000Z</time>
      </trkpt>
      <trkpt lat="42.61574" lon="-0.13701">
        <ele>1145.18</ele>
        <time>2024-10-02T08:30:21.999Z</time>
      </trkpt>
      <trkpt lat="42.61569" lon="-0.13712">
        <ele>1146.36</ele>
        <time>2024-10-02T08:30:28.999Z</time>
      </trkpt>
      <trkpt lat="42.61559" lon="-0.13721">
        <ele>1147.14</ele>
        <time>2024-10-02T08:30:33.999Z</time>
      </trkpt>
      <trkpt lat="42.61549" lon="-0.13729">
        <ele>1147.93</ele>
        <time>2024-10-02T08:30:38.999Z</time>
      </trkpt>
      <trkpt lat="42.61539" lon="-0.13736">
        <ele>1148.69</ele>
        <time>2024-10-02T08:30:43.999Z</time>
      </trkpt>
      <trkpt lat="42.61526" lon="-0.13746">
        <ele>1149.4</ele>
        <time>2024-10-02T08:30:48.999Z</time>
      </trkpt>
      <trkpt lat="42.61516" lon="-0.13757">
        <ele>1150.04</ele>
        <time>2024-10-02T08:30:53.999Z</time>
      </trkpt>
      <trkpt lat="42.61507" lon="-0.13769">
        <ele>1150.71</ele>
        <time>2024-10-02T08:30:58.999Z</time>
      </trkpt>
      <trkpt lat="42.615" lon="-0.13784">
        <ele>1151.36</ele>
        <time>2024-10-02T08:31:03.999Z</time>
      </trkpt>
      <trkpt lat="42.61495" lon="-0.13801">
        <ele>1151.96</ele>
        <time>2024-10-02T08:31:08.999Z</time>
      </trkpt>
      <trkpt lat="42.61492" lon="-0.13816">
        <ele>1152.5</ele>
        <time>2024-10-02T08:31:13.999Z</time>
      </trkpt>
      <trkpt lat="42.61487" lon="-0.13832">
        <ele>1153</ele>
        <time>2024-10-02T08:31:18.999Z</time>
      </trkpt>
      <trkpt lat="42.61479" lon="-0.13846">
        <ele>1153.52</ele>
        <time>2024-10-02T08:31:23.999Z</time>
      </trkpt>
      <trkpt lat="42.61471" lon="-0.13859">
        <ele>1154.04</ele>
        <time>2024-10-02T08:31:28.999Z</time>
      </trkpt>
      <trkpt lat="42.61463" lon="-0.13874">
        <ele>1154.58</ele>
        <time>2024-10-02T08:31:33.999Z</time>
      </trkpt>
      <trkpt lat="42.61456" lon="-0.1389">
        <ele>1155.1</ele>
        <time>2024-10-02T08:31:38.999Z</time>
      </trkpt>
      <trkpt lat="42.6145" lon="-0.13906">
        <ele>1155.59</ele>
        <time>2024-10-02T08:31:43.999Z</time>
      </trkpt>
      <trkpt lat="42.61445" lon="-0.1392">
        <ele>1156.08</ele>
        <time>2024-10-02T08:31:48.999Z</time>
      </trkpt>
      <trkpt lat="42.61441" lon="-0.13938">
        <ele>1156.57</ele>
        <time>2024-10-02T08:31:53.999Z</time>
      </trkpt>
      <trkpt lat="42.61437" lon="-0.13956">
        <ele>1157.07</ele>
        <time>2024-10-02T08:31:58.999Z</time>
      </trkpt>
      <trkpt lat="42.61432" lon="-0.13972">
        <ele>1157.56</ele>
        <time>2024-10-02T08:32:03.999Z</time>
      </trkpt>
      <trkpt lat="42.61428" lon="-0.13989">
        <ele>1158.04</ele>
        <time>2024-10-02T08:32:08.999Z</time>
      </trkpt>
      <trkpt lat="42.61424" lon="-0.14004">
        <ele>1158.49</ele>
        <time>2024-10-02T08:32:13.999Z</time>
      </trkpt>
      <trkpt lat="42.61425" lon="-0.14021">
        <ele>1158.88</ele>
        <time>2024-10-02T08:32:18.999Z</time>
      </trkpt>
      <trkpt lat="42.61429" lon="-0.14033">
        <ele>1159.21</ele>
        <time>2024-10-02T08:32:23.999Z</time>
      </trkpt>
      <trkpt lat="42.61434" lon="-0.14045">
        <ele>1159.47</ele>
        <time>2024-10-02T08:32:28.999Z</time>
      </trkpt>
      <trkpt lat="42.61441" lon="-0.14056">
        <ele>1159.68</ele>
        <time>2024-10-02T08:32:33.999Z</time>
      </trkpt>
      <trkpt lat="42.61448" lon="-0.14065">
        <ele>1159.85</ele>
        <time>2024-10-02T08:32:38.999Z</time>
      </trkpt>
      <trkpt lat="42.61456" lon="-0.14073">
        <ele>1159.98</ele>
        <time>2024-10-02T08:32:43.999Z</time>
      </trkpt>
      <trkpt lat="42.61463" lon="-0.14083">
        <ele>1160.08</ele>
        <time>2024-10-02T08:32:48.999Z</time>
      </trkpt>
      <trkpt lat="42.61471" lon="-0.14092">
        <ele>1160.18</ele>
        <time>2024-10-02T08:32:54.999Z</time>
      </trkpt>
      <trkpt lat="42.61478" lon="-0.14103">
        <ele>1160.22</ele>
        <time>2024-10-02T08:32:59.999Z</time>
      </trkpt>
      <trkpt lat="42.61483" lon="-0.14114">
        <ele>1160.24</ele>
        <time>2024-10-02T08:33:04.999Z</time>
      </trkpt>
      <trkpt lat="42.61488" lon="-0.14128">
        <ele>1160.24</ele>
        <time>2024-10-02T08:33:09.999Z</time>
      </trkpt>
      <trkpt lat="42.61492" lon="-0.14139">
        <ele>1160.22</ele>
        <time>2024-10-02T08:33:14.999Z</time>
      </trkpt>
      <trkpt lat="42.61498" lon="-0.14153">
        <ele>1160.18</ele>
        <time>2024-10-02T08:33:19.999Z</time>
      </trkpt>
      <trkpt lat="42.615" lon="-0.1417">
        <ele>1160.1</ele>
        <time>2024-10-02T08:33:24.999Z</time>
      </trkpt>
      <trkpt lat="42.615" lon="-0.14188">
        <ele>1159.93</ele>
        <time>2024-10-02T08:33:29.999Z</time>
      </trkpt>
      <trkpt lat="42.61495" lon="-0.1421">
        <ele>1159.78</ele>
        <time>2024-10-02T08:33:34.999Z</time>
      </trkpt>
      <trkpt lat="42.61486" lon="-0.14227">
        <ele>1160.04</ele>
        <time>2024-10-02T08:33:39.999Z</time>
      </trkpt>
      <trkpt lat="42.61476" lon="-0.14231">
        <ele>1160.98</ele>
        <time>2024-10-02T08:33:44.999Z</time>
      </trkpt>
      <trkpt lat="42.61464" lon="-0.14231">
        <ele>1162.39</ele>
        <time>2024-10-02T08:33:49.999Z</time>
      </trkpt>
      <trkpt lat="42.61453" lon="-0.14228">
        <ele>1164.05</ele>
        <time>2024-10-02T08:33:54.999Z</time>
      </trkpt>
      <trkpt lat="42.61442" lon="-0.14228">
        <ele>1165.83</ele>
        <time>2024-10-02T08:33:59.999Z</time>
      </trkpt>
      <trkpt lat="42.61431" lon="-0.14228">
        <ele>1167.66</ele>
        <time>2024-10-02T08:34:04.999Z</time>
      </trkpt>
      <trkpt lat="42.61421" lon="-0.14232">
        <ele>1169.49</ele>
        <time>2024-10-02T08:34:09.999Z</time>
      </trkpt>
      <trkpt lat="42.61411" lon="-0.14242">
        <ele>1171.25</ele>
        <time>2024-10-02T08:34:14.999Z</time>
      </trkpt>
      <trkpt lat="42.61406" lon="-0.14254">
        <ele>1172.87</ele>
        <time>2024-10-02T08:34:19.999Z</time>
      </trkpt>
      <trkpt lat="42.61402" lon="-0.14267">
        <ele>1174.32</ele>
        <time>2024-10-02T08:34:24.999Z</time>
      </trkpt>
      <trkpt lat="42.61398" lon="-0.14281">
        <ele>1175.6</ele>
        <time>2024-10-02T08:34:29.999Z</time>
      </trkpt>
      <trkpt lat="42.61395" lon="-0.14297">
        <ele>1176.75</ele>
        <time>2024-10-02T08:34:34.999Z</time>
      </trkpt>
      <trkpt lat="42.61393" lon="-0.14313">
        <ele>1177.79</ele>
        <time>2024-10-02T08:34:39.999Z</time>
      </trkpt>
      <trkpt lat="42.61391" lon="-0.14328">
        <ele>1178.74</ele>
        <time>2024-10-02T08:34:44.999Z</time>
      </trkpt>
      <trkpt lat="42.61389" lon="-0.14341">
        <ele>1179.61</ele>
        <time>2024-10-02T08:34:49.999Z</time>
      </trkpt>
      <trkpt lat="42.61387" lon="-0.14355">
        <ele>1180.4</ele>
        <time>2024-10-02T08:34:54.999Z</time>
      </trkpt>
      <trkpt lat="42.61384" lon="-0.14367">
        <ele>1181.11</ele>
        <time>2024-10-02T08:34:59.999Z</time>
      </trkpt>
      <trkpt lat="42.61381" lon="-0.14381">
        <ele>1181.76</ele>
        <time>2024-10-02T08:35:04.999Z</time>
      </trkpt>
      <trkpt lat="42.6138" lon="-0.14395">
        <ele>1182.36</ele>
        <time>2024-10-02T08:35:09.999Z</time>
      </trkpt>
      <trkpt lat="42.61378" lon="-0.14408">
        <ele>1182.9</ele>
        <time>2024-10-02T08:35:14.999Z</time>
      </trkpt>
      <trkpt lat="42.61376" lon="-0.14421">
        <ele>1183.41</ele>
        <time>2024-10-02T08:35:19.999Z</time>
      </trkpt>
      <trkpt lat="42.61374" lon="-0.14434">
        <ele>1183.87</ele>
        <time>2024-10-02T08:35:24.999Z</time>
      </trkpt>
      <trkpt lat="42.61372" lon="-0.14448">
        <ele>1184.29</ele>
        <time>2024-10-02T08:35:29.999Z</time>
      </trkpt>
      <trkpt lat="42.61371" lon="-0.14462">
        <ele>1184.69</ele>
        <time>2024-10-02T08:35:34.999Z</time>
      </trkpt>
      <trkpt lat="42.61369" lon="-0.14475">
        <ele>1185.07</ele>
        <time>2024-10-02T08:35:39.999Z</time>
      </trkpt>
      <trkpt lat="42.61367" lon="-0.14488">
        <ele>1185.44</ele>
        <time>2024-10-02T08:35:44.999Z</time>
      </trkpt>
      <trkpt lat="42.61365" lon="-0.145">
        <ele>1185.79</ele>
        <time>2024-10-02T08:35:49.999Z</time>
      </trkpt>
      <trkpt lat="42.61362" lon="-0.14513">
        <ele>1186.11</ele>
        <time>2024-10-02T08:35:54.999Z</time>
      </trkpt>
      <trkpt lat="42.61361" lon="-0.14526">
        <ele>1186.41</ele>
        <time>2024-10-02T08:35:59.999Z</time>
      </trkpt>
      <trkpt lat="42.61359" lon="-0.1454">
        <ele>1186.69</ele>
        <time>2024-10-02T08:36:04.999Z</time>
      </trkpt>
      <trkpt lat="42.61357" lon="-0.14553">
        <ele>1186.96</ele>
        <time>2024-10-02T08:36:09.999Z</time>
      </trkpt>
      <trkpt lat="42.61353" lon="-0.14565">
        <ele>1187.22</ele>
        <time>2024-10-02T08:36:14.999Z</time>
      </trkpt>
      <trkpt lat="42.61351" lon="-0.14578">
        <ele>1187.48</ele>
        <time>2024-10-02T08:36:19.999Z</time>
      </trkpt>
      <trkpt lat="42.61349" lon="-0.14591">
        <ele>1187.77</ele>
        <time>2024-10-02T08:36:24.999Z</time>
      </trkpt>
      <trkpt lat="42.61345" lon="-0.14605">
        <ele>1188.09</ele>
        <time>2024-10-02T08:36:29.999Z</time>
      </trkpt>
      <trkpt lat="42.61341" lon="-0.14617">
        <ele>1188.44</ele>
        <time>2024-10-02T08:36:34.999Z</time>
      </trkpt>
      <trkpt lat="42.61337" lon="-0.14629">
        <ele>1188.81</ele>
        <time>2024-10-02T08:36:39.999Z</time>
      </trkpt>
      <trkpt lat="42.61333" lon="-0.14641">
        <ele>1189.18</ele>
        <time>2024-10-02T08:36:44.999Z</time>
      </trkpt>
      <trkpt lat="42.61328" lon="-0.14653">
        <ele>1189.54</ele>
        <time>2024-10-02T08:36:49.999Z</time>
      </trkpt>
      <trkpt lat="42.61324" lon="-0.14665">
        <ele>1189.89</ele>
        <time>2024-10-02T08:36:54.999Z</time>
      </trkpt>
      <trkpt lat="42.61318" lon="-0.14675">
        <ele>1190.23</ele>
        <time>2024-10-02T08:36:59.999Z</time>
      </trkpt>
      <trkpt lat="42.61312" lon="-0.14685">
        <ele>1190.55</ele>
        <time>2024-10-02T08:37:04.999Z</time>
      </trkpt>
      <trkpt lat="42.61305" lon="-0.14695">
        <ele>1190.84</ele>
        <time>2024-10-02T08:37:09.999Z</time>
      </trkpt>
      <trkpt lat="42.61299" lon="-0.14705">
        <ele>1191.1</ele>
        <time>2024-10-02T08:37:14.999Z</time>
      </trkpt>
      <trkpt lat="42.61294" lon="-0.14716">
        <ele>1191.33</ele>
        <time>2024-10-02T08:37:19.999Z</time>
      </trkpt>
      <trkpt lat="42.61289" lon="-0.14727">
        <ele>1191.53</ele>
        <time>2024-10-02T08:37:24.999Z</time>
      </trkpt>
      <trkpt lat="42.61284" lon="-0.1474">
        <ele>1191.72</ele>
        <time>2024-10-02T08:37:29.999Z</time>
      </trkpt>
      <trkpt lat="42.61281" lon="-0.14754">
        <ele>1191.9</ele>
        <time>2024-10-02T08:37:34.999Z</time>
      </trkpt>
      <trkpt lat="42.61278" lon="-0.14769">
        <ele>1192.09</ele>
        <time>2024-10-02T08:37:39.999Z</time>
      </trkpt>
      <trkpt lat="42.61275" lon="-0.1478">
        <ele>1192.3</ele>
        <time>2024-10-02T08:37:44.999Z</time>
      </trkpt>
      <trkpt lat="42.61271" lon="-0.14793">
        <ele>1192.55</ele>
        <time>2024-10-02T08:37:50.999Z</time>
      </trkpt>
      <trkpt lat="42.61267" lon="-0.14806">
        <ele>1192.74</ele>
        <time>2024-10-02T08:37:55.999Z</time>
      </trkpt>
      <trkpt lat="42.61263" lon="-0.14818">
        <ele>1192.92</ele>
        <time>2024-10-02T08:38:00.999Z</time>
      </trkpt>
      <trkpt lat="42.6126" lon="-0.14831">
        <ele>1193.07</ele>
        <time>2024-10-02T08:38:05.999Z</time>
      </trkpt>
      <trkpt lat="42.61257" lon="-0.14845">
        <ele>1193.22</ele>
        <time>2024-10-02T08:38:10.999Z</time>
      </trkpt>
      <trkpt lat="42.61254" lon="-0.14859">
        <ele>1193.37</ele>
        <time>2024-10-02T08:38:15.999Z</time>
      </trkpt>
      <trkpt lat="42.61251" lon="-0.14874">
        <ele>1193.54</ele>
        <time>2024-10-02T08:38:20.999Z</time>
      </trkpt>
      <trkpt lat="42.61248" lon="-0.14887">
        <ele>1193.75</ele>
        <time>2024-10-02T08:38:25.999Z</time>
      </trkpt>
      <trkpt lat="42.61246" lon="-0.14902">
        <ele>1194.07</ele>
        <time>2024-10-02T08:38:31.999Z</time>
      </trkpt>
      <trkpt lat="42.61243" lon="-0.14914">
        <ele>1194.38</ele>
        <time>2024-10-02T08:38:36.999Z</time>
      </trkpt>
      <trkpt lat="42.61241" lon="-0.14926">
        <ele>1195.03</ele>
        <time>2024-10-02T08:38:43.999Z</time>
      </trkpt>
      <trkpt lat="42.61237" lon="-0.14937">
        <ele>1195.7</ele>
        <time>2024-10-02T08:38:49.999Z</time>
      </trkpt>
      <trkpt lat="42.61232" lon="-0.14947">
        <ele>1196.32</ele>
        <time>2024-10-02T08:38:54.999Z</time>
      </trkpt>
      <trkpt lat="42.61224" lon="-0.14957">
        <ele>1197.02</ele>
        <time>2024-10-02T08:38:59.999Z</time>
      </trkpt>
      <trkpt lat="42.61219" lon="-0.14967">
        <ele>1197.83</ele>
        <time>2024-10-02T08:39:04.999Z</time>
      </trkpt>
      <trkpt lat="42.61211" lon="-0.14977">
        <ele>1198.84</ele>
        <time>2024-10-02T08:39:10.999Z</time>
      </trkpt>
      <trkpt lat="42.61203" lon="-0.14987">
        <ele>1199.67</ele>
        <time>2024-10-02T08:39:15.999Z</time>
      </trkpt>
      <trkpt lat="42.61196" lon="-0.14996">
        <ele>1200.48</ele>
        <time>2024-10-02T08:39:20.999Z</time>
      </trkpt>
      <trkpt lat="42.61187" lon="-0.15006">
        <ele>1201.25</ele>
        <time>2024-10-02T08:39:25.999Z</time>
      </trkpt>
      <trkpt lat="42.61179" lon="-0.15013">
        <ele>1202</ele>
        <time>2024-10-02T08:39:30.999Z</time>
      </trkpt>
      <trkpt lat="42.61172" lon="-0.15023">
        <ele>1202.75</ele>
        <time>2024-10-02T08:39:35.999Z</time>
      </trkpt>
      <trkpt lat="42.61166" lon="-0.15033">
        <ele>1203.48</ele>
        <time>2024-10-02T08:39:40.999Z</time>
      </trkpt>
      <trkpt lat="42.61158" lon="-0.15043">
        <ele>1204.16</ele>
        <time>2024-10-02T08:39:45.999Z</time>
      </trkpt>
      <trkpt lat="42.61151" lon="-0.15053">
        <ele>1204.85</ele>
        <time>2024-10-02T08:39:50.999Z</time>
      </trkpt>
      <trkpt lat="42.61145" lon="-0.15063">
        <ele>1205.58</ele>
        <time>2024-10-02T08:39:55.999Z</time>
      </trkpt>
      <trkpt lat="42.61138" lon="-0.15073">
        <ele>1206.33</ele>
        <time>2024-10-02T08:40:00.999Z</time>
      </trkpt>
      <trkpt lat="42.61132" lon="-0.15083">
        <ele>1207.05</ele>
        <time>2024-10-02T08:40:05.999Z</time>
      </trkpt>
      <trkpt lat="42.61129" lon="-0.15097">
        <ele>1207.7</ele>
        <time>2024-10-02T08:40:10.999Z</time>
      </trkpt>
      <trkpt lat="42.61128" lon="-0.15112">
        <ele>1208.28</ele>
        <time>2024-10-02T08:40:15.999Z</time>
      </trkpt>
      <trkpt lat="42.61131" lon="-0.15126">
        <ele>1208.8</ele>
        <time>2024-10-02T08:40:20.999Z</time>
      </trkpt>
      <trkpt lat="42.61135" lon="-0.1514">
        <ele>1209.29</ele>
        <time>2024-10-02T08:40:25.999Z</time>
      </trkpt>
      <trkpt lat="42.61137" lon="-0.15153">
        <ele>1209.71</ele>
        <time>2024-10-02T08:40:30.999Z</time>
      </trkpt>
      <trkpt lat="42.61138" lon="-0.15165">
        <ele>1210.09</ele>
        <time>2024-10-02T08:40:35.999Z</time>
      </trkpt>
      <trkpt lat="42.61137" lon="-0.1518">
        <ele>1210.57</ele>
        <time>2024-10-02T08:40:41.999Z</time>
      </trkpt>
      <trkpt lat="42.61134" lon="-0.15193">
        <ele>1211.19</ele>
        <time>2024-10-02T08:40:47.999Z</time>
      </trkpt>
      <trkpt lat="42.61131" lon="-0.15206">
        <ele>1211.79</ele>
        <time>2024-10-02T08:40:52.999Z</time>
      </trkpt>
      <trkpt lat="42.61127" lon="-0.15217">
        <ele>1212.52</ele>
        <time>2024-10-02T08:40:58.999Z</time>
      </trkpt>
      <trkpt lat="42.6112" lon="-0.15228">
        <ele>1213.57</ele>
        <time>2024-10-02T08:41:05.999Z</time>
      </trkpt>
      <trkpt lat="42.61113" lon="-0.15238">
        <ele>1214.52</ele>
        <time>2024-10-02T08:41:11.999Z</time>
      </trkpt>
      <trkpt lat="42.61104" lon="-0.15246">
        <ele>1215.24</ele>
        <time>2024-10-02T08:41:16.999Z</time>
      </trkpt>
      <trkpt lat="42.61096" lon="-0.15255">
        <ele>1216.24</ele>
        <time>2024-10-02T08:41:23.999Z</time>
      </trkpt>
      <trkpt lat="42.6109" lon="-0.15264">
        <ele>1216.98</ele>
        <time>2024-10-02T08:41:28.999Z</time>
      </trkpt>
      <trkpt lat="42.61083" lon="-0.15275">
        <ele>1217.89</ele>
        <time>2024-10-02T08:41:34.999Z</time>
      </trkpt>
      <trkpt lat="42.61077" lon="-0.15288">
        <ele>1218.68</ele>
        <time>2024-10-02T08:41:39.999Z</time>
      </trkpt>
      <trkpt lat="42.61074" lon="-0.15304">
        <ele>1219.44</ele>
        <time>2024-10-02T08:41:44.999Z</time>
      </trkpt>
      <trkpt lat="42.61075" lon="-0.15325">
        <ele>1220.1</ele>
        <time>2024-10-02T08:41:49.999Z</time>
      </trkpt>
      <trkpt lat="42.61084" lon="-0.15344">
        <ele>1220.68</ele>
        <time>2024-10-02T08:41:54.999Z</time>
      </trkpt>
      <trkpt lat="42.61101" lon="-0.15357">
        <ele>1223.17</ele>
        <time>2024-10-02T08:42:00.000Z</time>
      </trkpt>
      <trkpt lat="42.61121" lon="-0.15364">
        <ele>1224.69</ele>
        <time>2024-10-02T08:42:05.000Z</time>
      </trkpt>
      <trkpt lat="42.61135" lon="-0.1537">
        <ele>1224.85</ele>
        <time>2024-10-02T08:42:10.000Z</time>
      </trkpt>
      <trkpt lat="42.61147" lon="-0.15374">
        <ele>1225.01</ele>
        <time>2024-10-02T08:42:15.000Z</time>
      </trkpt>
      <trkpt lat="42.6116" lon="-0.15378">
        <ele>1225.17</ele>
        <time>2024-10-02T08:42:20.000Z</time>
      </trkpt>
      <trkpt lat="42.61174" lon="-0.15382">
        <ele>1225.3</ele>
        <time>2024-10-02T08:42:25.000Z</time>
      </trkpt>
      <trkpt lat="42.61185" lon="-0.15385">
        <ele>1225.37</ele>
        <time>2024-10-02T08:42:30.000Z</time>
      </trkpt>
      <trkpt lat="42.61196" lon="-0.15388">
        <ele>1225.42</ele>
        <time>2024-10-02T08:42:35.000Z</time>
      </trkpt>
      <trkpt lat="42.61205" lon="-0.15391">
        <ele>1225.48</ele>
        <time>2024-10-02T08:42:41.000Z</time>
      </trkpt>
      <trkpt lat="42.61215" lon="-0.15393">
        <ele>1225.52</ele>
        <time>2024-10-02T08:42:46.000Z</time>
      </trkpt>
      <trkpt lat="42.61226" lon="-0.15396">
        <ele>1225.53</ele>
        <time>2024-10-02T08:42:51.000Z</time>
      </trkpt>
      <trkpt lat="42.61238" lon="-0.15396">
        <ele>1225.54</ele>
        <time>2024-10-02T08:42:56.000Z</time>
      </trkpt>
      <trkpt lat="42.61252" lon="-0.15396">
        <ele>1225.57</ele>
        <time>2024-10-02T08:43:01.000Z</time>
      </trkpt>
      <trkpt lat="42.61271" lon="-0.15397">
        <ele>1225.61</ele>
        <time>2024-10-02T08:43:06.000Z</time>
      </trkpt>
      <trkpt lat="42.61294" lon="-0.154">
        <ele>1225.96</ele>
        <time>2024-10-02T08:43:11.000Z</time>
      </trkpt>
      <trkpt lat="42.61318" lon="-0.15401">
        <ele>1227.38</ele>
        <time>2024-10-02T08:43:16.000Z</time>
      </trkpt>
      <trkpt lat="42.61341" lon="-0.15402">
        <ele>1228.39</ele>
        <time>2024-10-02T08:43:21.000Z</time>
      </trkpt>
      <trkpt lat="42.61365" lon="-0.15402">
        <ele>1228.88</ele>
        <time>2024-10-02T08:43:26.000Z</time>
      </trkpt>
      <trkpt lat="42.61391" lon="-0.15402">
        <ele>1228.92</ele>
        <time>2024-10-02T08:43:31.000Z</time>
      </trkpt>
      <trkpt lat="42.61419" lon="-0.15401">
        <ele>1228.96</ele>
        <time>2024-10-02T08:43:36.000Z</time>
      </trkpt>
      <trkpt lat="42.61448" lon="-0.15402">
        <ele>1228.98</ele>
        <time>2024-10-02T08:43:41.000Z</time>
      </trkpt>
      <trkpt lat="42.61479" lon="-0.15407">
        <ele>1228.87</ele>
        <time>2024-10-02T08:43:46.000Z</time>
      </trkpt>
      <trkpt lat="42.61509" lon="-0.15413">
        <ele>1228.91</ele>
        <time>2024-10-02T08:43:51.000Z</time>
      </trkpt>
      <trkpt lat="42.61536" lon="-0.15421">
        <ele>1229.82</ele>
        <time>2024-10-02T08:43:56.000Z</time>
      </trkpt>
      <trkpt lat="42.61556" lon="-0.15431">
        <ele>1230.92</ele>
        <time>2024-10-02T08:44:01.000Z</time>
      </trkpt>
      <trkpt lat="42.61571" lon="-0.15442">
        <ele>1231.36</ele>
        <time>2024-10-02T08:44:06.000Z</time>
      </trkpt>
      <trkpt lat="42.61585" lon="-0.15455">
        <ele>1231.96</ele>
        <time>2024-10-02T08:44:11.000Z</time>
      </trkpt>
      <trkpt lat="42.61597" lon="-0.15465">
        <ele>1232.6</ele>
        <time>2024-10-02T08:44:16.000Z</time>
      </trkpt>
      <trkpt lat="42.6161" lon="-0.15475">
        <ele>1233.19</ele>
        <time>2024-10-02T08:44:21.000Z</time>
      </trkpt>
      <trkpt lat="42.61626" lon="-0.15487">
        <ele>1233.78</ele>
        <time>2024-10-02T08:44:26.000Z</time>
      </trkpt>
      <trkpt lat="42.61643" lon="-0.15495">
        <ele>1236.23</ele>
        <time>2024-10-02T08:44:31.000Z</time>
      </trkpt>
      <trkpt lat="42.61662" lon="-0.15498">
        <ele>1238.05</ele>
        <time>2024-10-02T08:44:36.000Z</time>
      </trkpt>
      <trkpt lat="42.61683" lon="-0.15501">
        <ele>1239.41</ele>
        <time>2024-10-02T08:44:41.000Z</time>
      </trkpt>
      <trkpt lat="42.61705" lon="-0.15509">
        <ele>1239.85</ele>
        <time>2024-10-02T08:44:46.000Z</time>
      </trkpt>
      <trkpt lat="42.61729" lon="-0.15522">
        <ele>1239.96</ele>
        <time>2024-10-02T08:44:51.000Z</time>
      </trkpt>
      <trkpt lat="42.61748" lon="-0.15546">
        <ele>1239.99</ele>
        <time>2024-10-02T08:44:56.000Z</time>
      </trkpt>
      <trkpt lat="42.6175" lon="-0.1557">
        <ele>1239.99</ele>
        <time>2024-10-02T08:45:01.000Z</time>
      </trkpt>
      <trkpt lat="42.61745" lon="-0.15583">
        <ele>1239.99</ele>
        <time>2024-10-02T08:45:06.000Z</time>
      </trkpt>
      <trkpt lat="42.61739" lon="-0.15594">
        <ele>1239.99</ele>
        <time>2024-10-02T08:45:11.000Z</time>
      </trkpt>
      <trkpt lat="42.6173" lon="-0.15605">
        <ele>1239.99</ele>
        <time>2024-10-02T08:45:16.000Z</time>
      </trkpt>
      <trkpt lat="42.61722" lon="-0.15615">
        <ele>1240</ele>
        <time>2024-10-02T08:45:21.000Z</time>
      </trkpt>
      <trkpt lat="42.61716" lon="-0.15628">
        <ele>1240</ele>
        <time>2024-10-02T08:45:26.000Z</time>
      </trkpt>
      <trkpt lat="42.61716" lon="-0.15642">
        <ele>1240</ele>
        <time>2024-10-02T08:45:31.000Z</time>
      </trkpt>
      <trkpt lat="42.61715" lon="-0.15657">
        <ele>1239.99</ele>
        <time>2024-10-02T08:45:36.000Z</time>
      </trkpt>
      <trkpt lat="42.61715" lon="-0.1567">
        <ele>1239.98</ele>
        <time>2024-10-02T08:45:41.000Z</time>
      </trkpt>
      <trkpt lat="42.61713" lon="-0.15684">
        <ele>1239.98</ele>
        <time>2024-10-02T08:45:46.000Z</time>
      </trkpt>
      <trkpt lat="42.61708" lon="-0.15697">
        <ele>1239.97</ele>
        <time>2024-10-02T08:45:52.000Z</time>
      </trkpt>
      <trkpt lat="42.61704" lon="-0.1571">
        <ele>1239.96</ele>
        <time>2024-10-02T08:45:57.000Z</time>
      </trkpt>
      <trkpt lat="42.61699" lon="-0.15726">
        <ele>1239.95</ele>
        <time>2024-10-02T08:46:02.000Z</time>
      </trkpt>
      <trkpt lat="42.61702" lon="-0.15745">
        <ele>1239.94</ele>
        <time>2024-10-02T08:46:07.000Z</time>
      </trkpt>
      <trkpt lat="42.61709" lon="-0.15766">
        <ele>1239.93</ele>
        <time>2024-10-02T08:46:12.000Z</time>
      </trkpt>
      <trkpt lat="42.61721" lon="-0.15782">
        <ele>1239.9</ele>
        <time>2024-10-02T08:46:17.000Z</time>
      </trkpt>
      <trkpt lat="42.61738" lon="-0.15801">
        <ele>1239.92</ele>
        <time>2024-10-02T08:46:22.000Z</time>
      </trkpt>
      <trkpt lat="42.61759" lon="-0.1582">
        <ele>1239.78</ele>
        <time>2024-10-02T08:46:27.000Z</time>
      </trkpt>
      <trkpt lat="42.6178" lon="-0.15843">
        <ele>1239.61</ele>
        <time>2024-10-02T08:46:32.000Z</time>
      </trkpt>
      <trkpt lat="42.61797" lon="-0.15871">
        <ele>1239.45</ele>
        <time>2024-10-02T08:46:37.000Z</time>
      </trkpt>
      <trkpt lat="42.61812" lon="-0.159">
        <ele>1239.41</ele>
        <time>2024-10-02T08:46:42.000Z</time>
      </trkpt>
      <trkpt lat="42.61826" lon="-0.15927">
        <ele>1239.38</ele>
        <time>2024-10-02T08:46:47.000Z</time>
      </trkpt>
      <trkpt lat="42.61835" lon="-0.1595">
        <ele>1239.36</ele>
        <time>2024-10-02T08:46:52.000Z</time>
      </trkpt>
      <trkpt lat="42.61844" lon="-0.1597">
        <ele>1239.33</ele>
        <time>2024-10-02T08:46:57.000Z</time>
      </trkpt>
      <trkpt lat="42.61847" lon="-0.15986">
        <ele>1239.31</ele>
        <time>2024-10-02T08:47:02.000Z</time>
      </trkpt>
      <trkpt lat="42.61853" lon="-0.16002">
        <ele>1239.31</ele>
        <time>2024-10-02T08:47:07.000Z</time>
      </trkpt>
      <trkpt lat="42.61858" lon="-0.16015">
        <ele>1239.33</ele>
        <time>2024-10-02T08:47:12.000Z</time>
      </trkpt>
      <trkpt lat="42.61863" lon="-0.16031">
        <ele>1239.36</ele>
        <time>2024-10-02T08:47:17.000Z</time>
      </trkpt>
      <trkpt lat="42.61867" lon="-0.16045">
        <ele>1239.39</ele>
        <time>2024-10-02T08:47:22.000Z</time>
      </trkpt>
      <trkpt lat="42.61874" lon="-0.1606">
        <ele>1239.4</ele>
        <time>2024-10-02T08:47:27.000Z</time>
      </trkpt>
      <trkpt lat="42.6188" lon="-0.16076">
        <ele>1239.38</ele>
        <time>2024-10-02T08:47:32.000Z</time>
      </trkpt>
      <trkpt lat="42.61884" lon="-0.16088">
        <ele>1239.36</ele>
        <time>2024-10-02T08:47:37.000Z</time>
      </trkpt>
      <trkpt lat="42.61889" lon="-0.16103">
        <ele>1239.34</ele>
        <time>2024-10-02T08:47:42.000Z</time>
      </trkpt>
      <trkpt lat="42.61893" lon="-0.16119">
        <ele>1239.34</ele>
        <time>2024-10-02T08:47:47.000Z</time>
      </trkpt>
      <trkpt lat="42.61895" lon="-0.16138">
        <ele>1239.37</ele>
        <time>2024-10-02T08:47:52.000Z</time>
      </trkpt>
      <trkpt lat="42.61897" lon="-0.16162">
        <ele>1239.41</ele>
        <time>2024-10-02T08:47:57.000Z</time>
      </trkpt>
      <trkpt lat="42.61898" lon="-0.16186">
        <ele>1239.4</ele>
        <time>2024-10-02T08:48:02.000Z</time>
      </trkpt>
      <trkpt lat="42.61897" lon="-0.16212">
        <ele>1239.3</ele>
        <time>2024-10-02T08:48:07.000Z</time>
      </trkpt>
      <trkpt lat="42.61897" lon="-0.16235">
        <ele>1239.23</ele>
        <time>2024-10-02T08:48:12.000Z</time>
      </trkpt>
      <trkpt lat="42.61897" lon="-0.16263">
        <ele>1239.09</ele>
        <time>2024-10-02T08:48:17.000Z</time>
      </trkpt>
      <trkpt lat="42.61893" lon="-0.1629">
        <ele>1238.92</ele>
        <time>2024-10-02T08:48:22.000Z</time>
      </trkpt>
      <trkpt lat="42.61888" lon="-0.16317">
        <ele>1238.76</ele>
        <time>2024-10-02T08:48:27.000Z</time>
      </trkpt>
      <trkpt lat="42.6189" lon="-0.16344">
        <ele>1238.82</ele>
        <time>2024-10-02T08:48:32.000Z</time>
      </trkpt>
      <trkpt lat="42.61898" lon="-0.16367">
        <ele>1238.99</ele>
        <time>2024-10-02T08:48:37.000Z</time>
      </trkpt>
      <trkpt lat="42.61909" lon="-0.16394">
        <ele>1239.55</ele>
        <time>2024-10-02T08:48:42.000Z</time>
      </trkpt>
      <trkpt lat="42.61929" lon="-0.16425">
        <ele>1240.09</ele>
        <time>2024-10-02T08:48:47.000Z</time>
      </trkpt>
      <trkpt lat="42.61958" lon="-0.16448">
        <ele>1240.36</ele>
        <time>2024-10-02T08:48:52.000Z</time>
      </trkpt>
      <trkpt lat="42.61989" lon="-0.16478">
        <ele>1241.55</ele>
        <time>2024-10-02T08:48:57.000Z</time>
      </trkpt>
      <trkpt lat="42.62012" lon="-0.16519">
        <ele>1244.59</ele>
        <time>2024-10-02T08:49:02.000Z</time>
      </trkpt>
      <trkpt lat="42.62046" lon="-0.16549">
        <ele>1247.54</ele>
        <time>2024-10-02T08:49:07.000Z</time>
      </trkpt>
      <trkpt lat="42.62088" lon="-0.16568">
        <ele>1249.15</ele>
        <time>2024-10-02T08:49:12.000Z</time>
      </trkpt>
      <trkpt lat="42.62131" lon="-0.16599">
        <ele>1249.78</ele>
        <time>2024-10-02T08:49:17.000Z</time>
      </trkpt>
      <trkpt lat="42.62172" lon="-0.16628">
        <ele>1250.09</ele>
        <time>2024-10-02T08:49:22.000Z</time>
      </trkpt>
      <trkpt lat="42.62207" lon="-0.16665">
        <ele>1250.37</ele>
        <time>2024-10-02T08:49:27.000Z</time>
      </trkpt>
      <trkpt lat="42.62224" lon="-0.16715">
        <ele>1250.57</ele>
        <time>2024-10-02T08:49:32.000Z</time>
      </trkpt>
      <trkpt lat="42.62254" lon="-0.16742">
        <ele>1249.92</ele>
        <time>2024-10-02T08:49:37.000Z</time>
      </trkpt>
      <trkpt lat="42.62289" lon="-0.1674">
        <ele>1248.95</ele>
        <time>2024-10-02T08:49:42.000Z</time>
      </trkpt>
      <trkpt lat="42.62314" lon="-0.1676">
        <ele>1247.91</ele>
        <time>2024-10-02T08:49:47.000Z</time>
      </trkpt>
      <trkpt lat="42.62324" lon="-0.16799">
        <ele>1247.07</ele>
        <time>2024-10-02T08:49:52.000Z</time>
      </trkpt>
      <trkpt lat="42.62327" lon="-0.16839">
        <ele>1245.82</ele>
        <time>2024-10-02T08:49:57.000Z</time>
      </trkpt>
      <trkpt lat="42.62324" lon="-0.16881">
        <ele>1245.27</ele>
        <time>2024-10-02T08:50:02.000Z</time>
      </trkpt>
      <trkpt lat="42.62309" lon="-0.16919">
        <ele>1244.96</ele>
        <time>2024-10-02T08:50:07.000Z</time>
      </trkpt>
      <trkpt lat="42.62284" lon="-0.16945">
        <ele>1244.55</ele>
        <time>2024-10-02T08:50:12.000Z</time>
      </trkpt>
      <trkpt lat="42.6226" lon="-0.16959">
        <ele>1244.12</ele>
        <time>2024-10-02T08:50:17.000Z</time>
      </trkpt>
      <trkpt lat="42.62243" lon="-0.16968">
        <ele>1243.84</ele>
        <time>2024-10-02T08:50:22.000Z</time>
      </trkpt>
      <trkpt lat="42.62231" lon="-0.16976">
        <ele>1243.8</ele>
        <time>2024-10-02T08:50:27.000Z</time>
      </trkpt>
      <trkpt lat="42.62221" lon="-0.16983">
        <ele>1243.73</ele>
        <time>2024-10-02T08:50:32.000Z</time>
      </trkpt>
      <trkpt lat="42.6221" lon="-0.16987">
        <ele>1243.69</ele>
        <time>2024-10-02T08:50:37.000Z</time>
      </trkpt>
      <trkpt lat="42.62202" lon="-0.16993">
        <ele>1243.67</ele>
        <time>2024-10-02T08:50:42.000Z</time>
      </trkpt>
      <trkpt lat="42.62192" lon="-0.16998">
        <ele>1243.64</ele>
        <time>2024-10-02T08:50:47.000Z</time>
      </trkpt>
      <trkpt lat="42.62182" lon="-0.17">
        <ele>1243.61</ele>
        <time>2024-10-02T08:50:52.000Z</time>
      </trkpt>
      <trkpt lat="42.62172" lon="-0.17001">
        <ele>1243.58</ele>
        <time>2024-10-02T08:50:57.000Z</time>
      </trkpt>
      <trkpt lat="42.62161" lon="-0.16997">
        <ele>1243.56</ele>
        <time>2024-10-02T08:51:02.000Z</time>
      </trkpt>
      <trkpt lat="42.62152" lon="-0.1699">
        <ele>1243.56</ele>
        <time>2024-10-02T08:51:07.000Z</time>
      </trkpt>
      <trkpt lat="42.62143" lon="-0.16983">
        <ele>1243.63</ele>
        <time>2024-10-02T08:51:12.000Z</time>
      </trkpt>
      <trkpt lat="42.62133" lon="-0.16978">
        <ele>1243.77</ele>
        <time>2024-10-02T08:51:17.000Z</time>
      </trkpt>
      <trkpt lat="42.62122" lon="-0.16975">
        <ele>1243.92</ele>
        <time>2024-10-02T08:51:22.000Z</time>
      </trkpt>
      <trkpt lat="42.6211" lon="-0.16977">
        <ele>1244.06</ele>
        <time>2024-10-02T08:51:27.000Z</time>
      </trkpt>
      <trkpt lat="42.62099" lon="-0.16982">
        <ele>1244.24</ele>
        <time>2024-10-02T08:51:32.000Z</time>
      </trkpt>
      <trkpt lat="42.62089" lon="-0.16987">
        <ele>1244.47</ele>
        <time>2024-10-02T08:51:37.000Z</time>
      </trkpt>
      <trkpt lat="42.62079" lon="-0.16992">
        <ele>1244.73</ele>
        <time>2024-10-02T08:51:42.000Z</time>
      </trkpt>
      <trkpt lat="42.62068" lon="-0.16997">
        <ele>1245.03</ele>
        <time>2024-10-02T08:51:47.000Z</time>
      </trkpt>
      <trkpt lat="42.62058" lon="-0.17002">
        <ele>1245.31</ele>
        <time>2024-10-02T08:51:52.000Z</time>
      </trkpt>
      <trkpt lat="42.62048" lon="-0.17007">
        <ele>1245.62</ele>
        <time>2024-10-02T08:51:57.000Z</time>
      </trkpt>
      <trkpt lat="42.62036" lon="-0.1701">
        <ele>1245.97</ele>
        <time>2024-10-02T08:52:02.000Z</time>
      </trkpt>
      <trkpt lat="42.62026" lon="-0.17012">
        <ele>1246.32</ele>
        <time>2024-10-02T08:52:07.000Z</time>
      </trkpt>
      <trkpt lat="42.62016" lon="-0.17012">
        <ele>1246.67</ele>
        <time>2024-10-02T08:52:12.000Z</time>
      </trkpt>
      <trkpt lat="42.62005" lon="-0.17013">
        <ele>1247</ele>
        <time>2024-10-02T08:52:17.000Z</time>
      </trkpt>
      <trkpt lat="42.61993" lon="-0.17012">
        <ele>1247.33</ele>
        <time>2024-10-02T08:52:22.000Z</time>
      </trkpt>
      <trkpt lat="42.6198" lon="-0.17014">
        <ele>1247.65</ele>
        <time>2024-10-02T08:52:27.000Z</time>
      </trkpt>
      <trkpt lat="42.61968" lon="-0.17015">
        <ele>1247.97</ele>
        <time>2024-10-02T08:52:32.000Z</time>
      </trkpt>
      <trkpt lat="42.61955" lon="-0.17014">
        <ele>1248.34</ele>
        <time>2024-10-02T08:52:37.000Z</time>
      </trkpt>
      <trkpt lat="42.61942" lon="-0.17014">
        <ele>1248.74</ele>
        <time>2024-10-02T08:52:42.000Z</time>
      </trkpt>
      <trkpt lat="42.61926" lon="-0.17013">
        <ele>1249.14</ele>
        <time>2024-10-02T08:52:47.000Z</time>
      </trkpt>
      <trkpt lat="42.61913" lon="-0.17013">
        <ele>1249.54</ele>
        <time>2024-10-02T08:52:52.000Z</time>
      </trkpt>
      <trkpt lat="42.619" lon="-0.1702">
        <ele>1249.94</ele>
        <time>2024-10-02T08:52:57.000Z</time>
      </trkpt>
      <trkpt lat="42.61886" lon="-0.17032">
        <ele>1250.37</ele>
        <time>2024-10-02T08:53:02.000Z</time>
      </trkpt>
      <trkpt lat="42.61879" lon="-0.17043">
        <ele>1250.78</ele>
        <time>2024-10-02T08:53:07.000Z</time>
      </trkpt>
      <trkpt lat="42.61879" lon="-0.17059">
        <ele>1251.16</ele>
        <time>2024-10-02T08:53:12.000Z</time>
      </trkpt>
      <trkpt lat="42.61878" lon="-0.17071">
        <ele>1251.29</ele>
        <time>2024-10-02T08:53:33.000Z</time>
      </trkpt>
      <trkpt lat="42.6188" lon="-0.17084">
        <ele>1251.39</ele>
        <time>2024-10-02T08:53:38.000Z</time>
      </trkpt>
      <trkpt lat="42.61881" lon="-0.17097">
        <ele>1251.61</ele>
        <time>2024-10-02T08:53:44.000Z</time>
      </trkpt>
      <trkpt lat="42.61884" lon="-0.17109">
        <ele>1251.86</ele>
        <time>2024-10-02T08:53:49.000Z</time>
      </trkpt>
      <trkpt lat="42.61888" lon="-0.17095">
        <ele>1252.71</ele>
        <time>2024-10-02T08:54:03.000Z</time>
      </trkpt>
      <trkpt lat="42.61881" lon="-0.17104">
        <ele>1254.12</ele>
        <time>2024-10-02T08:56:15.999Z</time>
      </trkpt>
      <trkpt lat="42.61885" lon="-0.17126">
        <ele>1254.27</ele>
        <time>2024-10-02T08:56:20.999Z</time>
      </trkpt>
      <trkpt lat="42.61888" lon="-0.17142">
        <ele>1254.3</ele>
        <time>2024-10-02T08:56:25.999Z</time>
      </trkpt>
      <trkpt lat="42.61894" lon="-0.17165">
        <ele>1254.32</ele>
        <time>2024-10-02T08:56:30.999Z</time>
      </trkpt>
      <trkpt lat="42.619" lon="-0.1719">
        <ele>1254.49</ele>
        <time>2024-10-02T08:56:35.999Z</time>
      </trkpt>
      <trkpt lat="42.61906" lon="-0.17216">
        <ele>1254.8</ele>
        <time>2024-10-02T08:56:40.999Z</time>
      </trkpt>
      <trkpt lat="42.61911" lon="-0.1724">
        <ele>1255.12</ele>
        <time>2024-10-02T08:56:45.999Z</time>
      </trkpt>
      <trkpt lat="42.61915" lon="-0.17264">
        <ele>1255.09</ele>
        <time>2024-10-02T08:56:50.999Z</time>
      </trkpt>
      <trkpt lat="42.6192" lon="-0.17292">
        <ele>1255.12</ele>
        <time>2024-10-02T08:56:55.999Z</time>
      </trkpt>
      <trkpt lat="42.61923" lon="-0.1732">
        <ele>1255.46</ele>
        <time>2024-10-02T08:57:00.999Z</time>
      </trkpt>
      <trkpt lat="42.61925" lon="-0.17348">
        <ele>1255.77</ele>
        <time>2024-10-02T08:57:05.999Z</time>
      </trkpt>
      <trkpt lat="42.61927" lon="-0.17376">
        <ele>1256.12</ele>
        <time>2024-10-02T08:57:10.999Z</time>
      </trkpt>
      <trkpt lat="42.61928" lon="-0.17403">
        <ele>1256.2</ele>
        <time>2024-10-02T08:57:15.999Z</time>
      </trkpt>
      <trkpt lat="42.6193" lon="-0.17433">
        <ele>1256.13</ele>
        <time>2024-10-02T08:57:20.999Z</time>
      </trkpt>
      <trkpt lat="42.61931" lon="-0.17461">
        <ele>1256.09</ele>
        <time>2024-10-02T08:57:25.999Z</time>
      </trkpt>
      <trkpt lat="42.61932" lon="-0.17492">
        <ele>1256.01</ele>
        <time>2024-10-02T08:57:30.999Z</time>
      </trkpt>
      <trkpt lat="42.61932" lon="-0.17521">
        <ele>1256.06</ele>
        <time>2024-10-02T08:57:35.999Z</time>
      </trkpt>
      <trkpt lat="42.61933" lon="-0.17547">
        <ele>1256.12</ele>
        <time>2024-10-02T08:57:40.999Z</time>
      </trkpt>
      <trkpt lat="42.61935" lon="-0.17572">
        <ele>1256.12</ele>
        <time>2024-10-02T08:57:45.999Z</time>
      </trkpt>
      <trkpt lat="42.61939" lon="-0.17597">
        <ele>1256.17</ele>
        <time>2024-10-02T08:57:50.999Z</time>
      </trkpt>
      <trkpt lat="42.61944" lon="-0.17621">
        <ele>1256.3</ele>
        <time>2024-10-02T08:57:55.999Z</time>
      </trkpt>
      <trkpt lat="42.6195" lon="-0.17646">
        <ele>1256.67</ele>
        <time>2024-10-02T08:58:00.999Z</time>
      </trkpt>
      <trkpt lat="42.61954" lon="-0.17669">
        <ele>1256.83</ele>
        <time>2024-10-02T08:58:05.999Z</time>
      </trkpt>
      <trkpt lat="42.6196" lon="-0.1769">
        <ele>1256.88</ele>
        <time>2024-10-02T08:58:10.999Z</time>
      </trkpt>
      <trkpt lat="42.61969" lon="-0.17713">
        <ele>1256.93</ele>
        <time>2024-10-02T08:58:15.999Z</time>
      </trkpt>
      <trkpt lat="42.61979" lon="-0.17736">
        <ele>1257.07</ele>
        <time>2024-10-02T08:58:20.999Z</time>
      </trkpt>
      <trkpt lat="42.61989" lon="-0.17756">
        <ele>1257.14</ele>
        <time>2024-10-02T08:58:25.999Z</time>
      </trkpt>
      <trkpt lat="42.61996" lon="-0.17772">
        <ele>1257.19</ele>
        <time>2024-10-02T08:58:30.999Z</time>
      </trkpt>
      <trkpt lat="42.62002" lon="-0.17793">
        <ele>1257.3</ele>
        <time>2024-10-02T08:58:35.999Z</time>
      </trkpt>
      <trkpt lat="42.62006" lon="-0.17813">
        <ele>1257.49</ele>
        <time>2024-10-02T08:58:40.999Z</time>
      </trkpt>
      <trkpt lat="42.62009" lon="-0.17835">
        <ele>1257.68</ele>
        <time>2024-10-02T08:58:45.999Z</time>
      </trkpt>
      <trkpt lat="42.62011" lon="-0.17857">
        <ele>1257.84</ele>
        <time>2024-10-02T08:58:50.999Z</time>
      </trkpt>
      <trkpt lat="42.62013" lon="-0.17879">
        <ele>1257.98</ele>
        <time>2024-10-02T08:58:55.999Z</time>
      </trkpt>
      <trkpt lat="42.62017" lon="-0.17899">
        <ele>1258.1</ele>
        <time>2024-10-02T08:59:00.999Z</time>
      </trkpt>
      <trkpt lat="42.62022" lon="-0.17919">
        <ele>1258.24</ele>
        <time>2024-10-02T08:59:05.999Z</time>
      </trkpt>
      <trkpt lat="42.62026" lon="-0.17941">
        <ele>1258.38</ele>
        <time>2024-10-02T08:59:10.999Z</time>
      </trkpt>
      <trkpt lat="42.62028" lon="-0.17966">
        <ele>1258.58</ele>
        <time>2024-10-02T08:59:15.999Z</time>
      </trkpt>
      <trkpt lat="42.62029" lon="-0.17989">
        <ele>1258.87</ele>
        <time>2024-10-02T08:59:20.999Z</time>
      </trkpt>
      <trkpt lat="42.62029" lon="-0.1801">
        <ele>1259.17</ele>
        <time>2024-10-02T08:59:25.999Z</time>
      </trkpt>
      <trkpt lat="42.62031" lon="-0.18032">
        <ele>1259.47</ele>
        <time>2024-10-02T08:59:30.999Z</time>
      </trkpt>
      <trkpt lat="42.62033" lon="-0.18051">
        <ele>1259.79</ele>
        <time>2024-10-02T08:59:35.999Z</time>
      </trkpt>
      <trkpt lat="42.62036" lon="-0.18069">
        <ele>1260.13</ele>
        <time>2024-10-02T08:59:40.999Z</time>
      </trkpt>
      <trkpt lat="42.62039" lon="-0.18086">
        <ele>1260.46</ele>
        <time>2024-10-02T08:59:45.999Z</time>
      </trkpt>
      <trkpt lat="42.62043" lon="-0.18106">
        <ele>1260.75</ele>
        <time>2024-10-02T08:59:50.999Z</time>
      </trkpt>
      <trkpt lat="42.62045" lon="-0.18126">
        <ele>1261.03</ele>
        <time>2024-10-02T08:59:55.999Z</time>
      </trkpt>
      <trkpt lat="42.62046" lon="-0.18144">
        <ele>1261.32</ele>
        <time>2024-10-02T09:00:00.999Z</time>
      </trkpt>
      <trkpt lat="42.62046" lon="-0.18165">
        <ele>1261.61</ele>
        <time>2024-10-02T09:00:05.999Z</time>
      </trkpt>
      <trkpt lat="42.62046" lon="-0.18187">
        <ele>1261.88</ele>
        <time>2024-10-02T09:00:10.999Z</time>
      </trkpt>
      <trkpt lat="42.62046" lon="-0.18209">
        <ele>1262.15</ele>
        <time>2024-10-02T09:00:15.999Z</time>
      </trkpt>
      <trkpt lat="42.62045" lon="-0.18231">
        <ele>1262.43</ele>
        <time>2024-10-02T09:00:20.999Z</time>
      </trkpt>
      <trkpt lat="42.62044" lon="-0.18249">
        <ele>1262.7</ele>
        <time>2024-10-02T09:00:25.999Z</time>
      </trkpt>
      <trkpt lat="42.62043" lon="-0.18269">
        <ele>1262.97</ele>
        <time>2024-10-02T09:00:30.999Z</time>
      </trkpt>
      <trkpt lat="42.62042" lon="-0.18288">
        <ele>1263.3</ele>
        <time>2024-10-02T09:00:35.999Z</time>
      </trkpt>
      <trkpt lat="42.62044" lon="-0.18307">
        <ele>1263.66</ele>
        <time>2024-10-02T09:00:40.999Z</time>
      </trkpt>
      <trkpt lat="42.62048" lon="-0.18326">
        <ele>1264.1</ele>
        <time>2024-10-02T09:00:45.999Z</time>
      </trkpt>
      <trkpt lat="42.62053" lon="-0.18339">
        <ele>1264.71</ele>
        <time>2024-10-02T09:00:51.999Z</time>
      </trkpt>
      <trkpt lat="42.62058" lon="-0.18353">
        <ele>1265.25</ele>
        <time>2024-10-02T09:00:56.999Z</time>
      </trkpt>
      <trkpt lat="42.62063" lon="-0.18367">
        <ele>1265.82</ele>
        <time>2024-10-02T09:01:01.999Z</time>
      </trkpt>
      <trkpt lat="42.62069" lon="-0.18384">
        <ele>1266.42</ele>
        <time>2024-10-02T09:01:06.999Z</time>
      </trkpt>
      <trkpt lat="42.62073" lon="-0.18402">
        <ele>1267.07</ele>
        <time>2024-10-02T09:01:11.999Z</time>
      </trkpt>
      <trkpt lat="42.62075" lon="-0.18421">
        <ele>1267.76</ele>
        <time>2024-10-02T09:01:16.999Z</time>
      </trkpt>
      <trkpt lat="42.62076" lon="-0.1844">
        <ele>1268.46</ele>
        <time>2024-10-02T09:01:21.999Z</time>
      </trkpt>
      <trkpt lat="42.62076" lon="-0.18458">
        <ele>1269.18</ele>
        <time>2024-10-02T09:01:26.999Z</time>
      </trkpt>
      <trkpt lat="42.62075" lon="-0.18474">
        <ele>1269.93</ele>
        <time>2024-10-02T09:01:31.999Z</time>
      </trkpt>
      <trkpt lat="42.62073" lon="-0.18486">
        <ele>1270.69</ele>
        <time>2024-10-02T09:01:36.999Z</time>
      </trkpt>
      <trkpt lat="42.6207" lon="-0.18498">
        <ele>1271.42</ele>
        <time>2024-10-02T09:01:41.999Z</time>
      </trkpt>
      <trkpt lat="42.62067" lon="-0.18511">
        <ele>1272.1</ele>
        <time>2024-10-02T09:01:46.999Z</time>
      </trkpt>
      <trkpt lat="42.62062" lon="-0.18523">
        <ele>1272.72</ele>
        <time>2024-10-02T09:01:51.999Z</time>
      </trkpt>
      <trkpt lat="42.62057" lon="-0.18536">
        <ele>1273.23</ele>
        <time>2024-10-02T09:01:56.999Z</time>
      </trkpt>
      <trkpt lat="42.62053" lon="-0.1855">
        <ele>1273.74</ele>
        <time>2024-10-02T09:02:01.999Z</time>
      </trkpt>
      <trkpt lat="42.62048" lon="-0.18563">
        <ele>1274.24</ele>
        <time>2024-10-02T09:02:06.999Z</time>
      </trkpt>
      <trkpt lat="42.62043" lon="-0.18575">
        <ele>1274.86</ele>
        <time>2024-10-02T09:02:12.999Z</time>
      </trkpt>
      <trkpt lat="42.62038" lon="-0.18587">
        <ele>1275.58</ele>
        <time>2024-10-02T09:02:19.999Z</time>
      </trkpt>
      <trkpt lat="42.62035" lon="-0.18601">
        <ele>1276.15</ele>
        <time>2024-10-02T09:02:25.999Z</time>
      </trkpt>
      <trkpt lat="42.6203" lon="-0.18613">
        <ele>1276.72</ele>
        <time>2024-10-02T09:02:31.999Z</time>
      </trkpt>
      <trkpt lat="42.62026" lon="-0.18624">
        <ele>1277.17</ele>
        <time>2024-10-02T09:02:36.999Z</time>
      </trkpt>
      <trkpt lat="42.62019" lon="-0.18638">
        <ele>1277.55</ele>
        <time>2024-10-02T09:02:41.999Z</time>
      </trkpt>
      <trkpt lat="42.62015" lon="-0.18649">
        <ele>1277.93</ele>
        <time>2024-10-02T09:02:47.999Z</time>
      </trkpt>
      <trkpt lat="42.62012" lon="-0.18666">
        <ele>1278.23</ele>
        <time>2024-10-02T09:02:52.999Z</time>
      </trkpt>
      <trkpt lat="42.6201" lon="-0.18678">
        <ele>1278.52</ele>
        <time>2024-10-02T09:02:57.999Z</time>
      </trkpt>
      <trkpt lat="42.62008" lon="-0.18694">
        <ele>1278.81</ele>
        <time>2024-10-02T09:03:02.999Z</time>
      </trkpt>
      <trkpt lat="42.62012" lon="-0.18708">
        <ele>1279.17</ele>
        <time>2024-10-02T09:03:08.999Z</time>
      </trkpt>
      <trkpt lat="42.62016" lon="-0.1872">
        <ele>1279.55</ele>
        <time>2024-10-02T09:03:15.999Z</time>
      </trkpt>
      <trkpt lat="42.62017" lon="-0.18734">
        <ele>1279.88</ele>
        <time>2024-10-02T09:03:22.999Z</time>
      </trkpt>
      <trkpt lat="42.6202" lon="-0.18746">
        <ele>1280.19</ele>
        <time>2024-10-02T09:03:29.999Z</time>
      </trkpt>
      <trkpt lat="42.62022" lon="-0.18758">
        <ele>1280.42</ele>
        <time>2024-10-02T09:03:35.999Z</time>
      </trkpt>
      <trkpt lat="42.62024" lon="-0.18773">
        <ele>1280.64</ele>
        <time>2024-10-02T09:03:41.999Z</time>
      </trkpt>
      <trkpt lat="42.62024" lon="-0.18788">
        <ele>1280.9</ele>
        <time>2024-10-02T09:03:48.999Z</time>
      </trkpt>
      <trkpt lat="42.62023" lon="-0.18802">
        <ele>1281.15</ele>
        <time>2024-10-02T09:03:54.999Z</time>
      </trkpt>
      <trkpt lat="42.62019" lon="-0.18815">
        <ele>1281.45</ele>
        <time>2024-10-02T09:04:02.999Z</time>
      </trkpt>
      <trkpt lat="42.62013" lon="-0.18825">
        <ele>1281.65</ele>
        <time>2024-10-02T09:04:07.999Z</time>
      </trkpt>
      <trkpt lat="42.62007" lon="-0.18836">
        <ele>1281.85</ele>
        <time>2024-10-02T09:04:12.999Z</time>
      </trkpt>
      <trkpt lat="42.62002" lon="-0.18848">
        <ele>1282.1</ele>
        <time>2024-10-02T09:04:18.999Z</time>
      </trkpt>
      <trkpt lat="42.61998" lon="-0.18859">
        <ele>1282.3</ele>
        <time>2024-10-02T09:04:23.999Z</time>
      </trkpt>
      <trkpt lat="42.61994" lon="-0.18873">
        <ele>1282.56</ele>
        <time>2024-10-02T09:04:30.999Z</time>
      </trkpt>
      <trkpt lat="42.61992" lon="-0.18887">
        <ele>1282.78</ele>
        <time>2024-10-02T09:04:36.999Z</time>
      </trkpt>
      <trkpt lat="42.61994" lon="-0.18899">
        <ele>1283.75</ele>
        <time>2024-10-02T09:05:40.999Z</time>
      </trkpt>
      <trkpt lat="42.6199" lon="-0.18911">
        <ele>1284.05</ele>
        <time>2024-10-02T09:05:50.999Z</time>
      </trkpt>
      <trkpt lat="42.61987" lon="-0.18923">
        <ele>1284.32</ele>
        <time>2024-10-02T09:05:56.999Z</time>
      </trkpt>
      <trkpt lat="42.61984" lon="-0.18936">
        <ele>1284.59</ele>
        <time>2024-10-02T09:06:02.999Z</time>
      </trkpt>
      <trkpt lat="42.61984" lon="-0.18949">
        <ele>1284.91</ele>
        <time>2024-10-02T09:06:09.999Z</time>
      </trkpt>
      <trkpt lat="42.61985" lon="-0.18962">
        <ele>1285.14</ele>
        <time>2024-10-02T09:06:15.000Z</time>
      </trkpt>
      <trkpt lat="42.61986" lon="-0.18975">
        <ele>1285.37</ele>
        <time>2024-10-02T09:06:20.000Z</time>
      </trkpt>
      <trkpt lat="42.61988" lon="-0.1899">
        <ele>1285.65</ele>
        <time>2024-10-02T09:06:26.000Z</time>
      </trkpt>
      <trkpt lat="42.61991" lon="-0.19003">
        <ele>1285.91</ele>
        <time>2024-10-02T09:06:32.000Z</time>
      </trkpt>
      <trkpt lat="42.61992" lon="-0.19015">
        <ele>1286.26</ele>
        <time>2024-10-02T09:06:40.000Z</time>
      </trkpt>
      <trkpt lat="42.61995" lon="-0.19028">
        <ele>1286.49</ele>
        <time>2024-10-02T09:06:45.000Z</time>
      </trkpt>
      <trkpt lat="42.61998" lon="-0.19042">
        <ele>1286.84</ele>
        <time>2024-10-02T09:06:51.000Z</time>
      </trkpt>
      <trkpt lat="42.62001" lon="-0.19055">
        <ele>1287.17</ele>
        <time>2024-10-02T09:06:56.000Z</time>
      </trkpt>
      <trkpt lat="42.62006" lon="-0.19066">
        <ele>1287.53</ele>
        <time>2024-10-02T09:07:01.000Z</time>
      </trkpt>
      <trkpt lat="42.62012" lon="-0.19075">
        <ele>1288</ele>
        <time>2024-10-02T09:07:07.000Z</time>
      </trkpt>
      <trkpt lat="42.6202" lon="-0.19082">
        <ele>1288.6</ele>
        <time>2024-10-02T09:07:14.000Z</time>
      </trkpt>
      <trkpt lat="42.6203" lon="-0.19089">
        <ele>1289.28</ele>
        <time>2024-10-02T09:07:21.000Z</time>
      </trkpt>
      <trkpt lat="42.62038" lon="-0.19096">
        <ele>1289.78</ele>
        <time>2024-10-02T09:07:26.000Z</time>
      </trkpt>
      <trkpt lat="42.62045" lon="-0.19104">
        <ele>1290.39</ele>
        <time>2024-10-02T09:07:32.000Z</time>
      </trkpt>
      <trkpt lat="42.62054" lon="-0.19111">
        <ele>1291.12</ele>
        <time>2024-10-02T09:07:39.000Z</time>
      </trkpt>
      <trkpt lat="42.62062" lon="-0.19118">
        <ele>1291.83</ele>
        <time>2024-10-02T09:07:45.000Z</time>
      </trkpt>
      <trkpt lat="42.62069" lon="-0.19125">
        <ele>1292.59</ele>
        <time>2024-10-02T09:07:51.000Z</time>
      </trkpt>
      <trkpt lat="42.62079" lon="-0.19131">
        <ele>1293.51</ele>
        <time>2024-10-02T09:07:58.000Z</time>
      </trkpt>
      <trkpt lat="42.62088" lon="-0.19137">
        <ele>1294.4</ele>
        <time>2024-10-02T09:08:05.000Z</time>
      </trkpt>
      <trkpt lat="42.62096" lon="-0.19145">
        <ele>1295.38</ele>
        <time>2024-10-02T09:08:13.000Z</time>
      </trkpt>
      <trkpt lat="42.62102" lon="-0.19155">
        <ele>1296.12</ele>
        <time>2024-10-02T09:08:19.000Z</time>
      </trkpt>
      <trkpt lat="42.62109" lon="-0.19164">
        <ele>1296.78</ele>
        <time>2024-10-02T09:08:24.000Z</time>
      </trkpt>
      <trkpt lat="42.62117" lon="-0.19173">
        <ele>1297.59</ele>
        <time>2024-10-02T09:08:30.000Z</time>
      </trkpt>
      <trkpt lat="42.62123" lon="-0.19184">
        <ele>1298.52</ele>
        <time>2024-10-02T09:08:36.000Z</time>
      </trkpt>
      <trkpt lat="42.6213" lon="-0.19192">
        <ele>1299.55</ele>
        <time>2024-10-02T09:08:42.000Z</time>
      </trkpt>
      <trkpt lat="42.62137" lon="-0.19201">
        <ele>1300.48</ele>
        <time>2024-10-02T09:08:47.000Z</time>
      </trkpt>
      <trkpt lat="42.62144" lon="-0.19208">
        <ele>1301.84</ele>
        <time>2024-10-02T09:08:54.000Z</time>
      </trkpt>
      <trkpt lat="42.62151" lon="-0.19219">
        <ele>1303.17</ele>
        <time>2024-10-02T09:09:01.000Z</time>
      </trkpt>
      <trkpt lat="42.62158" lon="-0.19228">
        <ele>1304.3</ele>
        <time>2024-10-02T09:09:07.000Z</time>
      </trkpt>
      <trkpt lat="42.62165" lon="-0.1924">
        <ele>1305.56</ele>
        <time>2024-10-02T09:09:14.000Z</time>
      </trkpt>
      <trkpt lat="42.62171" lon="-0.19248">
        <ele>1306.66</ele>
        <time>2024-10-02T09:09:20.000Z</time>
      </trkpt>
      <trkpt lat="42.62177" lon="-0.19258">
        <ele>1307.78</ele>
        <time>2024-10-02T09:09:26.000Z</time>
      </trkpt>
      <trkpt lat="42.62184" lon="-0.19267">
        <ele>1308.89</ele>
        <time>2024-10-02T09:09:32.000Z</time>
      </trkpt>
      <trkpt lat="42.6219" lon="-0.19276">
        <ele>1309.94</ele>
        <time>2024-10-02T09:09:38.000Z</time>
      </trkpt>
      <trkpt lat="42.62195" lon="-0.19287">
        <ele>1310.97</ele>
        <time>2024-10-02T09:09:44.000Z</time>
      </trkpt>
      <trkpt lat="42.622" lon="-0.19299">
        <ele>1311.99</ele>
        <time>2024-10-02T09:09:50.000Z</time>
      </trkpt>
      <trkpt lat="42.62205" lon="-0.19309">
        <ele>1313.01</ele>
        <time>2024-10-02T09:09:56.000Z</time>
      </trkpt>
      <trkpt lat="42.6221" lon="-0.19319">
        <ele>1313.99</ele>
        <time>2024-10-02T09:10:02.000Z</time>
      </trkpt>
      <trkpt lat="42.62216" lon="-0.1933">
        <ele>1314.95</ele>
        <time>2024-10-02T09:10:08.000Z</time>
      </trkpt>
      <trkpt lat="42.62221" lon="-0.19339">
        <ele>1316.03</ele>
        <time>2024-10-02T09:10:15.000Z</time>
      </trkpt>
      <trkpt lat="42.62227" lon="-0.1935">
        <ele>1317.04</ele>
        <time>2024-10-02T09:10:22.000Z</time>
      </trkpt>
      <trkpt lat="42.62233" lon="-0.1936">
        <ele>1317.84</ele>
        <time>2024-10-02T09:10:28.000Z</time>
      </trkpt>
      <trkpt lat="42.6224" lon="-0.1937">
        <ele>1318.48</ele>
        <time>2024-10-02T09:10:33.000Z</time>
      </trkpt>
      <trkpt lat="42.62246" lon="-0.19379">
        <ele>1319.11</ele>
        <time>2024-10-02T09:10:38.000Z</time>
      </trkpt>
      <trkpt lat="42.62253" lon="-0.19388">
        <ele>1319.71</ele>
        <time>2024-10-02T09:10:43.000Z</time>
      </trkpt>
      <trkpt lat="42.62259" lon="-0.19398">
        <ele>1320.31</ele>
        <time>2024-10-02T09:10:48.000Z</time>
      </trkpt>
      <trkpt lat="42.62264" lon="-0.1941">
        <ele>1320.89</ele>
        <time>2024-10-02T09:10:53.000Z</time>
      </trkpt>
      <trkpt lat="42.62269" lon="-0.19422">
        <ele>1321.55</ele>
        <time>2024-10-02T09:10:59.000Z</time>
      </trkpt>
      <trkpt lat="42.6227" lon="-0.19434">
        <ele>1322.17</ele>
        <time>2024-10-02T09:11:05.000Z</time>
      </trkpt>
      <trkpt lat="42.62268" lon="-0.19447">
        <ele>1322.66</ele>
        <time>2024-10-02T09:11:10.000Z</time>
      </trkpt>
      <trkpt lat="42.62266" lon="-0.19459">
        <ele>1323.14</ele>
        <time>2024-10-02T09:11:15.000Z</time>
      </trkpt>
      <trkpt lat="42.62259" lon="-0.19473">
        <ele>1323.6</ele>
        <time>2024-10-02T09:11:20.000Z</time>
      </trkpt>
      <trkpt lat="42.62247" lon="-0.1949">
        <ele>1324.02</ele>
        <time>2024-10-02T09:11:25.000Z</time>
      </trkpt>
      <trkpt lat="42.62235" lon="-0.19499">
        <ele>1324.42</ele>
        <time>2024-10-02T09:11:30.000Z</time>
      </trkpt>
      <trkpt lat="42.62223" lon="-0.19503">
        <ele>1326.74</ele>
        <time>2024-10-02T09:11:35.000Z</time>
      </trkpt>
      <trkpt lat="42.62209" lon="-0.19499">
        <ele>1327.38</ele>
        <time>2024-10-02T09:11:40.000Z</time>
      </trkpt>
      <trkpt lat="42.62198" lon="-0.19497">
        <ele>1327.9</ele>
        <time>2024-10-02T09:11:45.000Z</time>
      </trkpt>
      <trkpt lat="42.62187" lon="-0.19492">
        <ele>1328.42</ele>
        <time>2024-10-02T09:11:50.000Z</time>
      </trkpt>
      <trkpt lat="42.62175" lon="-0.19488">
        <ele>1328.93</ele>
        <time>2024-10-02T09:11:55.000Z</time>
      </trkpt>
      <trkpt lat="42.62165" lon="-0.19485">
        <ele>1329.4</ele>
        <time>2024-10-02T09:12:01.000Z</time>
      </trkpt>
      <trkpt lat="42.62154" lon="-0.19479">
        <ele>1329.81</ele>
        <time>2024-10-02T09:12:06.000Z</time>
      </trkpt>
      <trkpt lat="42.62143" lon="-0.19475">
        <ele>1330.23</ele>
        <time>2024-10-02T09:12:11.000Z</time>
      </trkpt>
      <trkpt lat="42.62134" lon="-0.1947">
        <ele>1330.74</ele>
        <time>2024-10-02T09:12:17.000Z</time>
      </trkpt>
      <trkpt lat="42.62125" lon="-0.19465">
        <ele>1331.28</ele>
        <time>2024-10-02T09:12:24.000Z</time>
      </trkpt>
      <trkpt lat="42.62116" lon="-0.19459">
        <ele>1331.79</ele>
        <time>2024-10-02T09:12:30.000Z</time>
      </trkpt>
      <trkpt lat="42.62107" lon="-0.19453">
        <ele>1332.49</ele>
        <time>2024-10-02T09:12:36.000Z</time>
      </trkpt>
      <trkpt lat="42.62097" lon="-0.19447">
        <ele>1333.37</ele>
        <time>2024-10-02T09:12:42.000Z</time>
      </trkpt>
      <trkpt lat="42.62087" lon="-0.19443">
        <ele>1334.38</ele>
        <time>2024-10-02T09:12:48.000Z</time>
      </trkpt>
      <trkpt lat="42.62077" lon="-0.19439">
        <ele>1335.46</ele>
        <time>2024-10-02T09:12:54.000Z</time>
      </trkpt>
      <trkpt lat="42.62068" lon="-0.19434">
        <ele>1336.59</ele>
        <time>2024-10-02T09:13:00.000Z</time>
      </trkpt>
      <trkpt lat="42.62058" lon="-0.19431">
        <ele>1337.76</ele>
        <time>2024-10-02T09:13:06.000Z</time>
      </trkpt>
      <trkpt lat="42.62049" lon="-0.19425">
        <ele>1338.95</ele>
        <time>2024-10-02T09:13:12.000Z</time>
      </trkpt>
      <trkpt lat="42.62041" lon="-0.19421">
        <ele>1339.93</ele>
        <time>2024-10-02T09:13:17.000Z</time>
      </trkpt>
      <trkpt lat="42.62032" lon="-0.19416">
        <ele>1341.08</ele>
        <time>2024-10-02T09:13:23.000Z</time>
      </trkpt>
      <trkpt lat="42.62022" lon="-0.19409">
        <ele>1342.25</ele>
        <time>2024-10-02T09:13:29.000Z</time>
      </trkpt>
      <trkpt lat="42.62013" lon="-0.19403">
        <ele>1343.47</ele>
        <time>2024-10-02T09:13:35.000Z</time>
      </trkpt>
      <trkpt lat="42.62004" lon="-0.19398">
        <ele>1344.53</ele>
        <time>2024-10-02T09:13:40.000Z</time>
      </trkpt>
      <trkpt lat="42.61994" lon="-0.19393">
        <ele>1345.76</ele>
        <time>2024-10-02T09:13:46.000Z</time>
      </trkpt>
      <trkpt lat="42.61984" lon="-0.1939">
        <ele>1347.21</ele>
        <time>2024-10-02T09:13:53.000Z</time>
      </trkpt>
      <trkpt lat="42.61975" lon="-0.19388">
        <ele>1348.62</ele>
        <time>2024-10-02T09:14:00.000Z</time>
      </trkpt>
      <trkpt lat="42.61965" lon="-0.19389">
        <ele>1350</ele>
        <time>2024-10-02T09:14:07.000Z</time>
      </trkpt>
      <trkpt lat="42.61956" lon="-0.19392">
        <ele>1351.19</ele>
        <time>2024-10-02T09:14:13.000Z</time>
      </trkpt>
      <trkpt lat="42.61947" lon="-0.19397">
        <ele>1352.33</ele>
        <time>2024-10-02T09:14:19.000Z</time>
      </trkpt>
      <trkpt lat="42.61939" lon="-0.19402">
        <ele>1353.27</ele>
        <time>2024-10-02T09:14:25.000Z</time>
      </trkpt>
      <trkpt lat="42.6193" lon="-0.19411">
        <ele>1354.08</ele>
        <time>2024-10-02T09:14:31.000Z</time>
      </trkpt>
      <trkpt lat="42.61923" lon="-0.19421">
        <ele>1354.9</ele>
        <time>2024-10-02T09:14:38.000Z</time>
      </trkpt>
      <trkpt lat="42.61917" lon="-0.19432">
        <ele>1355.52</ele>
        <time>2024-10-02T09:14:44.000Z</time>
      </trkpt>
      <trkpt lat="42.61911" lon="-0.19443">
        <ele>1356.16</ele>
        <time>2024-10-02T09:14:51.000Z</time>
      </trkpt>
      <trkpt lat="42.61905" lon="-0.19454">
        <ele>1356.7</ele>
        <time>2024-10-02T09:14:58.000Z</time>
      </trkpt>
      <trkpt lat="42.619" lon="-0.19465">
        <ele>1357.14</ele>
        <time>2024-10-02T09:15:04.000Z</time>
      </trkpt>
      <trkpt lat="42.61895" lon="-0.19477">
        <ele>1357.54</ele>
        <time>2024-10-02T09:15:10.000Z</time>
      </trkpt>
      <trkpt lat="42.6189" lon="-0.19488">
        <ele>1357.9</ele>
        <time>2024-10-02T09:15:16.000Z</time>
      </trkpt>
      <trkpt lat="42.61884" lon="-0.195">
        <ele>1358.39</ele>
        <time>2024-10-02T09:15:23.000Z</time>
      </trkpt>
      <trkpt lat="42.61881" lon="-0.19512">
        <ele>1358.83</ele>
        <time>2024-10-02T09:15:29.000Z</time>
      </trkpt>
      <trkpt lat="42.61878" lon="-0.19525">
        <ele>1359.36</ele>
        <time>2024-10-02T09:15:36.000Z</time>
      </trkpt>
      <trkpt lat="42.61877" lon="-0.19538">
        <ele>1359.87</ele>
        <time>2024-10-02T09:15:42.000Z</time>
      </trkpt>
      <trkpt lat="42.61875" lon="-0.19551">
        <ele>1360.56</ele>
        <time>2024-10-02T09:15:49.000Z</time>
      </trkpt>
      <trkpt lat="42.61876" lon="-0.19564">
        <ele>1361.37</ele>
        <time>2024-10-02T09:15:56.000Z</time>
      </trkpt>
      <trkpt lat="42.61877" lon="-0.19576">
        <ele>1362.19</ele>
        <time>2024-10-02T09:16:03.000Z</time>
      </trkpt>
      <trkpt lat="42.61879" lon="-0.19589">
        <ele>1363.06</ele>
        <time>2024-10-02T09:16:10.000Z</time>
      </trkpt>
      <trkpt lat="42.61881" lon="-0.19603">
        <ele>1363.99</ele>
        <time>2024-10-02T09:16:17.000Z</time>
      </trkpt>
      <trkpt lat="42.61881" lon="-0.19617">
        <ele>1364.95</ele>
        <time>2024-10-02T09:16:24.000Z</time>
      </trkpt>
      <trkpt lat="42.61883" lon="-0.1963">
        <ele>1365.91</ele>
        <time>2024-10-02T09:16:31.000Z</time>
      </trkpt>
      <trkpt lat="42.61885" lon="-0.19643">
        <ele>1366.82</ele>
        <time>2024-10-02T09:16:39.000Z</time>
      </trkpt>
      <trkpt lat="42.61885" lon="-0.19656">
        <ele>1367.48</ele>
        <time>2024-10-02T09:16:46.000Z</time>
      </trkpt>
      <trkpt lat="42.61887" lon="-0.1967">
        <ele>1368.01</ele>
        <time>2024-10-02T09:16:53.000Z</time>
      </trkpt>
      <trkpt lat="42.6189" lon="-0.19683">
        <ele>1368.41</ele>
        <time>2024-10-02T09:16:59.000Z</time>
      </trkpt>
      <trkpt lat="42.61892" lon="-0.19695">
        <ele>1368.8</ele>
        <time>2024-10-02T09:17:05.000Z</time>
      </trkpt>
      <trkpt lat="42.61894" lon="-0.19708">
        <ele>1369.22</ele>
        <time>2024-10-02T09:17:12.000Z</time>
      </trkpt>
      <trkpt lat="42.61895" lon="-0.19721">
        <ele>1369.63</ele>
        <time>2024-10-02T09:17:20.000Z</time>
      </trkpt>
      <trkpt lat="42.61894" lon="-0.19734">
        <ele>1369.85</ele>
        <time>2024-10-02T09:17:26.000Z</time>
      </trkpt>
      <trkpt lat="42.61896" lon="-0.19748">
        <ele>1370</ele>
        <time>2024-10-02T09:17:31.000Z</time>
      </trkpt>
      <trkpt lat="42.61897" lon="-0.19761">
        <ele>1370.13</ele>
        <time>2024-10-02T09:17:36.000Z</time>
      </trkpt>
      <trkpt lat="42.61893" lon="-0.19773">
        <ele>1370.29</ele>
        <time>2024-10-02T09:17:44.000Z</time>
      </trkpt>
      <trkpt lat="42.61894" lon="-0.19785">
        <ele>1370.36</ele>
        <time>2024-10-02T09:17:49.000Z</time>
      </trkpt>
      <trkpt lat="42.61891" lon="-0.19797">
        <ele>1370.44</ele>
        <time>2024-10-02T09:17:54.000Z</time>
      </trkpt>
      <trkpt lat="42.61887" lon="-0.19809">
        <ele>1370.52</ele>
        <time>2024-10-02T09:18:00.000Z</time>
      </trkpt>
      <trkpt lat="42.61885" lon="-0.19821">
        <ele>1370.62</ele>
        <time>2024-10-02T09:18:07.000Z</time>
      </trkpt>
      <trkpt lat="42.61882" lon="-0.19833">
        <ele>1370.72</ele>
        <time>2024-10-02T09:18:13.000Z</time>
      </trkpt>
      <trkpt lat="42.61879" lon="-0.19845">
        <ele>1370.84</ele>
        <time>2024-10-02T09:18:19.000Z</time>
      </trkpt>
      <trkpt lat="42.61876" lon="-0.1986">
        <ele>1370.95</ele>
        <time>2024-10-02T09:18:24.999Z</time>
      </trkpt>
      <trkpt lat="42.61871" lon="-0.19871">
        <ele>1371.06</ele>
        <time>2024-10-02T09:18:30.999Z</time>
      </trkpt>
      <trkpt lat="42.61871" lon="-0.19884">
        <ele>1371.18</ele>
        <time>2024-10-02T09:18:35.999Z</time>
      </trkpt>
      <trkpt lat="42.6187" lon="-0.19896">
        <ele>1371.33</ele>
        <time>2024-10-02T09:18:41.999Z</time>
      </trkpt>
      <trkpt lat="42.61869" lon="-0.19908">
        <ele>1371.48</ele>
        <time>2024-10-02T09:18:46.999Z</time>
      </trkpt>
      <trkpt lat="42.61869" lon="-0.19922">
        <ele>1371.73</ele>
        <time>2024-10-02T09:18:52.999Z</time>
      </trkpt>
      <trkpt lat="42.6187" lon="-0.19934">
        <ele>1372.07</ele>
        <time>2024-10-02T09:18:59.999Z</time>
      </trkpt>
      <trkpt lat="42.61868" lon="-0.19948">
        <ele>1372.32</ele>
        <time>2024-10-02T09:19:04.999Z</time>
      </trkpt>
      <trkpt lat="42.61865" lon="-0.1996">
        <ele>1372.59</ele>
        <time>2024-10-02T09:19:09.999Z</time>
      </trkpt>
      <trkpt lat="42.61855" lon="-0.19968">
        <ele>1372.9</ele>
        <time>2024-10-02T09:19:15.999Z</time>
      </trkpt>
      <trkpt lat="42.61838" lon="-0.19977">
        <ele>1373.09</ele>
        <time>2024-10-02T09:19:20.999Z</time>
      </trkpt>
      <trkpt lat="42.6182" lon="-0.19971">
        <ele>1373.3</ele>
        <time>2024-10-02T09:19:25.999Z</time>
      </trkpt>
      <trkpt lat="42.618" lon="-0.19961">
        <ele>1373.57</ele>
        <time>2024-10-02T09:19:30.999Z</time>
      </trkpt>
      <trkpt lat="42.61785" lon="-0.19947">
        <ele>1373.69</ele>
        <time>2024-10-02T09:19:35.999Z</time>
      </trkpt>
      <trkpt lat="42.61774" lon="-0.19927">
        <ele>1373.84</ele>
        <time>2024-10-02T09:19:40.999Z</time>
      </trkpt>
      <trkpt lat="42.61768" lon="-0.19908">
        <ele>1374.06</ele>
        <time>2024-10-02T09:19:45.999Z</time>
      </trkpt>
      <trkpt lat="42.61763" lon="-0.19891">
        <ele>1374.3</ele>
        <time>2024-10-02T09:19:50.999Z</time>
      </trkpt>
      <trkpt lat="42.61755" lon="-0.19874">
        <ele>1374.61</ele>
        <time>2024-10-02T09:19:55.999Z</time>
      </trkpt>
      <trkpt lat="42.61744" lon="-0.19855">
        <ele>1375</ele>
        <time>2024-10-02T09:20:00.999Z</time>
      </trkpt>
      <trkpt lat="42.61731" lon="-0.19834">
        <ele>1376.09</ele>
        <time>2024-10-02T09:20:05.999Z</time>
      </trkpt>
      <trkpt lat="42.61721" lon="-0.19817">
        <ele>1376.5</ele>
        <time>2024-10-02T09:20:10.999Z</time>
      </trkpt>
      <trkpt lat="42.6171" lon="-0.19803">
        <ele>1377.12</ele>
        <time>2024-10-02T09:20:15.999Z</time>
      </trkpt>
      <trkpt lat="42.61702" lon="-0.19795">
        <ele>1378.17</ele>
        <time>2024-10-02T09:20:21.999Z</time>
      </trkpt>
      <trkpt lat="42.61692" lon="-0.19794">
        <ele>1379.39</ele>
        <time>2024-10-02T09:20:27.999Z</time>
      </trkpt>
      <trkpt lat="42.61684" lon="-0.19799">
        <ele>1380.74</ele>
        <time>2024-10-02T09:20:33.999Z</time>
      </trkpt>
      <trkpt lat="42.61674" lon="-0.19807">
        <ele>1382.43</ele>
        <time>2024-10-02T09:20:40.999Z</time>
      </trkpt>
      <trkpt lat="42.61666" lon="-0.19815">
        <ele>1383.93</ele>
        <time>2024-10-02T09:20:46.999Z</time>
      </trkpt>
      <trkpt lat="42.61658" lon="-0.19824">
        <ele>1385.66</ele>
        <time>2024-10-02T09:20:53.999Z</time>
      </trkpt>
      <trkpt lat="42.61651" lon="-0.19833">
        <ele>1387.03</ele>
        <time>2024-10-02T09:20:59.999Z</time>
      </trkpt>
      <trkpt lat="42.61643" lon="-0.19843">
        <ele>1388.45</ele>
        <time>2024-10-02T09:21:06.999Z</time>
      </trkpt>
      <trkpt lat="42.61636" lon="-0.19853">
        <ele>1389.55</ele>
        <time>2024-10-02T09:21:12.999Z</time>
      </trkpt>
      <trkpt lat="42.61628" lon="-0.19861">
        <ele>1390.88</ele>
        <time>2024-10-02T09:21:20.999Z</time>
      </trkpt>
      <trkpt lat="42.61619" lon="-0.19867">
        <ele>1392.1</ele>
        <time>2024-10-02T09:21:28.999Z</time>
      </trkpt>
      <trkpt lat="42.61612" lon="-0.19874">
        <ele>1392.96</ele>
        <time>2024-10-02T09:21:34.999Z</time>
      </trkpt>
      <trkpt lat="42.61603" lon="-0.19883">
        <ele>1393.78</ele>
        <time>2024-10-02T09:21:40.999Z</time>
      </trkpt>
      <trkpt lat="42.61596" lon="-0.19892">
        <ele>1394.58</ele>
        <time>2024-10-02T09:21:46.999Z</time>
      </trkpt>
      <trkpt lat="42.61589" lon="-0.19903">
        <ele>1395.31</ele>
        <time>2024-10-02T09:21:52.999Z</time>
      </trkpt>
      <trkpt lat="42.61583" lon="-0.19914">
        <ele>1395.89</ele>
        <time>2024-10-02T09:21:57.999Z</time>
      </trkpt>
      <trkpt lat="42.61575" lon="-0.19921">
        <ele>1396.99</ele>
        <time>2024-10-02T09:22:07.999Z</time>
      </trkpt>
      <trkpt lat="42.61566" lon="-0.19927">
        <ele>1397.85</ele>
        <time>2024-10-02T09:22:15.999Z</time>
      </trkpt>
      <trkpt lat="42.61557" lon="-0.19936">
        <ele>1398.38</ele>
        <time>2024-10-02T09:22:20.999Z</time>
      </trkpt>
      <trkpt lat="42.6155" lon="-0.19945">
        <ele>1399.04</ele>
        <time>2024-10-02T09:22:26.999Z</time>
      </trkpt>
      <trkpt lat="42.61543" lon="-0.19955">
        <ele>1399.79</ele>
        <time>2024-10-02T09:22:33.999Z</time>
      </trkpt>
      <trkpt lat="42.61538" lon="-0.19966">
        <ele>1400.48</ele>
        <time>2024-10-02T09:22:40.999Z</time>
      </trkpt>
      <trkpt lat="42.61532" lon="-0.19976">
        <ele>1401.1</ele>
        <time>2024-10-02T09:22:47.999Z</time>
      </trkpt>
      <trkpt lat="42.61525" lon="-0.19984">
        <ele>1401.51</ele>
        <time>2024-10-02T09:22:55.999Z</time>
      </trkpt>
      <trkpt lat="42.61516" lon="-0.19991">
        <ele>1401.9</ele>
        <time>2024-10-02T09:23:02.999Z</time>
      </trkpt>
      <trkpt lat="42.61506" lon="-0.19994">
        <ele>1402.4</ele>
        <time>2024-10-02T09:23:08.999Z</time>
      </trkpt>
      <trkpt lat="42.61497" lon="-0.19997">
        <ele>1403.03</ele>
        <time>2024-10-02T09:23:15.999Z</time>
      </trkpt>
      <trkpt lat="42.61488" lon="-0.20001">
        <ele>1403.6</ele>
        <time>2024-10-02T09:23:21.999Z</time>
      </trkpt>
      <trkpt lat="42.61479" lon="-0.20005">
        <ele>1404.32</ele>
        <time>2024-10-02T09:23:28.999Z</time>
      </trkpt>
      <trkpt lat="42.61469" lon="-0.20011">
        <ele>1405.1</ele>
        <time>2024-10-02T09:23:35.999Z</time>
      </trkpt>
      <trkpt lat="42.61461" lon="-0.20018">
        <ele>1405.9</ele>
        <time>2024-10-02T09:23:41.999Z</time>
      </trkpt>
      <trkpt lat="42.61452" lon="-0.20023">
        <ele>1406.76</ele>
        <time>2024-10-02T09:23:47.999Z</time>
      </trkpt>
      <trkpt lat="42.61443" lon="-0.2003">
        <ele>1407.89</ele>
        <time>2024-10-02T09:23:55.999Z</time>
      </trkpt>
      <trkpt lat="42.61435" lon="-0.20036">
        <ele>1408.93</ele>
        <time>2024-10-02T09:24:02.999Z</time>
      </trkpt>
      <trkpt lat="42.61428" lon="-0.20045">
        <ele>1409.85</ele>
        <time>2024-10-02T09:24:08.999Z</time>
      </trkpt>
      <trkpt lat="42.61421" lon="-0.20055">
        <ele>1410.74</ele>
        <time>2024-10-02T09:24:14.999Z</time>
      </trkpt>
      <trkpt lat="42.61413" lon="-0.20064">
        <ele>1411.75</ele>
        <time>2024-10-02T09:24:21.999Z</time>
      </trkpt>
      <trkpt lat="42.6141" lon="-0.20075">
        <ele>1412.6</ele>
        <time>2024-10-02T09:24:27.999Z</time>
      </trkpt>
      <trkpt lat="42.61403" lon="-0.20085">
        <ele>1413.48</ele>
        <time>2024-10-02T09:24:34.999Z</time>
      </trkpt>
      <trkpt lat="42.61397" lon="-0.20094">
        <ele>1414.1</ele>
        <time>2024-10-02T09:24:40.999Z</time>
      </trkpt>
      <trkpt lat="42.6139" lon="-0.20104">
        <ele>1414.79</ele>
        <time>2024-10-02T09:24:47.999Z</time>
      </trkpt>
      <trkpt lat="42.61383" lon="-0.20112">
        <ele>1415.79</ele>
        <time>2024-10-02T09:24:56.999Z</time>
      </trkpt>
      <trkpt lat="42.61373" lon="-0.20116">
        <ele>1416.33</ele>
        <time>2024-10-02T09:25:02.999Z</time>
      </trkpt>
      <trkpt lat="42.61363" lon="-0.20117">
        <ele>1416.83</ele>
        <time>2024-10-02T09:25:07.999Z</time>
      </trkpt>
      <trkpt lat="42.61352" lon="-0.2012">
        <ele>1417.48</ele>
        <time>2024-10-02T09:25:13.999Z</time>
      </trkpt>
      <trkpt lat="42.61342" lon="-0.20122">
        <ele>1418.19</ele>
        <time>2024-10-02T09:25:19.999Z</time>
      </trkpt>
      <trkpt lat="42.61331" lon="-0.20126">
        <ele>1418.97</ele>
        <time>2024-10-02T09:25:25.999Z</time>
      </trkpt>
      <trkpt lat="42.61322" lon="-0.20132">
        <ele>1419.96</ele>
        <time>2024-10-02T09:25:32.999Z</time>
      </trkpt>
      <trkpt lat="42.61311" lon="-0.20142">
        <ele>1420.63</ele>
        <time>2024-10-02T09:25:37.999Z</time>
      </trkpt>
      <trkpt lat="42.61303" lon="-0.2015">
        <ele>1421.43</ele>
        <time>2024-10-02T09:25:43.999Z</time>
      </trkpt>
      <trkpt lat="42.61294" lon="-0.20155">
        <ele>1422.26</ele>
        <time>2024-10-02T09:25:49.999Z</time>
      </trkpt>
      <trkpt lat="42.61284" lon="-0.20156">
        <ele>1422.99</ele>
        <time>2024-10-02T09:25:54.999Z</time>
      </trkpt>
      <trkpt lat="42.61275" lon="-0.20146">
        <ele>1423.66</ele>
        <time>2024-10-02T09:25:59.999Z</time>
      </trkpt>
      <trkpt lat="42.61272" lon="-0.20135">
        <ele>1428.35</ele>
        <time>2024-10-02T09:28:53.999Z</time>
      </trkpt>
      <trkpt lat="42.61275" lon="-0.20148">
        <ele>1431.23</ele>
        <time>2024-10-02T09:29:38.999Z</time>
      </trkpt>
      <trkpt lat="42.61279" lon="-0.20159">
        <ele>1432.52</ele>
        <time>2024-10-02T09:29:45.999Z</time>
      </trkpt>
      <trkpt lat="42.61281" lon="-0.20174">
        <ele>1433.9</ele>
        <time>2024-10-02T09:29:53.999Z</time>
      </trkpt>
      <trkpt lat="42.61282" lon="-0.20189">
        <ele>1434.68</ele>
        <time>2024-10-02T09:29:58.999Z</time>
      </trkpt>
      <trkpt lat="42.61285" lon="-0.20211">
        <ele>1437.64</ele>
        <time>2024-10-02T09:30:03.999Z</time>
      </trkpt>
      <trkpt lat="42.61638" lon="-0.21022">
        <ele>1441.37</ele>
        <time>2024-10-02T09:32:49.000Z</time>
      </trkpt>
      <trkpt lat="42.61644" lon="-0.21013">
        <ele>1437.82</ele>
        <time>2024-10-02T09:38:31.000Z</time>
      </trkpt>
      <trkpt lat="42.61659" lon="-0.21005">
        <ele>1436.94</ele>
        <time>2024-10-02T09:38:36.000Z</time>
      </trkpt>
      <trkpt lat="42.61682" lon="-0.2103">
        <ele>1435.76</ele>
        <time>2024-10-02T09:38:41.000Z</time>
      </trkpt>
      <trkpt lat="42.61679" lon="-0.21085">
        <ele>1435.21</ele>
        <time>2024-10-02T09:38:46.000Z</time>
      </trkpt>
      <trkpt lat="42.61677" lon="-0.21151">
        <ele>1434.68</ele>
        <time>2024-10-02T09:38:51.000Z</time>
      </trkpt>
      <trkpt lat="42.61691" lon="-0.21222">
        <ele>1433.34</ele>
        <time>2024-10-02T09:38:56.000Z</time>
      </trkpt>
      <trkpt lat="42.61712" lon="-0.21293">
        <ele>1431.59</ele>
        <time>2024-10-02T09:39:01.000Z</time>
      </trkpt>
      <trkpt lat="42.61728" lon="-0.21368">
        <ele>1429.51</ele>
        <time>2024-10-02T09:39:06.000Z</time>
      </trkpt>
      <trkpt lat="42.61743" lon="-0.21422">
        <ele>1426.75</ele>
        <time>2024-10-02T09:39:11.000Z</time>
      </trkpt>
      <trkpt lat="42.61785" lon="-0.21426">
        <ele>1423.66</ele>
        <time>2024-10-02T09:39:16.000Z</time>
      </trkpt>
      <trkpt lat="42.61827" lon="-0.21386">
        <ele>1420.59</ele>
        <time>2024-10-02T09:39:21.000Z</time>
      </trkpt>
      <trkpt lat="42.6186" lon="-0.21339">
        <ele>1416.37</ele>
        <time>2024-10-02T09:39:26.000Z</time>
      </trkpt>
      <trkpt lat="42.61892" lon="-0.2132">
        <ele>1412.71</ele>
        <time>2024-10-02T09:39:31.000Z</time>
      </trkpt>
      <trkpt lat="42.61913" lon="-0.21364">
        <ele>1409.03</ele>
        <time>2024-10-02T09:39:36.000Z</time>
      </trkpt>
      <trkpt lat="42.61943" lon="-0.21418">
        <ele>1404.84</ele>
        <time>2024-10-02T09:39:41.000Z</time>
      </trkpt>
      <trkpt lat="42.61974" lon="-0.21448">
        <ele>1401.21</ele>
        <time>2024-10-02T09:39:46.000Z</time>
      </trkpt>
      <trkpt lat="42.61967" lon="-0.21506">
        <ele>1398.57</ele>
        <time>2024-10-02T09:39:51.000Z</time>
      </trkpt>
      <trkpt lat="42.61952" lon="-0.21574">
        <ele>1395.46</ele>
        <time>2024-10-02T09:39:56.000Z</time>
      </trkpt>
      <trkpt lat="42.61938" lon="-0.2164">
        <ele>1391.67</ele>
        <time>2024-10-02T09:40:01.000Z</time>
      </trkpt>
      <trkpt lat="42.61916" lon="-0.21709">
        <ele>1386.68</ele>
        <time>2024-10-02T09:40:06.000Z</time>
      </trkpt>
      <trkpt lat="42.61891" lon="-0.21763">
        <ele>1381.2</ele>
        <time>2024-10-02T09:40:11.000Z</time>
      </trkpt>
      <trkpt lat="42.61899" lon="-0.21815">
        <ele>1376.02</ele>
        <time>2024-10-02T09:40:16.000Z</time>
      </trkpt>
      <trkpt lat="42.61932" lon="-0.21861">
        <ele>1371.26</ele>
        <time>2024-10-02T09:40:21.000Z</time>
      </trkpt>
      <trkpt lat="42.61953" lon="-0.21926">
        <ele>1367.49</ele>
        <time>2024-10-02T09:40:26.000Z</time>
      </trkpt>
      <trkpt lat="42.61983" lon="-0.21978">
        <ele>1362.88</ele>
        <time>2024-10-02T09:40:31.000Z</time>
      </trkpt>
      <trkpt lat="42.62029" lon="-0.2198">
        <ele>1358.31</ele>
        <time>2024-10-02T09:40:36.000Z</time>
      </trkpt>
      <trkpt lat="42.62073" lon="-0.21966">
        <ele>1354.28</ele>
        <time>2024-10-02T09:40:41.000Z</time>
      </trkpt>
      <trkpt lat="42.6209" lon="-0.22016">
        <ele>1350.4</ele>
        <time>2024-10-02T09:40:46.000Z</time>
      </trkpt>
      <trkpt lat="42.62093" lon="-0.22075">
        <ele>1347.08</ele>
        <time>2024-10-02T09:40:51.000Z</time>
      </trkpt>
      <trkpt lat="42.62134" lon="-0.22098">
        <ele>1344.04</ele>
        <time>2024-10-02T09:40:56.000Z</time>
      </trkpt>
      <trkpt lat="42.62161" lon="-0.22132">
        <ele>1341.28</ele>
        <time>2024-10-02T09:41:01.000Z</time>
      </trkpt>
      <trkpt lat="42.62141" lon="-0.2219">
        <ele>1339.31</ele>
        <time>2024-10-02T09:41:06.000Z</time>
      </trkpt>
      <trkpt lat="42.6211" lon="-0.22247">
        <ele>1336.46</ele>
        <time>2024-10-02T09:41:11.000Z</time>
      </trkpt>
      <trkpt lat="42.62086" lon="-0.22298">
        <ele>1331.45</ele>
        <time>2024-10-02T09:41:16.000Z</time>
      </trkpt>
      <trkpt lat="42.62086" lon="-0.22356">
        <ele>1325.04</ele>
        <time>2024-10-02T09:41:21.000Z</time>
      </trkpt>
      <trkpt lat="42.62119" lon="-0.22414">
        <ele>1319.33</ele>
        <time>2024-10-02T09:41:26.000Z</time>
      </trkpt>
      <trkpt lat="42.62124" lon="-0.2249">
        <ele>1314.57</ele>
        <time>2024-10-02T09:41:31.000Z</time>
      </trkpt>
      <trkpt lat="42.62135" lon="-0.22561">
        <ele>1310.73</ele>
        <time>2024-10-02T09:41:36.000Z</time>
      </trkpt>
      <trkpt lat="42.62167" lon="-0.2261">
        <ele>1305.69</ele>
        <time>2024-10-02T09:41:41.000Z</time>
      </trkpt>
      <trkpt lat="42.62217" lon="-0.22615">
        <ele>1300.96</ele>
        <time>2024-10-02T09:41:46.000Z</time>
      </trkpt>
      <trkpt lat="42.62259" lon="-0.22623">
        <ele>1296.01</ele>
        <time>2024-10-02T09:41:51.000Z</time>
      </trkpt>
      <trkpt lat="42.6226" lon="-0.22683">
        <ele>1292.36</ele>
        <time>2024-10-02T09:41:56.000Z</time>
      </trkpt>
      <trkpt lat="42.62248" lon="-0.22755">
        <ele>1288.92</ele>
        <time>2024-10-02T09:42:01.000Z</time>
      </trkpt>
      <trkpt lat="42.62245" lon="-0.22824">
        <ele>1284.9</ele>
        <time>2024-10-02T09:42:06.000Z</time>
      </trkpt>
      <trkpt lat="42.62258" lon="-0.22877">
        <ele>1281.44</ele>
        <time>2024-10-02T09:42:11.000Z</time>
      </trkpt>
      <trkpt lat="42.62288" lon="-0.22932">
        <ele>1277.03</ele>
        <time>2024-10-02T09:42:16.000Z</time>
      </trkpt>
      <trkpt lat="42.62336" lon="-0.22957">
        <ele>1270.89</ele>
        <time>2024-10-02T09:42:21.000Z</time>
      </trkpt>
      <trkpt lat="42.62347" lon="-0.23015">
        <ele>1266.19</ele>
        <time>2024-10-02T09:42:26.000Z</time>
      </trkpt>
      <trkpt lat="42.62342" lon="-0.23087">
        <ele>1262.43</ele>
        <time>2024-10-02T09:42:31.000Z</time>
      </trkpt>
      <trkpt lat="42.62371" lon="-0.23165">
        <ele>1254.45</ele>
        <time>2024-10-02T09:42:36.999Z</time>
      </trkpt>
      <trkpt lat="42.62388" lon="-0.23235">
        <ele>1248.84</ele>
        <time>2024-10-02T09:42:41.999Z</time>
      </trkpt>
      <trkpt lat="42.62403" lon="-0.2331">
        <ele>1243.74</ele>
        <time>2024-10-02T09:42:46.999Z</time>
      </trkpt>
      <trkpt lat="42.62417" lon="-0.23374">
        <ele>1238.03</ele>
        <time>2024-10-02T09:42:51.999Z</time>
      </trkpt>
      <trkpt lat="42.6245" lon="-0.23413">
        <ele>1233.47</ele>
        <time>2024-10-02T09:42:56.999Z</time>
      </trkpt>
      <trkpt lat="42.62499" lon="-0.23399">
        <ele>1229.52</ele>
        <time>2024-10-02T09:43:01.999Z</time>
      </trkpt>
      <trkpt lat="42.62546" lon="-0.23365">
        <ele>1224.96</ele>
        <time>2024-10-02T09:43:06.999Z</time>
      </trkpt>
      <trkpt lat="42.626" lon="-0.23343">
        <ele>1220.6</ele>
        <time>2024-10-02T09:43:11.999Z</time>
      </trkpt>
      <trkpt lat="42.62657" lon="-0.23322">
        <ele>1216.18</ele>
        <time>2024-10-02T09:43:16.999Z</time>
      </trkpt>
      <trkpt lat="42.62712" lon="-0.23291">
        <ele>1211.15</ele>
        <time>2024-10-02T09:43:21.999Z</time>
      </trkpt>
      <trkpt lat="42.62745" lon="-0.23241">
        <ele>1208.21</ele>
        <time>2024-10-02T09:43:26.999Z</time>
      </trkpt>
      <trkpt lat="42.62793" lon="-0.2323">
        <ele>1205.25</ele>
        <time>2024-10-02T09:43:31.999Z</time>
      </trkpt>
      <trkpt lat="42.6283" lon="-0.23188">
        <ele>1202.3</ele>
        <time>2024-10-02T09:43:36.999Z</time>
      </trkpt>
      <trkpt lat="42.62851" lon="-0.23134">
        <ele>1199.34</ele>
        <time>2024-10-02T09:43:41.999Z</time>
      </trkpt>
      <trkpt lat="42.62887" lon="-0.23128">
        <ele>1196.26</ele>
        <time>2024-10-02T09:43:46.999Z</time>
      </trkpt>
      <trkpt lat="42.62911" lon="-0.23152">
        <ele>1193.9</ele>
        <time>2024-10-02T09:43:51.999Z</time>
      </trkpt>
      <trkpt lat="42.62911" lon="-0.2319">
        <ele>1191.97</ele>
        <time>2024-10-02T09:43:56.999Z</time>
      </trkpt>
      <trkpt lat="42.62904" lon="-0.23224">
        <ele>1190.24</ele>
        <time>2024-10-02T09:44:01.999Z</time>
      </trkpt>
      <trkpt lat="42.62892" lon="-0.23256">
        <ele>1188.91</ele>
        <time>2024-10-02T09:44:06.999Z</time>
      </trkpt>
      <trkpt lat="42.62876" lon="-0.23289">
        <ele>1186.98</ele>
        <time>2024-10-02T09:44:11.999Z</time>
      </trkpt>
      <trkpt lat="42.62852" lon="-0.23319">
        <ele>1185.15</ele>
        <time>2024-10-02T09:44:16.999Z</time>
      </trkpt>
      <trkpt lat="42.62823" lon="-0.23356">
        <ele>1183.68</ele>
        <time>2024-10-02T09:44:21.999Z</time>
      </trkpt>
      <trkpt lat="42.62796" lon="-0.23399">
        <ele>1181.75</ele>
        <time>2024-10-02T09:44:26.999Z</time>
      </trkpt>
      <trkpt lat="42.62766" lon="-0.23441">
        <ele>1179.69</ele>
        <time>2024-10-02T09:44:31.999Z</time>
      </trkpt>
      <trkpt lat="42.62731" lon="-0.23479">
        <ele>1178.22</ele>
        <time>2024-10-02T09:44:36.999Z</time>
      </trkpt>
      <trkpt lat="42.62692" lon="-0.23515">
        <ele>1176.39</ele>
        <time>2024-10-02T09:44:41.999Z</time>
      </trkpt>
      <trkpt lat="42.62649" lon="-0.23544">
        <ele>1174.26</ele>
        <time>2024-10-02T09:44:46.999Z</time>
      </trkpt>
      <trkpt lat="42.62608" lon="-0.23576">
        <ele>1172.31</ele>
        <time>2024-10-02T09:44:51.999Z</time>
      </trkpt>
      <trkpt lat="42.62566" lon="-0.23605">
        <ele>1170.9</ele>
        <time>2024-10-02T09:44:56.999Z</time>
      </trkpt>
      <trkpt lat="42.62524" lon="-0.23636">
        <ele>1169.49</ele>
        <time>2024-10-02T09:45:01.999Z</time>
      </trkpt>
      <trkpt lat="42.62479" lon="-0.2366">
        <ele>1167.48</ele>
        <time>2024-10-02T09:45:06.999Z</time>
      </trkpt>
      <trkpt lat="42.62433" lon="-0.23678">
        <ele>1165.03</ele>
        <time>2024-10-02T09:45:11.999Z</time>
      </trkpt>
      <trkpt lat="42.62384" lon="-0.23693">
        <ele>1163.28</ele>
        <time>2024-10-02T09:45:16.999Z</time>
      </trkpt>
      <trkpt lat="42.62336" lon="-0.23711">
        <ele>1161.83</ele>
        <time>2024-10-02T09:45:21.999Z</time>
      </trkpt>
      <trkpt lat="42.62291" lon="-0.2374">
        <ele>1159.26</ele>
        <time>2024-10-02T09:45:26.999Z</time>
      </trkpt>
      <trkpt lat="42.62259" lon="-0.23795">
        <ele>1156.7</ele>
        <time>2024-10-02T09:45:31.999Z</time>
      </trkpt>
      <trkpt lat="42.62229" lon="-0.23852">
        <ele>1154.17</ele>
        <time>2024-10-02T09:45:36.999Z</time>
      </trkpt>
      <trkpt lat="42.62227" lon="-0.2392">
        <ele>1152.25</ele>
        <time>2024-10-02T09:45:41.999Z</time>
      </trkpt>
      <trkpt lat="42.62256" lon="-0.23976">
        <ele>1150.11</ele>
        <time>2024-10-02T09:45:46.999Z</time>
      </trkpt>
      <trkpt lat="42.6226" lon="-0.24042">
        <ele>1147.43</ele>
        <time>2024-10-02T09:45:51.999Z</time>
      </trkpt>
      <trkpt lat="42.62255" lon="-0.2411">
        <ele>1145.13</ele>
        <time>2024-10-02T09:45:56.999Z</time>
      </trkpt>
      <trkpt lat="42.62245" lon="-0.24179">
        <ele>1142.86</ele>
        <time>2024-10-02T09:46:01.999Z</time>
      </trkpt>
      <trkpt lat="42.6225" lon="-0.24248">
        <ele>1140.89</ele>
        <time>2024-10-02T09:46:06.999Z</time>
      </trkpt>
      <trkpt lat="42.62247" lon="-0.24313">
        <ele>1138.71</ele>
        <time>2024-10-02T09:46:11.999Z</time>
      </trkpt>
      <trkpt lat="42.62249" lon="-0.24378">
        <ele>1136.72</ele>
        <time>2024-10-02T09:46:16.999Z</time>
      </trkpt>
      <trkpt lat="42.62247" lon="-0.24441">
        <ele>1134.14</ele>
        <time>2024-10-02T09:46:21.999Z</time>
      </trkpt>
      <trkpt lat="42.62237" lon="-0.24502">
        <ele>1131.41</ele>
        <time>2024-10-02T09:46:26.999Z</time>
      </trkpt>
      <trkpt lat="42.62231" lon="-0.24564">
        <ele>1128.89</ele>
        <time>2024-10-02T09:46:31.999Z</time>
      </trkpt>
      <trkpt lat="42.62228" lon="-0.24627">
        <ele>1126.76</ele>
        <time>2024-10-02T09:46:36.999Z</time>
      </trkpt>
      <trkpt lat="42.62225" lon="-0.24689">
        <ele>1124.87</ele>
        <time>2024-10-02T09:46:41.999Z</time>
      </trkpt>
      <trkpt lat="42.62224" lon="-0.24749">
        <ele>1122.42</ele>
        <time>2024-10-02T09:46:46.999Z</time>
      </trkpt>
      <trkpt lat="42.62225" lon="-0.24808">
        <ele>1119.81</ele>
        <time>2024-10-02T09:46:51.999Z</time>
      </trkpt>
      <trkpt lat="42.62227" lon="-0.24863">
        <ele>1117.33</ele>
        <time>2024-10-02T09:46:56.999Z</time>
      </trkpt>
      <trkpt lat="42.6223" lon="-0.24919">
        <ele>1113.99</ele>
        <time>2024-10-02T09:47:01.999Z</time>
      </trkpt>
      <trkpt lat="42.62229" lon="-0.24973">
        <ele>1110.55</ele>
        <time>2024-10-02T09:47:06.999Z</time>
      </trkpt>
      <trkpt lat="42.62223" lon="-0.25026">
        <ele>1107.87</ele>
        <time>2024-10-02T09:47:11.999Z</time>
      </trkpt>
      <trkpt lat="42.62215" lon="-0.25084">
        <ele>1105.89</ele>
        <time>2024-10-02T09:47:16.999Z</time>
      </trkpt>
      <trkpt lat="42.62207" lon="-0.2514">
        <ele>1104.43</ele>
        <time>2024-10-02T09:47:21.999Z</time>
      </trkpt>
      <trkpt lat="42.62203" lon="-0.25196">
        <ele>1103.43</ele>
        <time>2024-10-02T09:47:26.999Z</time>
      </trkpt>
      <trkpt lat="42.62226" lon="-0.25234">
        <ele>1102.3</ele>
        <time>2024-10-02T09:47:31.999Z</time>
      </trkpt>
      <trkpt lat="42.62257" lon="-0.25254">
        <ele>1100.41</ele>
        <time>2024-10-02T09:47:36.999Z</time>
      </trkpt>
      <trkpt lat="42.62284" lon="-0.25283">
        <ele>1097.98</ele>
        <time>2024-10-02T09:47:41.999Z</time>
      </trkpt>
      <trkpt lat="42.62306" lon="-0.25321">
        <ele>1095.73</ele>
        <time>2024-10-02T09:47:46.999Z</time>
      </trkpt>
      <trkpt lat="42.62327" lon="-0.25359">
        <ele>1093.75</ele>
        <time>2024-10-02T09:47:51.999Z</time>
      </trkpt>
      <trkpt lat="42.62354" lon="-0.25384">
        <ele>1092</ele>
        <time>2024-10-02T09:47:56.999Z</time>
      </trkpt>
      <trkpt lat="42.62386" lon="-0.25393">
        <ele>1090.8</ele>
        <time>2024-10-02T09:48:01.999Z</time>
      </trkpt>
      <trkpt lat="42.624" lon="-0.25434">
        <ele>1089.66</ele>
        <time>2024-10-02T09:48:06.999Z</time>
      </trkpt>
      <trkpt lat="42.62382" lon="-0.25467">
        <ele>1088.74</ele>
        <time>2024-10-02T09:48:11.999Z</time>
      </trkpt>
      <trkpt lat="42.62355" lon="-0.25467">
        <ele>1088.57</ele>
        <time>2024-10-02T09:48:16.999Z</time>
      </trkpt>
      <trkpt lat="42.62337" lon="-0.25462">
        <ele>1088.55</ele>
        <time>2024-10-02T09:48:21.999Z</time>
      </trkpt>
      <trkpt lat="42.6232" lon="-0.25454">
        <ele>1088.67</ele>
        <time>2024-10-02T09:48:26.999Z</time>
      </trkpt>
      <trkpt lat="42.62304" lon="-0.25446">
        <ele>1088.93</ele>
        <time>2024-10-02T09:48:31.999Z</time>
      </trkpt>
      <trkpt lat="42.62289" lon="-0.25438">
        <ele>1089.24</ele>
        <time>2024-10-02T09:48:36.999Z</time>
      </trkpt>
      <trkpt lat="42.62271" lon="-0.2543">
        <ele>1089.9</ele>
        <time>2024-10-02T09:48:41.999Z</time>
      </trkpt>
      <trkpt lat="42.62252" lon="-0.25427">
        <ele>1090.17</ele>
        <time>2024-10-02T09:48:46.999Z</time>
      </trkpt>
      <trkpt lat="42.62234" lon="-0.25432">
        <ele>1090.39</ele>
        <time>2024-10-02T09:48:51.999Z</time>
      </trkpt>
      <trkpt lat="42.62217" lon="-0.25438">
        <ele>1090.64</ele>
        <time>2024-10-02T09:48:56.999Z</time>
      </trkpt>
      <trkpt lat="42.62201" lon="-0.25443">
        <ele>1090.94</ele>
        <time>2024-10-02T09:49:01.999Z</time>
      </trkpt>
      <trkpt lat="42.62187" lon="-0.25451">
        <ele>1091.27</ele>
        <time>2024-10-02T09:49:06.999Z</time>
      </trkpt>
      <trkpt lat="42.62175" lon="-0.2546">
        <ele>1091.61</ele>
        <time>2024-10-02T09:49:11.999Z</time>
      </trkpt>
      <trkpt lat="42.62164" lon="-0.25466">
        <ele>1091.97</ele>
        <time>2024-10-02T09:49:16.999Z</time>
      </trkpt>
      <trkpt lat="42.62152" lon="-0.25471">
        <ele>1092.33</ele>
        <time>2024-10-02T09:49:21.999Z</time>
      </trkpt>
      <trkpt lat="42.6214" lon="-0.25474">
        <ele>1092.68</ele>
        <time>2024-10-02T09:49:26.999Z</time>
      </trkpt>
      <trkpt lat="42.62129" lon="-0.25478">
        <ele>1093.01</ele>
        <time>2024-10-02T09:49:31.999Z</time>
      </trkpt>
      <trkpt lat="42.62119" lon="-0.25485">
        <ele>1093.33</ele>
        <time>2024-10-02T09:49:36.999Z</time>
      </trkpt>
      <trkpt lat="42.62111" lon="-0.25493">
        <ele>1093.64</ele>
        <time>2024-10-02T09:49:41.999Z</time>
      </trkpt>
      <trkpt lat="42.62105" lon="-0.25503">
        <ele>1093.93</ele>
        <time>2024-10-02T09:49:46.999Z</time>
      </trkpt>
      <trkpt lat="42.621" lon="-0.25515">
        <ele>1094.18</ele>
        <time>2024-10-02T09:49:51.999Z</time>
      </trkpt>
      <trkpt lat="42.62098" lon="-0.25529">
        <ele>1094.4</ele>
        <time>2024-10-02T09:49:56.999Z</time>
      </trkpt>
      <trkpt lat="42.62098" lon="-0.25543">
        <ele>1094.62</ele>
        <time>2024-10-02T09:50:01.999Z</time>
      </trkpt>
      <trkpt lat="42.621" lon="-0.25557">
        <ele>1094.83</ele>
        <time>2024-10-02T09:50:06.999Z</time>
      </trkpt>
      <trkpt lat="42.62103" lon="-0.2557">
        <ele>1095.03</ele>
        <time>2024-10-02T09:50:11.999Z</time>
      </trkpt>
      <trkpt lat="42.62107" lon="-0.25583">
        <ele>1095.21</ele>
        <time>2024-10-02T09:50:16.999Z</time>
      </trkpt>
      <trkpt lat="42.62114" lon="-0.25595">
        <ele>1095.38</ele>
        <time>2024-10-02T09:50:21.999Z</time>
      </trkpt>
      <trkpt lat="42.62123" lon="-0.25606">
        <ele>1095.52</ele>
        <time>2024-10-02T09:50:26.999Z</time>
      </trkpt>
      <trkpt lat="42.62132" lon="-0.25617">
        <ele>1095.65</ele>
        <time>2024-10-02T09:50:31.999Z</time>
      </trkpt>
      <trkpt lat="42.62141" lon="-0.2563">
        <ele>1095.77</ele>
        <time>2024-10-02T09:50:36.999Z</time>
      </trkpt>
      <trkpt lat="42.62148" lon="-0.2565">
        <ele>1095.88</ele>
        <time>2024-10-02T09:50:41.999Z</time>
      </trkpt>
      <trkpt lat="42.62149" lon="-0.25672">
        <ele>1095.99</ele>
        <time>2024-10-02T09:50:46.999Z</time>
      </trkpt>
      <trkpt lat="42.62148" lon="-0.25695">
        <ele>1096.09</ele>
        <time>2024-10-02T09:50:51.999Z</time>
      </trkpt>
      <trkpt lat="42.62146" lon="-0.25719">
        <ele>1096.2</ele>
        <time>2024-10-02T09:50:56.999Z</time>
      </trkpt>
      <trkpt lat="42.62145" lon="-0.25744">
        <ele>1096.31</ele>
        <time>2024-10-02T09:51:01.999Z</time>
      </trkpt>
      <trkpt lat="42.62144" lon="-0.25769">
        <ele>1096.43</ele>
        <time>2024-10-02T09:51:06.999Z</time>
      </trkpt>
      <trkpt lat="42.62136" lon="-0.25795">
        <ele>1096.55</ele>
        <time>2024-10-02T09:51:11.999Z</time>
      </trkpt>
      <trkpt lat="42.62133" lon="-0.25816">
        <ele>1096.67</ele>
        <time>2024-10-02T09:51:16.999Z</time>
      </trkpt>
      <trkpt lat="42.62127" lon="-0.25839">
        <ele>1096.98</ele>
        <time>2024-10-02T09:51:21.999Z</time>
      </trkpt>
      <trkpt lat="42.62118" lon="-0.25863">
        <ele>1097.07</ele>
        <time>2024-10-02T09:51:26.999Z</time>
      </trkpt>
      <trkpt lat="42.62107" lon="-0.25884">
        <ele>1097.18</ele>
        <time>2024-10-02T09:51:31.999Z</time>
      </trkpt>
      <trkpt lat="42.62098" lon="-0.25905">
        <ele>1097.29</ele>
        <time>2024-10-02T09:51:36.999Z</time>
      </trkpt>
      <trkpt lat="42.62089" lon="-0.25925">
        <ele>1097.4</ele>
        <time>2024-10-02T09:51:41.999Z</time>
      </trkpt>
      <trkpt lat="42.62082" lon="-0.25943">
        <ele>1097.52</ele>
        <time>2024-10-02T09:51:46.999Z</time>
      </trkpt>
      <trkpt lat="42.62076" lon="-0.25962">
        <ele>1097.64</ele>
        <time>2024-10-02T09:51:51.999Z</time>
      </trkpt>
      <trkpt lat="42.62069" lon="-0.25981">
        <ele>1097.76</ele>
        <time>2024-10-02T09:51:56.999Z</time>
      </trkpt>
      <trkpt lat="42.62062" lon="-0.26001">
        <ele>1097.9</ele>
        <time>2024-10-02T09:52:01.999Z</time>
      </trkpt>
      <trkpt lat="42.62055" lon="-0.26022">
        <ele>1098.04</ele>
        <time>2024-10-02T09:52:06.999Z</time>
      </trkpt>
      <trkpt lat="42.62048" lon="-0.26041">
        <ele>1098.19</ele>
        <time>2024-10-02T09:52:11.999Z</time>
      </trkpt>
      <trkpt lat="42.62042" lon="-0.26061">
        <ele>1098.34</ele>
        <time>2024-10-02T09:52:16.999Z</time>
      </trkpt>
      <trkpt lat="42.62038" lon="-0.26082">
        <ele>1098.5</ele>
        <time>2024-10-02T09:52:21.999Z</time>
      </trkpt>
      <trkpt lat="42.62033" lon="-0.26103">
        <ele>1098.67</ele>
        <time>2024-10-02T09:52:26.999Z</time>
      </trkpt>
      <trkpt lat="42.62029" lon="-0.26126">
        <ele>1098.83</ele>
        <time>2024-10-02T09:52:31.999Z</time>
      </trkpt>
      <trkpt lat="42.62025" lon="-0.2615">
        <ele>1099.47</ele>
        <time>2024-10-02T09:52:36.999Z</time>
      </trkpt>
      <trkpt lat="42.62028" lon="-0.26178">
        <ele>1100.25</ele>
        <time>2024-10-02T09:52:41.999Z</time>
      </trkpt>
      <trkpt lat="42.62034" lon="-0.26202">
        <ele>1100.63</ele>
        <time>2024-10-02T09:52:46.999Z</time>
      </trkpt>
      <trkpt lat="42.62035" lon="-0.26231">
        <ele>1100.85</ele>
        <time>2024-10-02T09:52:51.999Z</time>
      </trkpt>
      <trkpt lat="42.62024" lon="-0.2626">
        <ele>1101.01</ele>
        <time>2024-10-02T09:52:56.999Z</time>
      </trkpt>
      <trkpt lat="42.62011" lon="-0.26284">
        <ele>1101.14</ele>
        <time>2024-10-02T09:53:01.999Z</time>
      </trkpt>
      <trkpt lat="42.62004" lon="-0.26301">
        <ele>1101.17</ele>
        <time>2024-10-02T09:53:06.999Z</time>
      </trkpt>
      <trkpt lat="42.62002" lon="-0.26313">
        <ele>1101.22</ele>
        <time>2024-10-02T09:53:11.999Z</time>
      </trkpt>
      <trkpt lat="42.62002" lon="-0.26326">
        <ele>1101.29</ele>
        <time>2024-10-02T09:53:16.999Z</time>
      </trkpt>
      <trkpt lat="42.62004" lon="-0.26342">
        <ele>1101.37</ele>
        <time>2024-10-02T09:53:21.999Z</time>
      </trkpt>
      <trkpt lat="42.62012" lon="-0.26357">
        <ele>1101.46</ele>
        <time>2024-10-02T09:53:26.999Z</time>
      </trkpt>
      <trkpt lat="42.62025" lon="-0.26365">
        <ele>1101.58</ele>
        <time>2024-10-02T09:53:31.999Z</time>
      </trkpt>
      <trkpt lat="42.6204" lon="-0.26368">
        <ele>1101.71</ele>
        <time>2024-10-02T09:53:36.999Z</time>
      </trkpt>
      <trkpt lat="42.62055" lon="-0.26371">
        <ele>1101.85</ele>
        <time>2024-10-02T09:53:41.999Z</time>
      </trkpt>
      <trkpt lat="42.62074" lon="-0.26389">
        <ele>1102.42</ele>
        <time>2024-10-02T09:53:46.999Z</time>
      </trkpt>
      <trkpt lat="42.62075" lon="-0.26417">
        <ele>1103.36</ele>
        <time>2024-10-02T09:53:51.999Z</time>
      </trkpt>
      <trkpt lat="42.62063" lon="-0.26441">
        <ele>1103.92</ele>
        <time>2024-10-02T09:53:56.999Z</time>
      </trkpt>
      <trkpt lat="42.62046" lon="-0.26461">
        <ele>1104.3</ele>
        <time>2024-10-02T09:54:01.999Z</time>
      </trkpt>
      <trkpt lat="42.62019" lon="-0.2648">
        <ele>1104.55</ele>
        <time>2024-10-02T09:54:06.999Z</time>
      </trkpt>
      <trkpt lat="42.61983" lon="-0.26503">
        <ele>1104.75</ele>
        <time>2024-10-02T09:54:11.999Z</time>
      </trkpt>
      <trkpt lat="42.61954" lon="-0.2655">
        <ele>1104.7</ele>
        <time>2024-10-02T09:54:16.999Z</time>
      </trkpt>
      <trkpt lat="42.6194" lon="-0.26614">
        <ele>1104.53</ele>
        <time>2024-10-02T09:54:21.999Z</time>
      </trkpt>
      <trkpt lat="42.61918" lon="-0.26677">
        <ele>1103.71</ele>
        <time>2024-10-02T09:54:26.999Z</time>
      </trkpt>
      <trkpt lat="42.61901" lon="-0.26739">
        <ele>1101.95</ele>
        <time>2024-10-02T09:54:31.999Z</time>
      </trkpt>
      <trkpt lat="42.61904" lon="-0.26806">
        <ele>1100.27</ele>
        <time>2024-10-02T09:54:36.999Z</time>
      </trkpt>
      <trkpt lat="42.61919" lon="-0.26868">
        <ele>1099.51</ele>
        <time>2024-10-02T09:54:41.999Z</time>
      </trkpt>
      <trkpt lat="42.61928" lon="-0.26927">
        <ele>1098.59</ele>
        <time>2024-10-02T09:54:46.999Z</time>
      </trkpt>
      <trkpt lat="42.61935" lon="-0.26983">
        <ele>1097.49</ele>
        <time>2024-10-02T09:54:51.999Z</time>
      </trkpt>
      <trkpt lat="42.61951" lon="-0.27039">
        <ele>1095.96</ele>
        <time>2024-10-02T09:54:57.000Z</time>
      </trkpt>
      <trkpt lat="42.61971" lon="-0.27086">
        <ele>1094.31</ele>
        <time>2024-10-02T09:55:02.000Z</time>
      </trkpt>
      <trkpt lat="42.62007" lon="-0.27098">
        <ele>1092.55</ele>
        <time>2024-10-02T09:55:07.000Z</time>
      </trkpt>
      <trkpt lat="42.62046" lon="-0.271">
        <ele>1091.32</ele>
        <time>2024-10-02T09:55:12.000Z</time>
      </trkpt>
      <trkpt lat="42.62079" lon="-0.27116">
        <ele>1089.72</ele>
        <time>2024-10-02T09:55:17.000Z</time>
      </trkpt>
      <trkpt lat="42.621" lon="-0.27151">
        <ele>1088.03</ele>
        <time>2024-10-02T09:55:22.000Z</time>
      </trkpt>
      <trkpt lat="42.62115" lon="-0.27187">
        <ele>1086.46</ele>
        <time>2024-10-02T09:55:27.000Z</time>
      </trkpt>
      <trkpt lat="42.62131" lon="-0.27227">
        <ele>1085.56</ele>
        <time>2024-10-02T09:55:32.000Z</time>
      </trkpt>
      <trkpt lat="42.62139" lon="-0.27269">
        <ele>1085.15</ele>
        <time>2024-10-02T09:55:37.000Z</time>
      </trkpt>
      <trkpt lat="42.62131" lon="-0.27296">
        <ele>1084.99</ele>
        <time>2024-10-02T09:55:42.000Z</time>
      </trkpt>
      <trkpt lat="42.62127" lon="-0.27308">
        <ele>1084.92</ele>
        <time>2024-10-02T09:55:47.000Z</time>
      </trkpt>
      <trkpt lat="42.62123" lon="-0.2732">
        <ele>1084.99</ele>
        <time>2024-10-02T09:56:14.000Z</time>
      </trkpt>
      <trkpt lat="42.62032" lon="-0.2749">
        <ele>1084.6</ele>
        <time>2024-10-02T09:56:59.000Z</time>
      </trkpt>
      <trkpt lat="42.62045" lon="-0.27544">
        <ele>1084.6</ele>
        <time>2024-10-02T09:57:04.000Z</time>
      </trkpt>
      <trkpt lat="42.62048" lon="-0.27568">
        <ele>1084.95</ele>
        <time>2024-10-02T09:57:09.000Z</time>
      </trkpt>
      <trkpt lat="42.62052" lon="-0.2759">
        <ele>1085.26</ele>
        <time>2024-10-02T09:57:14.000Z</time>
      </trkpt>
      <trkpt lat="42.62056" lon="-0.27614">
        <ele>1085.47</ele>
        <time>2024-10-02T09:57:19.000Z</time>
      </trkpt>
      <trkpt lat="42.62059" lon="-0.27637">
        <ele>1085.78</ele>
        <time>2024-10-02T09:57:24.000Z</time>
      </trkpt>
      <trkpt lat="42.62059" lon="-0.27663">
        <ele>1085.91</ele>
        <time>2024-10-02T09:57:29.000Z</time>
      </trkpt>
      <trkpt lat="42.62059" lon="-0.27689">
        <ele>1086.06</ele>
        <time>2024-10-02T09:57:34.000Z</time>
      </trkpt>
      <trkpt lat="42.62064" lon="-0.27714">
        <ele>1086.22</ele>
        <time>2024-10-02T09:57:39.000Z</time>
      </trkpt>
      <trkpt lat="42.62073" lon="-0.27736">
        <ele>1086.3</ele>
        <time>2024-10-02T09:57:44.000Z</time>
      </trkpt>
      <trkpt lat="42.62078" lon="-0.27756">
        <ele>1086.34</ele>
        <time>2024-10-02T09:57:49.000Z</time>
      </trkpt>
      <trkpt lat="42.62084" lon="-0.27775">
        <ele>1086.39</ele>
        <time>2024-10-02T09:57:54.000Z</time>
      </trkpt>
      <trkpt lat="42.62087" lon="-0.27793">
        <ele>1086.42</ele>
        <time>2024-10-02T09:57:59.000Z</time>
      </trkpt>
      <trkpt lat="42.62091" lon="-0.27811">
        <ele>1086.45</ele>
        <time>2024-10-02T09:58:04.000Z</time>
      </trkpt>
      <trkpt lat="42.62092" lon="-0.27831">
        <ele>1086.49</ele>
        <time>2024-10-02T09:58:09.000Z</time>
      </trkpt>
      <trkpt lat="42.62093" lon="-0.2785">
        <ele>1086.59</ele>
        <time>2024-10-02T09:58:14.000Z</time>
      </trkpt>
      <trkpt lat="42.62093" lon="-0.27871">
        <ele>1086.77</ele>
        <time>2024-10-02T09:58:19.000Z</time>
      </trkpt>
      <trkpt lat="42.62091" lon="-0.27891">
        <ele>1087</ele>
        <time>2024-10-02T09:58:24.000Z</time>
      </trkpt>
      <trkpt lat="42.62088" lon="-0.2791">
        <ele>1087.26</ele>
        <time>2024-10-02T09:58:29.000Z</time>
      </trkpt>
      <trkpt lat="42.62085" lon="-0.2793">
        <ele>1087.57</ele>
        <time>2024-10-02T09:58:34.000Z</time>
      </trkpt>
      <trkpt lat="42.62082" lon="-0.27949">
        <ele>1087.91</ele>
        <time>2024-10-02T09:58:39.000Z</time>
      </trkpt>
      <trkpt lat="42.62079" lon="-0.27968">
        <ele>1088.23</ele>
        <time>2024-10-02T09:58:44.000Z</time>
      </trkpt>
      <trkpt lat="42.62076" lon="-0.27987">
        <ele>1088.56</ele>
        <time>2024-10-02T09:58:49.000Z</time>
      </trkpt>
      <trkpt lat="42.62073" lon="-0.28005">
        <ele>1088.9</ele>
        <time>2024-10-02T09:58:54.000Z</time>
      </trkpt>
      <trkpt lat="42.62071" lon="-0.28023">
        <ele>1089.23</ele>
        <time>2024-10-02T09:58:59.000Z</time>
      </trkpt>
      <trkpt lat="42.62071" lon="-0.28044">
        <ele>1089.57</ele>
        <time>2024-10-02T09:59:04.000Z</time>
      </trkpt>
      <trkpt lat="42.62075" lon="-0.2807">
        <ele>1090.18</ele>
        <time>2024-10-02T09:59:09.000Z</time>
      </trkpt>
      <trkpt lat="42.62083" lon="-0.28096">
        <ele>1091.31</ele>
        <time>2024-10-02T09:59:14.000Z</time>
      </trkpt>
      <trkpt lat="42.62091" lon="-0.28123">
        <ele>1091.47</ele>
        <time>2024-10-02T09:59:19.000Z</time>
      </trkpt>
      <trkpt lat="42.62094" lon="-0.28155">
        <ele>1091.23</ele>
        <time>2024-10-02T09:59:24.000Z</time>
      </trkpt>
      <trkpt lat="42.62089" lon="-0.28189">
        <ele>1090.95</ele>
        <time>2024-10-02T09:59:29.000Z</time>
      </trkpt>
      <trkpt lat="42.62062" lon="-0.28214">
        <ele>1090.24</ele>
        <time>2024-10-02T09:59:34.000Z</time>
      </trkpt>
      <trkpt lat="42.62032" lon="-0.28225">
        <ele>1089</ele>
        <time>2024-10-02T09:59:39.000Z</time>
      </trkpt>
      <trkpt lat="42.6201" lon="-0.28255">
        <ele>1088.66</ele>
        <time>2024-10-02T09:59:44.000Z</time>
      </trkpt>
      <trkpt lat="42.61994" lon="-0.28303">
        <ele>1089.02</ele>
        <time>2024-10-02T09:59:49.000Z</time>
      </trkpt>
      <trkpt lat="42.61996" lon="-0.28361">
        <ele>1089.31</ele>
        <time>2024-10-02T09:59:54.000Z</time>
      </trkpt>
      <trkpt lat="42.62008" lon="-0.28418">
        <ele>1088.86</ele>
        <time>2024-10-02T09:59:59.000Z</time>
      </trkpt>
      <trkpt lat="42.61988" lon="-0.28467">
        <ele>1085.83</ele>
        <time>2024-10-02T10:00:04.000Z</time>
      </trkpt>
      <trkpt lat="42.61972" lon="-0.28514">
        <ele>1082.37</ele>
        <time>2024-10-02T10:00:09.000Z</time>
      </trkpt>
      <trkpt lat="42.61972" lon="-0.2857">
        <ele>1080.25</ele>
        <time>2024-10-02T10:00:14.000Z</time>
      </trkpt>
      <trkpt lat="42.61962" lon="-0.28628">
        <ele>1077.57</ele>
        <time>2024-10-02T10:00:19.000Z</time>
      </trkpt>
      <trkpt lat="42.61973" lon="-0.28687">
        <ele>1074.8</ele>
        <time>2024-10-02T10:00:24.000Z</time>
      </trkpt>
      <trkpt lat="42.61988" lon="-0.28755">
        <ele>1072.16</ele>
        <time>2024-10-02T10:00:29.000Z</time>
      </trkpt>
      <trkpt lat="42.62006" lon="-0.28826">
        <ele>1069.46</ele>
        <time>2024-10-02T10:00:34.000Z</time>
      </trkpt>
      <trkpt lat="42.6202" lon="-0.28902">
        <ele>1066.82</ele>
        <time>2024-10-02T10:00:39.000Z</time>
      </trkpt>
      <trkpt lat="42.62026" lon="-0.28984">
        <ele>1064.95</ele>
        <time>2024-10-02T10:00:44.000Z</time>
      </trkpt>
      <trkpt lat="42.62025" lon="-0.29067">
        <ele>1063.5</ele>
        <time>2024-10-02T10:00:49.000Z</time>
      </trkpt>
      <trkpt lat="42.62017" lon="-0.29149">
        <ele>1060.26</ele>
        <time>2024-10-02T10:00:54.000Z</time>
      </trkpt>
      <trkpt lat="42.62009" lon="-0.29225">
        <ele>1058.16</ele>
        <time>2024-10-02T10:00:59.000Z</time>
      </trkpt>
      <trkpt lat="42.62012" lon="-0.29298">
        <ele>1055.44</ele>
        <time>2024-10-02T10:01:04.000Z</time>
      </trkpt>
      <trkpt lat="42.62023" lon="-0.29374">
        <ele>1051.87</ele>
        <time>2024-10-02T10:01:09.000Z</time>
      </trkpt>
      <trkpt lat="42.62042" lon="-0.29448">
        <ele>1050</ele>
        <time>2024-10-02T10:01:14.000Z</time>
      </trkpt>
      <trkpt lat="42.62061" lon="-0.29513">
        <ele>1049.04</ele>
        <time>2024-10-02T10:01:19.000Z</time>
      </trkpt>
      <trkpt lat="42.62047" lon="-0.2957">
        <ele>1046.05</ele>
        <time>2024-10-02T10:01:24.000Z</time>
      </trkpt>
      <trkpt lat="42.62025" lon="-0.2963">
        <ele>1042.52</ele>
        <time>2024-10-02T10:01:29.000Z</time>
      </trkpt>
      <trkpt lat="42.62004" lon="-0.29673">
        <ele>1040.57</ele>
        <time>2024-10-02T10:01:34.000Z</time>
      </trkpt>
      <trkpt lat="42.61992" lon="-0.29688">
        <ele>1039.18</ele>
        <time>2024-10-02T10:01:39.000Z</time>
      </trkpt>
      <trkpt lat="42.61981" lon="-0.297">
        <ele>1038.36</ele>
        <time>2024-10-02T10:01:44.000Z</time>
      </trkpt>
      <trkpt lat="42.6197" lon="-0.29716">
        <ele>1037.34</ele>
        <time>2024-10-02T10:01:49.000Z</time>
      </trkpt>
      <trkpt lat="42.61964" lon="-0.29729">
        <ele>1036.17</ele>
        <time>2024-10-02T10:01:54.000Z</time>
      </trkpt>
      <trkpt lat="42.61958" lon="-0.29739">
        <ele>1033.91</ele>
        <time>2024-10-02T10:02:29.000Z</time>
      </trkpt>
      <trkpt lat="42.61953" lon="-0.29752">
        <ele>1031.21</ele>
        <time>2024-10-02T10:02:55.000Z</time>
      </trkpt>
      <trkpt lat="42.61956" lon="-0.29781">
        <ele>1026.49</ele>
        <time>2024-10-02T10:03:00.000Z</time>
      </trkpt>
      <trkpt lat="42.61959" lon="-0.29823">
        <ele>1022.78</ele>
        <time>2024-10-02T10:03:05.000Z</time>
      </trkpt>
      <trkpt lat="42.61971" lon="-0.29869">
        <ele>1021.17</ele>
        <time>2024-10-02T10:03:10.000Z</time>
      </trkpt>
      <trkpt lat="42.61995" lon="-0.29913">
        <ele>1020.22</ele>
        <time>2024-10-02T10:03:15.000Z</time>
      </trkpt>
      <trkpt lat="42.62022" lon="-0.2996">
        <ele>1019.54</ele>
        <time>2024-10-02T10:03:20.000Z</time>
      </trkpt>
      <trkpt lat="42.6205" lon="-0.30012">
        <ele>1018.8</ele>
        <time>2024-10-02T10:03:25.000Z</time>
      </trkpt>
      <trkpt lat="42.62071" lon="-0.30071">
        <ele>1017.97</ele>
        <time>2024-10-02T10:03:30.000Z</time>
      </trkpt>
      <trkpt lat="42.62081" lon="-0.30139">
        <ele>1015.81</ele>
        <time>2024-10-02T10:03:35.000Z</time>
      </trkpt>
      <trkpt lat="42.62086" lon="-0.30211">
        <ele>1011.19</ele>
        <time>2024-10-02T10:03:40.000Z</time>
      </trkpt>
      <trkpt lat="42.62091" lon="-0.30281">
        <ele>1007.21</ele>
        <time>2024-10-02T10:03:45.000Z</time>
      </trkpt>
      <trkpt lat="42.62118" lon="-0.30342">
        <ele>1003.86</ele>
        <time>2024-10-02T10:03:50.000Z</time>
      </trkpt>
      <trkpt lat="42.62151" lon="-0.304">
        <ele>1001.03</ele>
        <time>2024-10-02T10:03:55.000Z</time>
      </trkpt>
      <trkpt lat="42.62183" lon="-0.30457">
        <ele>998.41</ele>
        <time>2024-10-02T10:04:00.000Z</time>
      </trkpt>
      <trkpt lat="42.62215" lon="-0.30501">
        <ele>995.42</ele>
        <time>2024-10-02T10:04:05.000Z</time>
      </trkpt>
      <trkpt lat="42.62239" lon="-0.3055">
        <ele>991.2</ele>
        <time>2024-10-02T10:04:10.000Z</time>
      </trkpt>
      <trkpt lat="42.62255" lon="-0.30595">
        <ele>988.04</ele>
        <time>2024-10-02T10:04:15.000Z</time>
      </trkpt>
      <trkpt lat="42.62283" lon="-0.30626">
        <ele>985.26</ele>
        <time>2024-10-02T10:04:20.000Z</time>
      </trkpt>
      <trkpt lat="42.62315" lon="-0.30657">
        <ele>981.71</ele>
        <time>2024-10-02T10:04:25.000Z</time>
      </trkpt>
      <trkpt lat="42.62345" lon="-0.30698">
        <ele>977.15</ele>
        <time>2024-10-02T10:04:30.000Z</time>
      </trkpt>
      <trkpt lat="42.62377" lon="-0.30738">
        <ele>972.19</ele>
        <time>2024-10-02T10:04:35.000Z</time>
      </trkpt>
      <trkpt lat="42.62401" lon="-0.30789">
        <ele>967.62</ele>
        <time>2024-10-02T10:04:40.000Z</time>
      </trkpt>
      <trkpt lat="42.62438" lon="-0.30821">
        <ele>963.97</ele>
        <time>2024-10-02T10:04:45.000Z</time>
      </trkpt>
      <trkpt lat="42.62481" lon="-0.30849">
        <ele>959.47</ele>
        <time>2024-10-02T10:04:50.000Z</time>
      </trkpt>
      <trkpt lat="42.62523" lon="-0.30892">
        <ele>954.06</ele>
        <time>2024-10-02T10:04:55.000Z</time>
      </trkpt>
      <trkpt lat="42.62567" lon="-0.30936">
        <ele>948.72</ele>
        <time>2024-10-02T10:05:00.000Z</time>
      </trkpt>
      <trkpt lat="42.62605" lon="-0.30994">
        <ele>942.82</ele>
        <time>2024-10-02T10:05:05.000Z</time>
      </trkpt>
      <trkpt lat="42.62651" lon="-0.31045">
        <ele>938.32</ele>
        <time>2024-10-02T10:05:10.000Z</time>
      </trkpt>
      <trkpt lat="42.62689" lon="-0.31106">
        <ele>935.28</ele>
        <time>2024-10-02T10:05:15.000Z</time>
      </trkpt>
      <trkpt lat="42.62733" lon="-0.31136">
        <ele>934.4</ele>
        <time>2024-10-02T10:05:20.000Z</time>
      </trkpt>
      <trkpt lat="42.62782" lon="-0.31158">
        <ele>934</ele>
        <time>2024-10-02T10:05:25.000Z</time>
      </trkpt>
      <trkpt lat="42.62824" lon="-0.31207">
        <ele>932.48</ele>
        <time>2024-10-02T10:05:30.000Z</time>
      </trkpt>
      <trkpt lat="42.62851" lon="-0.31263">
        <ele>929.64</ele>
        <time>2024-10-02T10:05:35.000Z</time>
      </trkpt>
      <trkpt lat="42.62866" lon="-0.31302">
        <ele>926.8</ele>
        <time>2024-10-02T10:05:40.000Z</time>
      </trkpt>
      <trkpt lat="42.62874" lon="-0.31331">
        <ele>925.19</ele>
        <time>2024-10-02T10:05:45.000Z</time>
      </trkpt>
      <trkpt lat="42.6288" lon="-0.31348">
        <ele>924.98</ele>
        <time>2024-10-02T10:05:50.000Z</time>
      </trkpt>
      <trkpt lat="42.6288" lon="-0.31365">
        <ele>924.79</ele>
        <time>2024-10-02T10:06:01.000Z</time>
      </trkpt>
      <trkpt lat="42.6288" lon="-0.31389">
        <ele>924.58</ele>
        <time>2024-10-02T10:06:06.000Z</time>
      </trkpt>
      <trkpt lat="42.62875" lon="-0.314">
        <ele>924.06</ele>
        <time>2024-10-02T10:06:21.000Z</time>
      </trkpt>
      <trkpt lat="42.62883" lon="-0.31398">
        <ele>922.5</ele>
        <time>2024-10-02T10:07:52.999Z</time>
      </trkpt>
      <trkpt lat="42.62892" lon="-0.31398">
        <ele>920.73</ele>
        <time>2024-10-02T10:09:18.999Z</time>
      </trkpt>
      <trkpt lat="42.62885" lon="-0.31392">
        <ele>911.57</ele>
        <time>2024-10-02T10:13:39.999Z</time>
      </trkpt>
      <trkpt lat="42.62876" lon="-0.31392">
        <ele>906.36</ele>
        <time>2024-10-02T10:21:31.000Z</time>
      </trkpt>
      <trkpt lat="42.62884" lon="-0.31399">
        <ele>905.31</ele>
        <time>2024-10-02T10:23:09.000Z</time>
      </trkpt>
      <trkpt lat="42.62895" lon="-0.31415">
        <ele>904.9</ele>
        <time>2024-10-02T10:23:14.000Z</time>
      </trkpt>
      <trkpt lat="42.62905" lon="-0.3145">
        <ele>903.93</ele>
        <time>2024-10-02T10:23:19.000Z</time>
      </trkpt>
      <trkpt lat="42.62928" lon="-0.31495">
        <ele>903.59</ele>
        <time>2024-10-02T10:23:24.000Z</time>
      </trkpt>
      <trkpt lat="42.62952" lon="-0.31541">
        <ele>903.46</ele>
        <time>2024-10-02T10:23:29.000Z</time>
      </trkpt>
      <trkpt lat="42.6296" lon="-0.31587">
        <ele>903.35</ele>
        <time>2024-10-02T10:23:34.000Z</time>
      </trkpt>
      <trkpt lat="42.62961" lon="-0.31634">
        <ele>903.21</ele>
        <time>2024-10-02T10:23:39.000Z</time>
      </trkpt>
      <trkpt lat="42.62963" lon="-0.31679">
        <ele>903.03</ele>
        <time>2024-10-02T10:23:44.000Z</time>
      </trkpt>
      <trkpt lat="42.62961" lon="-0.31713">
        <ele>902.81</ele>
        <time>2024-10-02T10:23:49.000Z</time>
      </trkpt>
      <trkpt lat="42.62958" lon="-0.31729">
        <ele>902.76</ele>
        <time>2024-10-02T10:23:54.000Z</time>
      </trkpt>
      <trkpt lat="42.62955" lon="-0.31742">
        <ele>902.68</ele>
        <time>2024-10-02T10:23:59.000Z</time>
      </trkpt>
      <trkpt lat="42.62951" lon="-0.31753">
        <ele>902.51</ele>
        <time>2024-10-02T10:24:04.000Z</time>
      </trkpt>
      <trkpt lat="42.6294" lon="-0.31772">
        <ele>901.82</ele>
        <time>2024-10-02T10:24:09.000Z</time>
      </trkpt>
      <trkpt lat="42.62927" lon="-0.31798">
        <ele>899.39</ele>
        <time>2024-10-02T10:24:14.000Z</time>
      </trkpt>
      <trkpt lat="42.62916" lon="-0.31823">
        <ele>898.45</ele>
        <time>2024-10-02T10:24:19.000Z</time>
      </trkpt>
      <trkpt lat="42.62903" lon="-0.31851">
        <ele>897.87</ele>
        <time>2024-10-02T10:24:24.000Z</time>
      </trkpt>
      <trkpt lat="42.62896" lon="-0.3188">
        <ele>897.71</ele>
        <time>2024-10-02T10:24:29.000Z</time>
      </trkpt>
      <trkpt lat="42.62886" lon="-0.31902">
        <ele>897.68</ele>
        <time>2024-10-02T10:24:34.000Z</time>
      </trkpt>
      <trkpt lat="42.62882" lon="-0.31917">
        <ele>897.64</ele>
        <time>2024-10-02T10:24:39.000Z</time>
      </trkpt>
      <trkpt lat="42.62877" lon="-0.31941">
        <ele>897.6</ele>
        <time>2024-10-02T10:24:44.000Z</time>
      </trkpt>
      <trkpt lat="42.62878" lon="-0.3196">
        <ele>897.55</ele>
        <time>2024-10-02T10:24:49.000Z</time>
      </trkpt>
      <trkpt lat="42.62878" lon="-0.31973">
        <ele>897.49</ele>
        <time>2024-10-02T10:24:54.000Z</time>
      </trkpt>
      <trkpt lat="42.62873" lon="-0.31983">
        <ele>897.42</ele>
        <time>2024-10-02T10:25:00.000Z</time>
      </trkpt>
      <trkpt lat="42.6287" lon="-0.32005">
        <ele>897.36</ele>
        <time>2024-10-02T10:25:05.000Z</time>
      </trkpt>
      <trkpt lat="42.62871" lon="-0.32029">
        <ele>897.3</ele>
        <time>2024-10-02T10:25:10.000Z</time>
      </trkpt>
      <trkpt lat="42.62867" lon="-0.32043">
        <ele>897.21</ele>
        <time>2024-10-02T10:25:17.000Z</time>
      </trkpt>
      <trkpt lat="42.62867" lon="-0.32057">
        <ele>897.15</ele>
        <time>2024-10-02T10:25:22.000Z</time>
      </trkpt>
      <trkpt lat="42.62865" lon="-0.32073">
        <ele>897.09</ele>
        <time>2024-10-02T10:25:27.000Z</time>
      </trkpt>
      <trkpt lat="42.62865" lon="-0.32092">
        <ele>897.02</ele>
        <time>2024-10-02T10:25:32.000Z</time>
      </trkpt>
      <trkpt lat="42.62868" lon="-0.32105">
        <ele>896.87</ele>
        <time>2024-10-02T10:25:42.000Z</time>
      </trkpt>
      <trkpt lat="42.62869" lon="-0.32119">
        <ele>896.79</ele>
        <time>2024-10-02T10:25:47.000Z</time>
      </trkpt>
      <trkpt lat="42.62871" lon="-0.32136">
        <ele>896.71</ele>
        <time>2024-10-02T10:25:52.000Z</time>
      </trkpt>
      <trkpt lat="42.62873" lon="-0.32149">
        <ele>896.63</ele>
        <time>2024-10-02T10:25:57.000Z</time>
      </trkpt>
      <trkpt lat="42.62874" lon="-0.32162">
        <ele>896.53</ele>
        <time>2024-10-02T10:26:03.000Z</time>
      </trkpt>
      <trkpt lat="42.62876" lon="-0.32175">
        <ele>896.43</ele>
        <time>2024-10-02T10:26:09.000Z</time>
      </trkpt>
      <trkpt lat="42.62875" lon="-0.32162">
        <ele>895.98</ele>
        <time>2024-10-02T10:26:49.000Z</time>
      </trkpt>
      <trkpt lat="42.6287" lon="-0.3215">
        <ele>895.89</ele>
        <time>2024-10-02T10:26:54.000Z</time>
      </trkpt>
      <trkpt lat="42.6287" lon="-0.32137">
        <ele>895.59</ele>
        <time>2024-10-02T10:27:34.000Z</time>
      </trkpt>
      <trkpt lat="42.62868" lon="-0.32125">
        <ele>894.52</ele>
        <time>2024-10-02T10:29:47.000Z</time>
      </trkpt>
      <trkpt lat="42.62874" lon="-0.32136">
        <ele>892.56</ele>
        <time>2024-10-02T11:57:22.000Z</time>
      </trkpt>
      <trkpt lat="42.62884" lon="-0.32136">
        <ele>889.68</ele>
        <time>2024-10-02T11:58:53.000Z</time>
      </trkpt>
      <trkpt lat="42.62875" lon="-0.32138">
        <ele>888.22</ele>
        <time>2024-10-02T12:02:45.000Z</time>
      </trkpt>
      <trkpt lat="42.62879" lon="-0.32151">
        <ele>886.33</ele>
        <time>2024-10-02T12:10:37.999Z</time>
      </trkpt>
      <trkpt lat="42.62881" lon="-0.32164">
        <ele>886.31</ele>
        <time>2024-10-02T12:10:43.999Z</time>
      </trkpt>
      <trkpt lat="42.62882" lon="-0.32181">
        <ele>886.3</ele>
        <time>2024-10-02T12:10:48.999Z</time>
      </trkpt>
      <trkpt lat="42.62883" lon="-0.32195">
        <ele>886.3</ele>
        <time>2024-10-02T12:10:53.999Z</time>
      </trkpt>
      <trkpt lat="42.62888" lon="-0.32207">
        <ele>886.29</ele>
        <time>2024-10-02T12:11:00.999Z</time>
      </trkpt>
      <trkpt lat="42.62898" lon="-0.32216">
        <ele>886.28</ele>
        <time>2024-10-02T12:11:05.999Z</time>
      </trkpt>
      <trkpt lat="42.62906" lon="-0.32224">
        <ele>886.28</ele>
        <time>2024-10-02T12:11:10.999Z</time>
      </trkpt>
      <trkpt lat="42.62914" lon="-0.32231">
        <ele>886.28</ele>
        <time>2024-10-02T12:11:17.999Z</time>
      </trkpt>
      <trkpt lat="42.62924" lon="-0.32232">
        <ele>886.29</ele>
        <time>2024-10-02T12:11:26.999Z</time>
      </trkpt>
      <trkpt lat="42.62934" lon="-0.3223">
        <ele>886.33</ele>
        <time>2024-10-02T12:11:36.999Z</time>
      </trkpt>
      <trkpt lat="42.62944" lon="-0.32233">
        <ele>886.43</ele>
        <time>2024-10-02T12:11:49.999Z</time>
      </trkpt>
      <trkpt lat="42.62953" lon="-0.32236">
        <ele>886.56</ele>
        <time>2024-10-02T12:12:01.999Z</time>
      </trkpt>
      <trkpt lat="42.62955" lon="-0.32249">
        <ele>885.21</ele>
        <time>2024-10-02T12:20:10.000Z</time>
      </trkpt>
      <trkpt lat="42.62947" lon="-0.32243">
        <ele>885.33</ele>
        <time>2024-10-02T12:23:21.000Z</time>
      </trkpt>
      <trkpt lat="42.62955" lon="-0.32246">
        <ele>886.11</ele>
        <time>2024-10-02T12:27:28.000Z</time>
      </trkpt>
      <trkpt lat="42.62965" lon="-0.32243">
        <ele>886.92</ele>
        <time>2024-10-02T12:29:57.000Z</time>
      </trkpt>
      <trkpt lat="42.62973" lon="-0.3225">
        <ele>886.98</ele>
        <time>2024-10-02T12:30:04.000Z</time>
      </trkpt>
      <trkpt lat="42.62981" lon="-0.32256">
        <ele>887.14</ele>
        <time>2024-10-02T12:30:12.000Z</time>
      </trkpt>
      <trkpt lat="42.6299" lon="-0.32261">
        <ele>887.12</ele>
        <time>2024-10-02T12:30:19.000Z</time>
      </trkpt>
      <trkpt lat="42.63" lon="-0.32267">
        <ele>887.04</ele>
        <time>2024-10-02T12:30:27.000Z</time>
      </trkpt>
      <trkpt lat="42.63008" lon="-0.32271">
        <ele>887</ele>
        <time>2024-10-02T12:30:35.000Z</time>
      </trkpt>
      <trkpt lat="42.63017" lon="-0.32276">
        <ele>886.99</ele>
        <time>2024-10-02T12:30:42.000Z</time>
      </trkpt>
      <trkpt lat="42.63027" lon="-0.32279">
        <ele>886.99</ele>
        <time>2024-10-02T12:30:50.000Z</time>
      </trkpt>
      <trkpt lat="42.63036" lon="-0.32279">
        <ele>886.98</ele>
        <time>2024-10-02T12:30:59.000Z</time>
      </trkpt>
      <trkpt lat="42.63046" lon="-0.3228">
        <ele>886.97</ele>
        <time>2024-10-02T12:31:06.000Z</time>
      </trkpt>
      <trkpt lat="42.63055" lon="-0.32282">
        <ele>886.96</ele>
        <time>2024-10-02T12:31:14.000Z</time>
      </trkpt>
      <trkpt lat="42.63064" lon="-0.32284">
        <ele>886.94</ele>
        <time>2024-10-02T12:31:22.000Z</time>
      </trkpt>
      <trkpt lat="42.63073" lon="-0.32286">
        <ele>886.91</ele>
        <time>2024-10-02T12:31:29.000Z</time>
      </trkpt>
      <trkpt lat="42.63082" lon="-0.3229">
        <ele>886.88</ele>
        <time>2024-10-02T12:31:38.000Z</time>
      </trkpt>
      <trkpt lat="42.63091" lon="-0.32293">
        <ele>886.85</ele>
        <time>2024-10-02T12:31:45.000Z</time>
      </trkpt>
      <trkpt lat="42.63099" lon="-0.32301">
        <ele>886.83</ele>
        <time>2024-10-02T12:31:52.000Z</time>
      </trkpt>
      <trkpt lat="42.63108" lon="-0.32306">
        <ele>886.82</ele>
        <time>2024-10-02T12:32:00.000Z</time>
      </trkpt>
      <trkpt lat="42.63117" lon="-0.32311">
        <ele>886.81</ele>
        <time>2024-10-02T12:32:12.999Z</time>
      </trkpt>
      <trkpt lat="42.63116" lon="-0.32323">
        <ele>886.85</ele>
        <time>2024-10-02T12:33:04.999Z</time>
      </trkpt>
      <trkpt lat="42.63113" lon="-0.32337">
        <ele>886.97</ele>
        <time>2024-10-02T12:33:11.999Z</time>
      </trkpt>
      <trkpt lat="42.63105" lon="-0.32358">
        <ele>887.06</ele>
        <time>2024-10-02T12:33:16.999Z</time>
      </trkpt>
      <trkpt lat="42.63097" lon="-0.32386">
        <ele>887.82</ele>
        <time>2024-10-02T12:33:21.999Z</time>
      </trkpt>
      <trkpt lat="42.63088" lon="-0.32412">
        <ele>888.52</ele>
        <time>2024-10-02T12:33:26.999Z</time>
      </trkpt>
      <trkpt lat="42.63079" lon="-0.32439">
        <ele>888.83</ele>
        <time>2024-10-02T12:33:31.999Z</time>
      </trkpt>
      <trkpt lat="42.6307" lon="-0.32467">
        <ele>889.1</ele>
        <time>2024-10-02T12:33:36.999Z</time>
      </trkpt>
      <trkpt lat="42.63061" lon="-0.32496">
        <ele>889.32</ele>
        <time>2024-10-02T12:33:41.999Z</time>
      </trkpt>
      <trkpt lat="42.63053" lon="-0.32524">
        <ele>889.31</ele>
        <time>2024-10-02T12:33:46.999Z</time>
      </trkpt>
      <trkpt lat="42.63044" lon="-0.32554">
        <ele>889.42</ele>
        <time>2024-10-02T12:33:51.999Z</time>
      </trkpt>
      <trkpt lat="42.63034" lon="-0.32585">
        <ele>889.53</ele>
        <time>2024-10-02T12:33:56.999Z</time>
      </trkpt>
      <trkpt lat="42.63024" lon="-0.32616">
        <ele>889.59</ele>
        <time>2024-10-02T12:34:01.999Z</time>
      </trkpt>
      <trkpt lat="42.63013" lon="-0.32646">
        <ele>889.68</ele>
        <time>2024-10-02T12:34:06.999Z</time>
      </trkpt>
      <trkpt lat="42.63006" lon="-0.32677">
        <ele>889.68</ele>
        <time>2024-10-02T12:34:11.999Z</time>
      </trkpt>
      <trkpt lat="42.63011" lon="-0.32704">
        <ele>889.69</ele>
        <time>2024-10-02T12:34:16.999Z</time>
      </trkpt>
      <trkpt lat="42.63021" lon="-0.32717">
        <ele>889.69</ele>
        <time>2024-10-02T12:34:21.999Z</time>
      </trkpt>
      <trkpt lat="42.63032" lon="-0.32727">
        <ele>889.7</ele>
        <time>2024-10-02T12:34:26.999Z</time>
      </trkpt>
      <trkpt lat="42.63044" lon="-0.32736">
        <ele>889.71</ele>
        <time>2024-10-02T12:34:31.999Z</time>
      </trkpt>
      <trkpt lat="42.63055" lon="-0.32745">
        <ele>889.73</ele>
        <time>2024-10-02T12:34:36.999Z</time>
      </trkpt>
      <trkpt lat="42.63066" lon="-0.32755">
        <ele>889.76</ele>
        <time>2024-10-02T12:34:41.999Z</time>
      </trkpt>
      <trkpt lat="42.63076" lon="-0.32765">
        <ele>889.79</ele>
        <time>2024-10-02T12:34:46.999Z</time>
      </trkpt>
      <trkpt lat="42.63088" lon="-0.32774">
        <ele>889.84</ele>
        <time>2024-10-02T12:34:51.999Z</time>
      </trkpt>
      <trkpt lat="42.631" lon="-0.32783">
        <ele>889.89</ele>
        <time>2024-10-02T12:34:56.999Z</time>
      </trkpt>
      <trkpt lat="42.63112" lon="-0.32788">
        <ele>889.93</ele>
        <time>2024-10-02T12:35:01.999Z</time>
      </trkpt>
      <trkpt lat="42.6312" lon="-0.3279">
        <ele>889.97</ele>
        <time>2024-10-02T12:35:06.999Z</time>
      </trkpt>
      <trkpt lat="42.63131" lon="-0.32791">
        <ele>890.03</ele>
        <time>2024-10-02T12:35:12.999Z</time>
      </trkpt>
      <trkpt lat="42.63141" lon="-0.32791">
        <ele>890.08</ele>
        <time>2024-10-02T12:35:17.999Z</time>
      </trkpt>
      <trkpt lat="42.63153" lon="-0.3279">
        <ele>890.13</ele>
        <time>2024-10-02T12:35:22.999Z</time>
      </trkpt>
      <trkpt lat="42.63165" lon="-0.32792">
        <ele>890.17</ele>
        <time>2024-10-02T12:35:27.999Z</time>
      </trkpt>
      <trkpt lat="42.63175" lon="-0.32791">
        <ele>890.22</ele>
        <time>2024-10-02T12:35:32.999Z</time>
      </trkpt>
      <trkpt lat="42.63185" lon="-0.32793">
        <ele>890.28</ele>
        <time>2024-10-02T12:35:38.999Z</time>
      </trkpt>
      <trkpt lat="42.63198" lon="-0.32794">
        <ele>890.32</ele>
        <time>2024-10-02T12:35:43.999Z</time>
      </trkpt>
      <trkpt lat="42.6321" lon="-0.32795">
        <ele>890.37</ele>
        <time>2024-10-02T12:35:48.999Z</time>
      </trkpt>
      <trkpt lat="42.63223" lon="-0.32793">
        <ele>890.42</ele>
        <time>2024-10-02T12:35:53.999Z</time>
      </trkpt>
      <trkpt lat="42.63234" lon="-0.32793">
        <ele>890.47</ele>
        <time>2024-10-02T12:35:58.999Z</time>
      </trkpt>
      <trkpt lat="42.63244" lon="-0.32793">
        <ele>890.53</ele>
        <time>2024-10-02T12:36:03.999Z</time>
      </trkpt>
      <trkpt lat="42.63257" lon="-0.32793">
        <ele>890.58</ele>
        <time>2024-10-02T12:36:08.999Z</time>
      </trkpt>
      <trkpt lat="42.63269" lon="-0.3279">
        <ele>890.63</ele>
        <time>2024-10-02T12:36:13.999Z</time>
      </trkpt>
      <trkpt lat="42.6328" lon="-0.32787">
        <ele>890.69</ele>
        <time>2024-10-02T12:36:18.999Z</time>
      </trkpt>
      <trkpt lat="42.63291" lon="-0.32783">
        <ele>890.76</ele>
        <time>2024-10-02T12:36:23.999Z</time>
      </trkpt>
      <trkpt lat="42.63302" lon="-0.32778">
        <ele>890.84</ele>
        <time>2024-10-02T12:36:28.999Z</time>
      </trkpt>
      <trkpt lat="42.63313" lon="-0.32774">
        <ele>890.92</ele>
        <time>2024-10-02T12:36:33.999Z</time>
      </trkpt>
      <trkpt lat="42.63325" lon="-0.32767">
        <ele>891.02</ele>
        <time>2024-10-02T12:36:38.999Z</time>
      </trkpt>
      <trkpt lat="42.63336" lon="-0.32762">
        <ele>891.12</ele>
        <time>2024-10-02T12:36:43.999Z</time>
      </trkpt>
      <trkpt lat="42.63347" lon="-0.32755">
        <ele>891.22</ele>
        <time>2024-10-02T12:36:48.999Z</time>
      </trkpt>
      <trkpt lat="42.63358" lon="-0.32748">
        <ele>891.33</ele>
        <time>2024-10-02T12:36:53.999Z</time>
      </trkpt>
      <trkpt lat="42.6337" lon="-0.32742">
        <ele>891.46</ele>
        <time>2024-10-02T12:36:58.999Z</time>
      </trkpt>
      <trkpt lat="42.63381" lon="-0.32736">
        <ele>891.59</ele>
        <time>2024-10-02T12:37:03.999Z</time>
      </trkpt>
      <trkpt lat="42.63392" lon="-0.32729">
        <ele>891.73</ele>
        <time>2024-10-02T12:37:08.999Z</time>
      </trkpt>
      <trkpt lat="42.63402" lon="-0.32726">
        <ele>891.88</ele>
        <time>2024-10-02T12:37:13.999Z</time>
      </trkpt>
      <trkpt lat="42.63411" lon="-0.32724">
        <ele>892.02</ele>
        <time>2024-10-02T12:37:18.999Z</time>
      </trkpt>
      <trkpt lat="42.6342" lon="-0.32723">
        <ele>892.17</ele>
        <time>2024-10-02T12:37:23.999Z</time>
      </trkpt>
      <trkpt lat="42.63431" lon="-0.32723">
        <ele>892.32</ele>
        <time>2024-10-02T12:37:28.999Z</time>
      </trkpt>
      <trkpt lat="42.6344" lon="-0.32725">
        <ele>892.47</ele>
        <time>2024-10-02T12:37:33.999Z</time>
      </trkpt>
      <trkpt lat="42.6345" lon="-0.32727">
        <ele>892.67</ele>
        <time>2024-10-02T12:37:40.999Z</time>
      </trkpt>
      <trkpt lat="42.63462" lon="-0.32728">
        <ele>892.82</ele>
        <time>2024-10-02T12:37:45.999Z</time>
      </trkpt>
      <trkpt lat="42.63471" lon="-0.32732">
        <ele>893</ele>
        <time>2024-10-02T12:37:51.999Z</time>
      </trkpt>
      <trkpt lat="42.63483" lon="-0.32734">
        <ele>893.15</ele>
        <time>2024-10-02T12:37:56.999Z</time>
      </trkpt>
      <trkpt lat="42.63498" lon="-0.32737">
        <ele>893.31</ele>
        <time>2024-10-02T12:38:01.999Z</time>
      </trkpt>
      <trkpt lat="42.6351" lon="-0.32736">
        <ele>893.47</ele>
        <time>2024-10-02T12:38:06.999Z</time>
      </trkpt>
      <trkpt lat="42.63519" lon="-0.32733">
        <ele>893.65</ele>
        <time>2024-10-02T12:38:11.999Z</time>
      </trkpt>
      <trkpt lat="42.63533" lon="-0.32731">
        <ele>893.82</ele>
        <time>2024-10-02T12:38:16.999Z</time>
      </trkpt>
      <trkpt lat="42.63543" lon="-0.3273">
        <ele>894.03</ele>
        <time>2024-10-02T12:38:21.999Z</time>
      </trkpt>
      <trkpt lat="42.63554" lon="-0.3273">
        <ele>894.27</ele>
        <time>2024-10-02T12:38:26.999Z</time>
      </trkpt>
      <trkpt lat="42.63563" lon="-0.32726">
        <ele>894.54</ele>
        <time>2024-10-02T12:38:31.999Z</time>
      </trkpt>
      <trkpt lat="42.63571" lon="-0.32718">
        <ele>894.87</ele>
        <time>2024-10-02T12:38:36.999Z</time>
      </trkpt>
      <trkpt lat="42.63579" lon="-0.32711">
        <ele>895.25</ele>
        <time>2024-10-02T12:38:41.999Z</time>
      </trkpt>
      <trkpt lat="42.63588" lon="-0.32701">
        <ele>895.68</ele>
        <time>2024-10-02T12:38:46.999Z</time>
      </trkpt>
      <trkpt lat="42.63596" lon="-0.32692">
        <ele>896.16</ele>
        <time>2024-10-02T12:38:51.999Z</time>
      </trkpt>
      <trkpt lat="42.63604" lon="-0.32683">
        <ele>896.68</ele>
        <time>2024-10-02T12:38:56.999Z</time>
      </trkpt>
      <trkpt lat="42.63612" lon="-0.32672">
        <ele>897.24</ele>
        <time>2024-10-02T12:39:01.999Z</time>
      </trkpt>
      <trkpt lat="42.6362" lon="-0.32664">
        <ele>897.82</ele>
        <time>2024-10-02T12:39:06.999Z</time>
      </trkpt>
      <trkpt lat="42.63627" lon="-0.32654">
        <ele>898.43</ele>
        <time>2024-10-02T12:39:11.999Z</time>
      </trkpt>
      <trkpt lat="42.63636" lon="-0.32645">
        <ele>899.04</ele>
        <time>2024-10-02T12:39:16.999Z</time>
      </trkpt>
      <trkpt lat="42.63645" lon="-0.32636">
        <ele>899.67</ele>
        <time>2024-10-02T12:39:21.999Z</time>
      </trkpt>
      <trkpt lat="42.63657" lon="-0.32629">
        <ele>900.32</ele>
        <time>2024-10-02T12:39:26.999Z</time>
      </trkpt>
      <trkpt lat="42.63668" lon="-0.32623">
        <ele>900.99</ele>
        <time>2024-10-02T12:39:31.999Z</time>
      </trkpt>
      <trkpt lat="42.63679" lon="-0.32619">
        <ele>901.66</ele>
        <time>2024-10-02T12:39:36.999Z</time>
      </trkpt>
      <trkpt lat="42.6369" lon="-0.32615">
        <ele>902.32</ele>
        <time>2024-10-02T12:39:41.999Z</time>
      </trkpt>
      <trkpt lat="42.63701" lon="-0.32612">
        <ele>902.95</ele>
        <time>2024-10-02T12:39:46.999Z</time>
      </trkpt>
      <trkpt lat="42.63712" lon="-0.3261">
        <ele>903.56</ele>
        <time>2024-10-02T12:39:51.999Z</time>
      </trkpt>
      <trkpt lat="42.63727" lon="-0.32609">
        <ele>904.14</ele>
        <time>2024-10-02T12:39:56.999Z</time>
      </trkpt>
      <trkpt lat="42.63738" lon="-0.3261">
        <ele>904.67</ele>
        <time>2024-10-02T12:40:01.999Z</time>
      </trkpt>
      <trkpt lat="42.63751" lon="-0.3261">
        <ele>905.16</ele>
        <time>2024-10-02T12:40:06.999Z</time>
      </trkpt>
      <trkpt lat="42.63766" lon="-0.32609">
        <ele>905.65</ele>
        <time>2024-10-02T12:40:11.999Z</time>
      </trkpt>
      <trkpt lat="42.63781" lon="-0.32608">
        <ele>906.14</ele>
        <time>2024-10-02T12:40:16.999Z</time>
      </trkpt>
      <trkpt lat="42.63794" lon="-0.32607">
        <ele>906.65</ele>
        <time>2024-10-02T12:40:21.999Z</time>
      </trkpt>
      <trkpt lat="42.63808" lon="-0.32605">
        <ele>907.17</ele>
        <time>2024-10-02T12:40:26.999Z</time>
      </trkpt>
      <trkpt lat="42.63818" lon="-0.32601">
        <ele>907.72</ele>
        <time>2024-10-02T12:40:31.999Z</time>
      </trkpt>
      <trkpt lat="42.63833" lon="-0.32596">
        <ele>908.28</ele>
        <time>2024-10-02T12:40:36.999Z</time>
      </trkpt>
      <trkpt lat="42.63848" lon="-0.32593">
        <ele>908.86</ele>
        <time>2024-10-02T12:40:41.999Z</time>
      </trkpt>
      <trkpt lat="42.63863" lon="-0.32588">
        <ele>909.46</ele>
        <time>2024-10-02T12:40:46.999Z</time>
      </trkpt>
      <trkpt lat="42.63877" lon="-0.32581">
        <ele>910.11</ele>
        <time>2024-10-02T12:40:51.999Z</time>
      </trkpt>
      <trkpt lat="42.6389" lon="-0.32574">
        <ele>910.8</ele>
        <time>2024-10-02T12:40:56.999Z</time>
      </trkpt>
      <trkpt lat="42.63903" lon="-0.32566">
        <ele>911.52</ele>
        <time>2024-10-02T12:41:01.999Z</time>
      </trkpt>
      <trkpt lat="42.63917" lon="-0.32558">
        <ele>912.26</ele>
        <time>2024-10-02T12:41:06.999Z</time>
      </trkpt>
      <trkpt lat="42.6393" lon="-0.32549">
        <ele>913.04</ele>
        <time>2024-10-02T12:41:11.999Z</time>
      </trkpt>
      <trkpt lat="42.63943" lon="-0.32541">
        <ele>913.84</ele>
        <time>2024-10-02T12:41:16.999Z</time>
      </trkpt>
      <trkpt lat="42.63956" lon="-0.32535">
        <ele>914.65</ele>
        <time>2024-10-02T12:41:21.999Z</time>
      </trkpt>
      <trkpt lat="42.63972" lon="-0.32528">
        <ele>915.54</ele>
        <time>2024-10-02T12:41:26.999Z</time>
      </trkpt>
      <trkpt lat="42.63987" lon="-0.3252">
        <ele>916.53</ele>
        <time>2024-10-02T12:41:31.999Z</time>
      </trkpt>
      <trkpt lat="42.64" lon="-0.32512">
        <ele>917.6</ele>
        <time>2024-10-02T12:41:36.999Z</time>
      </trkpt>
      <trkpt lat="42.64013" lon="-0.32502">
        <ele>918.7</ele>
        <time>2024-10-02T12:41:41.999Z</time>
      </trkpt>
      <trkpt lat="42.64025" lon="-0.32491">
        <ele>919.79</ele>
        <time>2024-10-02T12:41:46.999Z</time>
      </trkpt>
      <trkpt lat="42.64037" lon="-0.32481">
        <ele>920.85</ele>
        <time>2024-10-02T12:41:51.999Z</time>
      </trkpt>
      <trkpt lat="42.64049" lon="-0.32468">
        <ele>921.86</ele>
        <time>2024-10-02T12:41:56.999Z</time>
      </trkpt>
      <trkpt lat="42.64059" lon="-0.32455">
        <ele>922.82</ele>
        <time>2024-10-02T12:42:01.999Z</time>
      </trkpt>
      <trkpt lat="42.64068" lon="-0.32443">
        <ele>923.74</ele>
        <time>2024-10-02T12:42:06.999Z</time>
      </trkpt>
      <trkpt lat="42.64078" lon="-0.32431">
        <ele>924.64</ele>
        <time>2024-10-02T12:42:11.999Z</time>
      </trkpt>
      <trkpt lat="42.64089" lon="-0.32418">
        <ele>925.51</ele>
        <time>2024-10-02T12:42:16.999Z</time>
      </trkpt>
      <trkpt lat="42.64099" lon="-0.32404">
        <ele>926.36</ele>
        <time>2024-10-02T12:42:21.999Z</time>
      </trkpt>
      <trkpt lat="42.6411" lon="-0.32394">
        <ele>927.18</ele>
        <time>2024-10-02T12:42:26.999Z</time>
      </trkpt>
      <trkpt lat="42.64122" lon="-0.32384">
        <ele>927.97</ele>
        <time>2024-10-02T12:42:31.999Z</time>
      </trkpt>
      <trkpt lat="42.64134" lon="-0.32376">
        <ele>928.73</ele>
        <time>2024-10-02T12:42:36.999Z</time>
      </trkpt>
      <trkpt lat="42.64147" lon="-0.3237">
        <ele>929.47</ele>
        <time>2024-10-02T12:42:41.999Z</time>
      </trkpt>
      <trkpt lat="42.64163" lon="-0.32369">
        <ele>930.19</ele>
        <time>2024-10-02T12:42:46.999Z</time>
      </trkpt>
      <trkpt lat="42.64179" lon="-0.32369">
        <ele>930.86</ele>
        <time>2024-10-02T12:42:51.999Z</time>
      </trkpt>
      <trkpt lat="42.64197" lon="-0.3237">
        <ele>931.49</ele>
        <time>2024-10-02T12:42:56.999Z</time>
      </trkpt>
      <trkpt lat="42.64214" lon="-0.32373">
        <ele>932.08</ele>
        <time>2024-10-02T12:43:01.999Z</time>
      </trkpt>
      <trkpt lat="42.6423" lon="-0.32378">
        <ele>933.52</ele>
        <time>2024-10-02T12:43:06.999Z</time>
      </trkpt>
      <trkpt lat="42.64246" lon="-0.32385">
        <ele>934.01</ele>
        <time>2024-10-02T12:43:11.999Z</time>
      </trkpt>
      <trkpt lat="42.64262" lon="-0.32393">
        <ele>935.71</ele>
        <time>2024-10-02T12:43:16.999Z</time>
      </trkpt>
      <trkpt lat="42.6428" lon="-0.32402">
        <ele>936.04</ele>
        <time>2024-10-02T12:43:21.999Z</time>
      </trkpt>
      <trkpt lat="42.64298" lon="-0.3241">
        <ele>936.8</ele>
        <time>2024-10-02T12:43:26.999Z</time>
      </trkpt>
      <trkpt lat="42.64315" lon="-0.32415">
        <ele>937.02</ele>
        <time>2024-10-02T12:43:31.999Z</time>
      </trkpt>
      <trkpt lat="42.64333" lon="-0.32417">
        <ele>937.22</ele>
        <time>2024-10-02T12:43:36.999Z</time>
      </trkpt>
      <trkpt lat="42.64352" lon="-0.32415">
        <ele>937.35</ele>
        <time>2024-10-02T12:43:41.999Z</time>
      </trkpt>
      <trkpt lat="42.64369" lon="-0.3241">
        <ele>937.48</ele>
        <time>2024-10-02T12:43:46.999Z</time>
      </trkpt>
      <trkpt lat="42.64385" lon="-0.32404">
        <ele>937.63</ele>
        <time>2024-10-02T12:43:51.999Z</time>
      </trkpt>
      <trkpt lat="42.64404" lon="-0.324">
        <ele>938</ele>
        <time>2024-10-02T12:43:56.999Z</time>
      </trkpt>
      <trkpt lat="42.64423" lon="-0.32395">
        <ele>938.08</ele>
        <time>2024-10-02T12:44:01.999Z</time>
      </trkpt>
      <trkpt lat="42.6444" lon="-0.32391">
        <ele>938.27</ele>
        <time>2024-10-02T12:44:06.999Z</time>
      </trkpt>
      <trkpt lat="42.64459" lon="-0.32385">
        <ele>938.38</ele>
        <time>2024-10-02T12:44:11.999Z</time>
      </trkpt>
      <trkpt lat="42.64475" lon="-0.32375">
        <ele>938.49</ele>
        <time>2024-10-02T12:44:17.000Z</time>
      </trkpt>
      <trkpt lat="42.64492" lon="-0.32367">
        <ele>938.61</ele>
        <time>2024-10-02T12:44:22.000Z</time>
      </trkpt>
      <trkpt lat="42.64507" lon="-0.32357">
        <ele>938.73</ele>
        <time>2024-10-02T12:44:27.000Z</time>
      </trkpt>
      <trkpt lat="42.64524" lon="-0.32346">
        <ele>938.82</ele>
        <time>2024-10-02T12:44:32.000Z</time>
      </trkpt>
      <trkpt lat="42.64539" lon="-0.32332">
        <ele>938.69</ele>
        <time>2024-10-02T12:44:37.000Z</time>
      </trkpt>
      <trkpt lat="42.64553" lon="-0.32313">
        <ele>937.72</ele>
        <time>2024-10-02T12:44:42.000Z</time>
      </trkpt>
      <trkpt lat="42.64565" lon="-0.32296">
        <ele>937.53</ele>
        <time>2024-10-02T12:44:47.000Z</time>
      </trkpt>
      <trkpt lat="42.64579" lon="-0.32276">
        <ele>937.21</ele>
        <time>2024-10-02T12:44:52.000Z</time>
      </trkpt>
      <trkpt lat="42.64594" lon="-0.32253">
        <ele>937.41</ele>
        <time>2024-10-02T12:44:57.000Z</time>
      </trkpt>
      <trkpt lat="42.64607" lon="-0.32232">
        <ele>937.46</ele>
        <time>2024-10-02T12:45:02.000Z</time>
      </trkpt>
      <trkpt lat="42.64628" lon="-0.32212">
        <ele>937.02</ele>
        <time>2024-10-02T12:45:07.000Z</time>
      </trkpt>
      <trkpt lat="42.6465" lon="-0.32195">
        <ele>937.61</ele>
        <time>2024-10-02T12:45:12.000Z</time>
      </trkpt>
      <trkpt lat="42.64672" lon="-0.32182">
        <ele>940.18</ele>
        <time>2024-10-02T12:45:17.000Z</time>
      </trkpt>
      <trkpt lat="42.64693" lon="-0.32171">
        <ele>943.17</ele>
        <time>2024-10-02T12:45:22.000Z</time>
      </trkpt>
      <trkpt lat="42.64713" lon="-0.32159">
        <ele>946.01</ele>
        <time>2024-10-02T12:45:27.000Z</time>
      </trkpt>
      <trkpt lat="42.64731" lon="-0.32146">
        <ele>947.82</ele>
        <time>2024-10-02T12:45:32.000Z</time>
      </trkpt>
      <trkpt lat="42.64747" lon="-0.3213">
        <ele>948.25</ele>
        <time>2024-10-02T12:45:37.000Z</time>
      </trkpt>
      <trkpt lat="42.64761" lon="-0.32116">
        <ele>948.58</ele>
        <time>2024-10-02T12:45:42.000Z</time>
      </trkpt>
      <trkpt lat="42.64775" lon="-0.32102">
        <ele>949.63</ele>
        <time>2024-10-02T12:45:47.000Z</time>
      </trkpt>
      <trkpt lat="42.64789" lon="-0.32087">
        <ele>949.98</ele>
        <time>2024-10-02T12:45:52.000Z</time>
      </trkpt>
      <trkpt lat="42.64801" lon="-0.32071">
        <ele>950.25</ele>
        <time>2024-10-02T12:45:57.000Z</time>
      </trkpt>
      <trkpt lat="42.64815" lon="-0.32053">
        <ele>950.43</ele>
        <time>2024-10-02T12:46:02.000Z</time>
      </trkpt>
      <trkpt lat="42.64829" lon="-0.32037">
        <ele>950.64</ele>
        <time>2024-10-02T12:46:07.000Z</time>
      </trkpt>
      <trkpt lat="42.64841" lon="-0.32024">
        <ele>951.01</ele>
        <time>2024-10-02T12:46:12.000Z</time>
      </trkpt>
      <trkpt lat="42.64856" lon="-0.32011">
        <ele>951.5</ele>
        <time>2024-10-02T12:46:17.000Z</time>
      </trkpt>
      <trkpt lat="42.64871" lon="-0.31999">
        <ele>952.11</ele>
        <time>2024-10-02T12:46:22.000Z</time>
      </trkpt>
      <trkpt lat="42.64887" lon="-0.31989">
        <ele>952.78</ele>
        <time>2024-10-02T12:46:27.000Z</time>
      </trkpt>
      <trkpt lat="42.64902" lon="-0.31979">
        <ele>953.43</ele>
        <time>2024-10-02T12:46:32.000Z</time>
      </trkpt>
      <trkpt lat="42.64918" lon="-0.3197">
        <ele>954.08</ele>
        <time>2024-10-02T12:46:37.000Z</time>
      </trkpt>
      <trkpt lat="42.64933" lon="-0.31961">
        <ele>954.75</ele>
        <time>2024-10-02T12:46:42.000Z</time>
      </trkpt>
      <trkpt lat="42.64949" lon="-0.31951">
        <ele>955.36</ele>
        <time>2024-10-02T12:46:47.000Z</time>
      </trkpt>
      <trkpt lat="42.64966" lon="-0.31942">
        <ele>955.92</ele>
        <time>2024-10-02T12:46:52.000Z</time>
      </trkpt>
      <trkpt lat="42.64982" lon="-0.31932">
        <ele>956.45</ele>
        <time>2024-10-02T12:46:57.000Z</time>
      </trkpt>
      <trkpt lat="42.64997" lon="-0.31923">
        <ele>956.97</ele>
        <time>2024-10-02T12:47:02.000Z</time>
      </trkpt>
      <trkpt lat="42.65012" lon="-0.31914">
        <ele>957.48</ele>
        <time>2024-10-02T12:47:07.000Z</time>
      </trkpt>
      <trkpt lat="42.65028" lon="-0.31907">
        <ele>957.95</ele>
        <time>2024-10-02T12:47:12.000Z</time>
      </trkpt>
      <trkpt lat="42.65044" lon="-0.31901">
        <ele>958.38</ele>
        <time>2024-10-02T12:47:17.000Z</time>
      </trkpt>
      <trkpt lat="42.6506" lon="-0.31899">
        <ele>958.79</ele>
        <time>2024-10-02T12:47:22.000Z</time>
      </trkpt>
      <trkpt lat="42.65075" lon="-0.31902">
        <ele>959.21</ele>
        <time>2024-10-02T12:47:27.000Z</time>
      </trkpt>
      <trkpt lat="42.65088" lon="-0.31904">
        <ele>959.68</ele>
        <time>2024-10-02T12:47:32.000Z</time>
      </trkpt>
      <trkpt lat="42.65102" lon="-0.3191">
        <ele>960.19</ele>
        <time>2024-10-02T12:47:37.000Z</time>
      </trkpt>
      <trkpt lat="42.65114" lon="-0.3192">
        <ele>960.58</ele>
        <time>2024-10-02T12:47:42.000Z</time>
      </trkpt>
      <trkpt lat="42.65127" lon="-0.31929">
        <ele>960.93</ele>
        <time>2024-10-02T12:47:47.000Z</time>
      </trkpt>
      <trkpt lat="42.6514" lon="-0.31938">
        <ele>961.21</ele>
        <time>2024-10-02T12:47:52.000Z</time>
      </trkpt>
      <trkpt lat="42.65153" lon="-0.31948">
        <ele>961.46</ele>
        <time>2024-10-02T12:47:57.000Z</time>
      </trkpt>
      <trkpt lat="42.65167" lon="-0.31958">
        <ele>961.7</ele>
        <time>2024-10-02T12:48:02.000Z</time>
      </trkpt>
      <trkpt lat="42.6518" lon="-0.3197">
        <ele>961.98</ele>
        <time>2024-10-02T12:48:07.000Z</time>
      </trkpt>
      <trkpt lat="42.65191" lon="-0.31976">
        <ele>962.32</ele>
        <time>2024-10-02T12:48:12.000Z</time>
      </trkpt>
      <trkpt lat="42.65206" lon="-0.31981">
        <ele>962.66</ele>
        <time>2024-10-02T12:48:17.000Z</time>
      </trkpt>
      <trkpt lat="42.65219" lon="-0.31981">
        <ele>963.02</ele>
        <time>2024-10-02T12:48:22.000Z</time>
      </trkpt>
      <trkpt lat="42.65231" lon="-0.31983">
        <ele>963.36</ele>
        <time>2024-10-02T12:48:27.000Z</time>
      </trkpt>
      <trkpt lat="42.65245" lon="-0.31983">
        <ele>963.66</ele>
        <time>2024-10-02T12:48:32.000Z</time>
      </trkpt>
      <trkpt lat="42.65262" lon="-0.31982">
        <ele>964.19</ele>
        <time>2024-10-02T12:48:37.000Z</time>
      </trkpt>
      <trkpt lat="42.65275" lon="-0.31982">
        <ele>965.06</ele>
        <time>2024-10-02T12:48:42.000Z</time>
      </trkpt>
      <trkpt lat="42.65287" lon="-0.31983">
        <ele>965.86</ele>
        <time>2024-10-02T12:48:47.000Z</time>
      </trkpt>
      <trkpt lat="42.65305" lon="-0.31984">
        <ele>966.51</ele>
        <time>2024-10-02T12:48:52.000Z</time>
      </trkpt>
      <trkpt lat="42.65318" lon="-0.31985">
        <ele>967.3</ele>
        <time>2024-10-02T12:48:57.000Z</time>
      </trkpt>
      <trkpt lat="42.65331" lon="-0.31987">
        <ele>968.23</ele>
        <time>2024-10-02T12:49:02.000Z</time>
      </trkpt>
      <trkpt lat="42.65345" lon="-0.31988">
        <ele>969.23</ele>
        <time>2024-10-02T12:49:07.000Z</time>
      </trkpt>
      <trkpt lat="42.65356" lon="-0.3199">
        <ele>970.26</ele>
        <time>2024-10-02T12:49:12.000Z</time>
      </trkpt>
      <trkpt lat="42.6537" lon="-0.3199">
        <ele>971.2</ele>
        <time>2024-10-02T12:49:17.000Z</time>
      </trkpt>
      <trkpt lat="42.65388" lon="-0.31987">
        <ele>972.11</ele>
        <time>2024-10-02T12:49:22.000Z</time>
      </trkpt>
      <trkpt lat="42.65408" lon="-0.31985">
        <ele>973.03</ele>
        <time>2024-10-02T12:49:27.000Z</time>
      </trkpt>
      <trkpt lat="42.65427" lon="-0.31984">
        <ele>973.73</ele>
        <time>2024-10-02T12:49:32.000Z</time>
      </trkpt>
      <trkpt lat="42.65447" lon="-0.31979">
        <ele>975.65</ele>
        <time>2024-10-02T12:49:37.000Z</time>
      </trkpt>
      <trkpt lat="42.65467" lon="-0.31974">
        <ele>978.15</ele>
        <time>2024-10-02T12:49:42.000Z</time>
      </trkpt>
      <trkpt lat="42.6549" lon="-0.31966">
        <ele>980.53</ele>
        <time>2024-10-02T12:49:47.000Z</time>
      </trkpt>
      <trkpt lat="42.6551" lon="-0.31959">
        <ele>981.84</ele>
        <time>2024-10-02T12:49:52.000Z</time>
      </trkpt>
      <trkpt lat="42.65532" lon="-0.31953">
        <ele>982.56</ele>
        <time>2024-10-02T12:49:57.000Z</time>
      </trkpt>
      <trkpt lat="42.65556" lon="-0.31949">
        <ele>982.76</ele>
        <time>2024-10-02T12:50:02.000Z</time>
      </trkpt>
      <trkpt lat="42.65579" lon="-0.3195">
        <ele>982.95</ele>
        <time>2024-10-02T12:50:07.000Z</time>
      </trkpt>
      <trkpt lat="42.65602" lon="-0.31951">
        <ele>983.15</ele>
        <time>2024-10-02T12:50:12.000Z</time>
      </trkpt>
      <trkpt lat="42.65623" lon="-0.31958">
        <ele>983.48</ele>
        <time>2024-10-02T12:50:17.000Z</time>
      </trkpt>
      <trkpt lat="42.65644" lon="-0.31968">
        <ele>983.69</ele>
        <time>2024-10-02T12:50:22.000Z</time>
      </trkpt>
      <trkpt lat="42.65668" lon="-0.31981">
        <ele>983.93</ele>
        <time>2024-10-02T12:50:27.000Z</time>
      </trkpt>
      <trkpt lat="42.6569" lon="-0.31995">
        <ele>983.93</ele>
        <time>2024-10-02T12:50:32.000Z</time>
      </trkpt>
      <trkpt lat="42.65708" lon="-0.3201">
        <ele>983.87</ele>
        <time>2024-10-02T12:50:37.000Z</time>
      </trkpt>
      <trkpt lat="42.65721" lon="-0.32028">
        <ele>983.91</ele>
        <time>2024-10-02T12:50:42.000Z</time>
      </trkpt>
      <trkpt lat="42.65731" lon="-0.32043">
        <ele>983.95</ele>
        <time>2024-10-02T12:50:47.000Z</time>
      </trkpt>
      <trkpt lat="42.65741" lon="-0.32062">
        <ele>983.95</ele>
        <time>2024-10-02T12:50:52.000Z</time>
      </trkpt>
      <trkpt lat="42.65752" lon="-0.32079">
        <ele>983.9</ele>
        <time>2024-10-02T12:50:57.000Z</time>
      </trkpt>
      <trkpt lat="42.6576" lon="-0.32099">
        <ele>983.81</ele>
        <time>2024-10-02T12:51:02.000Z</time>
      </trkpt>
      <trkpt lat="42.65757" lon="-0.32126">
        <ele>983.69</ele>
        <time>2024-10-02T12:51:07.000Z</time>
      </trkpt>
      <trkpt lat="42.65739" lon="-0.32179">
        <ele>983.59</ele>
        <time>2024-10-02T12:51:12.000Z</time>
      </trkpt>
      <trkpt lat="42.65743" lon="-0.32205">
        <ele>983.6</ele>
        <time>2024-10-02T12:51:17.000Z</time>
      </trkpt>
      <trkpt lat="42.65754" lon="-0.32227">
        <ele>983.66</ele>
        <time>2024-10-02T12:51:22.000Z</time>
      </trkpt>
      <trkpt lat="42.65762" lon="-0.32244">
        <ele>983.46</ele>
        <time>2024-10-02T12:51:27.000Z</time>
      </trkpt>
      <trkpt lat="42.65771" lon="-0.32262">
        <ele>982.92</ele>
        <time>2024-10-02T12:51:32.000Z</time>
      </trkpt>
      <trkpt lat="42.6578" lon="-0.32276">
        <ele>982.41</ele>
        <time>2024-10-02T12:51:37.000Z</time>
      </trkpt>
      <trkpt lat="42.65786" lon="-0.32291">
        <ele>982.11</ele>
        <time>2024-10-02T12:51:42.000Z</time>
      </trkpt>
      <trkpt lat="42.65797" lon="-0.32302">
        <ele>981.85</ele>
        <time>2024-10-02T12:51:47.000Z</time>
      </trkpt>
      <trkpt lat="42.65809" lon="-0.32311">
        <ele>981.7</ele>
        <time>2024-10-02T12:51:52.000Z</time>
      </trkpt>
      <trkpt lat="42.65821" lon="-0.32321">
        <ele>981.7</ele>
        <time>2024-10-02T12:51:57.000Z</time>
      </trkpt>
      <trkpt lat="42.65834" lon="-0.32329">
        <ele>981.84</ele>
        <time>2024-10-02T12:52:02.000Z</time>
      </trkpt>
      <trkpt lat="42.65842" lon="-0.32336">
        <ele>982.03</ele>
        <time>2024-10-02T12:52:07.000Z</time>
      </trkpt>
      <trkpt lat="42.65856" lon="-0.3235">
        <ele>982.26</ele>
        <time>2024-10-02T12:52:12.000Z</time>
      </trkpt>
      <trkpt lat="42.65871" lon="-0.32362">
        <ele>982.45</ele>
        <time>2024-10-02T12:52:17.000Z</time>
      </trkpt>
      <trkpt lat="42.65883" lon="-0.32373">
        <ele>982.72</ele>
        <time>2024-10-02T12:52:22.000Z</time>
      </trkpt>
      <trkpt lat="42.65895" lon="-0.32381">
        <ele>983.07</ele>
        <time>2024-10-02T12:52:27.000Z</time>
      </trkpt>
      <trkpt lat="42.65907" lon="-0.32386">
        <ele>983.39</ele>
        <time>2024-10-02T12:52:32.000Z</time>
      </trkpt>
      <trkpt lat="42.65922" lon="-0.32389">
        <ele>983.71</ele>
        <time>2024-10-02T12:52:37.000Z</time>
      </trkpt>
      <trkpt lat="42.65936" lon="-0.32389">
        <ele>984.1</ele>
        <time>2024-10-02T12:52:42.000Z</time>
      </trkpt>
      <trkpt lat="42.65949" lon="-0.32385">
        <ele>984.55</ele>
        <time>2024-10-02T12:52:47.000Z</time>
      </trkpt>
      <trkpt lat="42.6596" lon="-0.32382">
        <ele>985.07</ele>
        <time>2024-10-02T12:52:52.000Z</time>
      </trkpt>
      <trkpt lat="42.65972" lon="-0.32381">
        <ele>985.66</ele>
        <time>2024-10-02T12:52:57.000Z</time>
      </trkpt>
      <trkpt lat="42.65984" lon="-0.32381">
        <ele>986.28</ele>
        <time>2024-10-02T12:53:02.000Z</time>
      </trkpt>
      <trkpt lat="42.65997" lon="-0.32383">
        <ele>986.92</ele>
        <time>2024-10-02T12:53:07.000Z</time>
      </trkpt>
      <trkpt lat="42.6601" lon="-0.32387">
        <ele>987.57</ele>
        <time>2024-10-02T12:53:12.000Z</time>
      </trkpt>
      <trkpt lat="42.66023" lon="-0.32388">
        <ele>988.21</ele>
        <time>2024-10-02T12:53:17.000Z</time>
      </trkpt>
      <trkpt lat="42.66038" lon="-0.32386">
        <ele>988.85</ele>
        <time>2024-10-02T12:53:22.000Z</time>
      </trkpt>
      <trkpt lat="42.66055" lon="-0.32384">
        <ele>991.22</ele>
        <time>2024-10-02T12:53:27.000Z</time>
      </trkpt>
      <trkpt lat="42.66078" lon="-0.32382">
        <ele>994.43</ele>
        <time>2024-10-02T12:53:32.000Z</time>
      </trkpt>
      <trkpt lat="42.66104" lon="-0.32384">
        <ele>995.85</ele>
        <time>2024-10-02T12:53:37.000Z</time>
      </trkpt>
      <trkpt lat="42.66131" lon="-0.32387">
        <ele>996.57</ele>
        <time>2024-10-02T12:53:42.000Z</time>
      </trkpt>
      <trkpt lat="42.66159" lon="-0.32391">
        <ele>997</ele>
        <time>2024-10-02T12:53:47.000Z</time>
      </trkpt>
      <trkpt lat="42.66189" lon="-0.32397">
        <ele>997.75</ele>
        <time>2024-10-02T12:53:52.000Z</time>
      </trkpt>
      <trkpt lat="42.66222" lon="-0.32395">
        <ele>998.41</ele>
        <time>2024-10-02T12:53:57.000Z</time>
      </trkpt>
      <trkpt lat="42.66252" lon="-0.32385">
        <ele>998.75</ele>
        <time>2024-10-02T12:54:02.000Z</time>
      </trkpt>
      <trkpt lat="42.66282" lon="-0.3237">
        <ele>999.37</ele>
        <time>2024-10-02T12:54:07.000Z</time>
      </trkpt>
      <trkpt lat="42.6631" lon="-0.32353">
        <ele>1000.09</ele>
        <time>2024-10-02T12:54:12.000Z</time>
      </trkpt>
      <trkpt lat="42.66339" lon="-0.32337">
        <ele>1000.8</ele>
        <time>2024-10-02T12:54:17.000Z</time>
      </trkpt>
      <trkpt lat="42.66365" lon="-0.32323">
        <ele>1001.59</ele>
        <time>2024-10-02T12:54:22.000Z</time>
      </trkpt>
      <trkpt lat="42.66385" lon="-0.32311">
        <ele>1002.2</ele>
        <time>2024-10-02T12:54:27.000Z</time>
      </trkpt>
      <trkpt lat="42.66401" lon="-0.32303">
        <ele>1002.26</ele>
        <time>2024-10-02T12:54:32.000Z</time>
      </trkpt>
      <trkpt lat="42.66415" lon="-0.32297">
        <ele>1002.29</ele>
        <time>2024-10-02T12:54:37.000Z</time>
      </trkpt>
      <trkpt lat="42.66425" lon="-0.32294">
        <ele>1002.28</ele>
        <time>2024-10-02T12:54:42.000Z</time>
      </trkpt>
      <trkpt lat="42.66438" lon="-0.3229">
        <ele>1002.27</ele>
        <time>2024-10-02T12:54:47.000Z</time>
      </trkpt>
      <trkpt lat="42.66449" lon="-0.32286">
        <ele>1002.29</ele>
        <time>2024-10-02T12:54:52.000Z</time>
      </trkpt>
      <trkpt lat="42.66459" lon="-0.32282">
        <ele>1002.29</ele>
        <time>2024-10-02T12:54:58.000Z</time>
      </trkpt>
      <trkpt lat="42.66469" lon="-0.32277">
        <ele>1002.26</ele>
        <time>2024-10-02T12:55:04.000Z</time>
      </trkpt>
      <trkpt lat="42.6648" lon="-0.32273">
        <ele>1002.24</ele>
        <time>2024-10-02T12:55:09.000Z</time>
      </trkpt>
      <trkpt lat="42.66489" lon="-0.3227">
        <ele>1002.22</ele>
        <time>2024-10-02T12:55:14.000Z</time>
      </trkpt>
      <trkpt lat="42.66498" lon="-0.32267">
        <ele>1002.2</ele>
        <time>2024-10-02T12:55:19.000Z</time>
      </trkpt>
      <trkpt lat="42.66508" lon="-0.32263">
        <ele>1002.19</ele>
        <time>2024-10-02T12:55:25.000Z</time>
      </trkpt>
      <trkpt lat="42.66516" lon="-0.32259">
        <ele>1002.18</ele>
        <time>2024-10-02T12:55:30.000Z</time>
      </trkpt>
      <trkpt lat="42.66525" lon="-0.32255">
        <ele>1002.2</ele>
        <time>2024-10-02T12:55:35.000Z</time>
      </trkpt>
      <trkpt lat="42.66534" lon="-0.32251">
        <ele>1002.24</ele>
        <time>2024-10-02T12:55:40.000Z</time>
      </trkpt>
      <trkpt lat="42.66544" lon="-0.32248">
        <ele>1002.32</ele>
        <time>2024-10-02T12:55:46.000Z</time>
      </trkpt>
      <trkpt lat="42.66553" lon="-0.32244">
        <ele>1002.43</ele>
        <time>2024-10-02T12:55:51.000Z</time>
      </trkpt>
      <trkpt lat="42.66562" lon="-0.3224">
        <ele>1002.59</ele>
        <time>2024-10-02T12:55:56.000Z</time>
      </trkpt>
      <trkpt lat="42.66573" lon="-0.32235">
        <ele>1002.83</ele>
        <time>2024-10-02T12:56:03.000Z</time>
      </trkpt>
      <trkpt lat="42.66582" lon="-0.32232">
        <ele>1003.1</ele>
        <time>2024-10-02T12:56:09.000Z</time>
      </trkpt>
      <trkpt lat="42.66592" lon="-0.32229">
        <ele>1003.37</ele>
        <time>2024-10-02T12:56:15.000Z</time>
      </trkpt>
      <trkpt lat="42.66602" lon="-0.32225">
        <ele>1003.68</ele>
        <time>2024-10-02T12:56:21.000Z</time>
      </trkpt>
      <trkpt lat="42.66612" lon="-0.32222">
        <ele>1004.04</ele>
        <time>2024-10-02T12:56:26.999Z</time>
      </trkpt>
      <trkpt lat="42.66622" lon="-0.32219">
        <ele>1004.46</ele>
        <time>2024-10-02T12:56:32.999Z</time>
      </trkpt>
      <trkpt lat="42.66632" lon="-0.32216">
        <ele>1004.91</ele>
        <time>2024-10-02T12:56:38.999Z</time>
      </trkpt>
      <trkpt lat="42.66642" lon="-0.32213">
        <ele>1005.31</ele>
        <time>2024-10-02T12:56:43.999Z</time>
      </trkpt>
      <trkpt lat="42.66651" lon="-0.3221">
        <ele>1005.74</ele>
        <time>2024-10-02T12:56:48.999Z</time>
      </trkpt>
      <trkpt lat="42.66661" lon="-0.32207">
        <ele>1006.3</ele>
        <time>2024-10-02T12:56:54.999Z</time>
      </trkpt>
      <trkpt lat="42.6667" lon="-0.32205">
        <ele>1006.8</ele>
        <time>2024-10-02T12:56:59.999Z</time>
      </trkpt>
      <trkpt lat="42.66679" lon="-0.32203">
        <ele>1007.33</ele>
        <time>2024-10-02T12:57:04.999Z</time>
      </trkpt>
      <trkpt lat="42.66688" lon="-0.32201">
        <ele>1007.88</ele>
        <time>2024-10-02T12:57:09.999Z</time>
      </trkpt>
      <trkpt lat="42.66698" lon="-0.32197">
        <ele>1008.59</ele>
        <time>2024-10-02T12:57:15.999Z</time>
      </trkpt>
      <trkpt lat="42.66708" lon="-0.32195">
        <ele>1009.33</ele>
        <time>2024-10-02T12:57:21.999Z</time>
      </trkpt>
      <trkpt lat="42.66717" lon="-0.32193">
        <ele>1010.13</ele>
        <time>2024-10-02T12:57:27.999Z</time>
      </trkpt>
      <trkpt lat="42.66726" lon="-0.3219">
        <ele>1010.86</ele>
        <time>2024-10-02T12:57:32.999Z</time>
      </trkpt>
      <trkpt lat="42.66736" lon="-0.32187">
        <ele>1011.85</ele>
        <time>2024-10-02T12:57:38.999Z</time>
      </trkpt>
      <trkpt lat="42.66746" lon="-0.32182">
        <ele>1013.07</ele>
        <time>2024-10-02T12:57:45.999Z</time>
      </trkpt>
      <trkpt lat="42.66756" lon="-0.3218">
        <ele>1014.11</ele>
        <time>2024-10-02T12:57:51.999Z</time>
      </trkpt>
      <trkpt lat="42.66765" lon="-0.32179">
        <ele>1015.06</ele>
        <time>2024-10-02T12:57:57.999Z</time>
      </trkpt>
      <trkpt lat="42.66774" lon="-0.32177">
        <ele>1015.81</ele>
        <time>2024-10-02T12:58:02.999Z</time>
      </trkpt>
      <trkpt lat="42.66783" lon="-0.32176">
        <ele>1016.73</ele>
        <time>2024-10-02T12:58:09.999Z</time>
      </trkpt>
      <trkpt lat="42.66793" lon="-0.32177">
        <ele>1017.56</ele>
        <time>2024-10-02T12:58:15.999Z</time>
      </trkpt>
      <trkpt lat="42.66804" lon="-0.32179">
        <ele>1018.33</ele>
        <time>2024-10-02T12:58:20.999Z</time>
      </trkpt>
      <trkpt lat="42.66814" lon="-0.32181">
        <ele>1019.38</ele>
        <time>2024-10-02T12:58:26.999Z</time>
      </trkpt>
      <trkpt lat="42.66824" lon="-0.32184">
        <ele>1020.5</ele>
        <time>2024-10-02T12:58:32.999Z</time>
      </trkpt>
      <trkpt lat="42.66828" lon="-0.32172">
        <ele>1023.61</ele>
        <time>2024-10-02T12:58:55.999Z</time>
      </trkpt>
      <trkpt lat="42.6683" lon="-0.32185">
        <ele>1027.71</ele>
        <time>2024-10-02T13:01:02.999Z</time>
      </trkpt>
      <trkpt lat="42.66838" lon="-0.32191">
        <ele>1028.45</ele>
        <time>2024-10-02T13:01:13.999Z</time>
      </trkpt>
      <trkpt lat="42.66847" lon="-0.32198">
        <ele>1028.71</ele>
        <time>2024-10-02T13:01:18.999Z</time>
      </trkpt>
      <trkpt lat="42.66856" lon="-0.32205">
        <ele>1028.95</ele>
        <time>2024-10-02T13:01:23.999Z</time>
      </trkpt>
      <trkpt lat="42.66864" lon="-0.32211">
        <ele>1029.16</ele>
        <time>2024-10-02T13:01:28.999Z</time>
      </trkpt>
      <trkpt lat="42.66874" lon="-0.32219">
        <ele>1029.39</ele>
        <time>2024-10-02T13:01:34.999Z</time>
      </trkpt>
      <trkpt lat="42.66881" lon="-0.32227">
        <ele>1029.57</ele>
        <time>2024-10-02T13:01:39.999Z</time>
      </trkpt>
      <trkpt lat="42.6689" lon="-0.32232">
        <ele>1029.72</ele>
        <time>2024-10-02T13:01:44.999Z</time>
      </trkpt>
      <trkpt lat="42.66899" lon="-0.32238">
        <ele>1029.86</ele>
        <time>2024-10-02T13:01:49.999Z</time>
      </trkpt>
      <trkpt lat="42.66911" lon="-0.32245">
        <ele>1029.98</ele>
        <time>2024-10-02T13:01:54.999Z</time>
      </trkpt>
      <trkpt lat="42.66921" lon="-0.32249">
        <ele>1030.1</ele>
        <time>2024-10-02T13:01:59.999Z</time>
      </trkpt>
      <trkpt lat="42.66931" lon="-0.32253">
        <ele>1030.22</ele>
        <time>2024-10-02T13:02:05.999Z</time>
      </trkpt>
      <trkpt lat="42.66941" lon="-0.32257">
        <ele>1030.34</ele>
        <time>2024-10-02T13:02:11.999Z</time>
      </trkpt>
      <trkpt lat="42.66951" lon="-0.3226">
        <ele>1030.47</ele>
        <time>2024-10-02T13:02:17.999Z</time>
      </trkpt>
      <trkpt lat="42.66961" lon="-0.32262">
        <ele>1030.61</ele>
        <time>2024-10-02T13:02:23.999Z</time>
      </trkpt>
      <trkpt lat="42.66972" lon="-0.32262">
        <ele>1030.72</ele>
        <time>2024-10-02T13:02:28.999Z</time>
      </trkpt>
      <trkpt lat="42.66982" lon="-0.32262">
        <ele>1030.86</ele>
        <time>2024-10-02T13:02:34.999Z</time>
      </trkpt>
      <trkpt lat="42.66992" lon="-0.32261">
        <ele>1031</ele>
        <time>2024-10-02T13:02:40.999Z</time>
      </trkpt>
      <trkpt lat="42.67002" lon="-0.3226">
        <ele>1031.17</ele>
        <time>2024-10-02T13:02:47.999Z</time>
      </trkpt>
      <trkpt lat="42.67012" lon="-0.32257">
        <ele>1031.31</ele>
        <time>2024-10-02T13:02:53.999Z</time>
      </trkpt>
      <trkpt lat="42.67022" lon="-0.32254">
        <ele>1031.56</ele>
        <time>2024-10-02T13:03:02.999Z</time>
      </trkpt>
      <trkpt lat="42.67031" lon="-0.32251">
        <ele>1031.76</ele>
        <time>2024-10-02T13:03:08.999Z</time>
      </trkpt>
      <trkpt lat="42.67042" lon="-0.3225">
        <ele>1032.02</ele>
        <time>2024-10-02T13:03:15.999Z</time>
      </trkpt>
      <trkpt lat="42.67051" lon="-0.32246">
        <ele>1032.27</ele>
        <time>2024-10-02T13:03:21.999Z</time>
      </trkpt>
      <trkpt lat="42.67061" lon="-0.32243">
        <ele>1032.51</ele>
        <time>2024-10-02T13:03:26.999Z</time>
      </trkpt>
      <trkpt lat="42.6707" lon="-0.3224">
        <ele>1032.79</ele>
        <time>2024-10-02T13:03:31.999Z</time>
      </trkpt>
      <trkpt lat="42.6708" lon="-0.32239">
        <ele>1033.18</ele>
        <time>2024-10-02T13:03:37.999Z</time>
      </trkpt>
      <trkpt lat="42.67089" lon="-0.32238">
        <ele>1033.63</ele>
        <time>2024-10-02T13:03:43.999Z</time>
      </trkpt>
      <trkpt lat="42.67099" lon="-0.32241">
        <ele>1034.17</ele>
        <time>2024-10-02T13:03:49.999Z</time>
      </trkpt>
      <trkpt lat="42.67109" lon="-0.32241">
        <ele>1034.81</ele>
        <time>2024-10-02T13:03:56.999Z</time>
      </trkpt>
      <trkpt lat="42.67118" lon="-0.32244">
        <ele>1035.4</ele>
        <time>2024-10-02T13:04:02.999Z</time>
      </trkpt>
      <trkpt lat="42.67127" lon="-0.32245">
        <ele>1036.01</ele>
        <time>2024-10-02T13:04:08.999Z</time>
      </trkpt>
      <trkpt lat="42.67137" lon="-0.3225">
        <ele>1036.58</ele>
        <time>2024-10-02T13:04:14.999Z</time>
      </trkpt>
      <trkpt lat="42.67147" lon="-0.32255">
        <ele>1037.14</ele>
        <time>2024-10-02T13:04:20.999Z</time>
      </trkpt>
      <trkpt lat="42.67155" lon="-0.32258">
        <ele>1037.67</ele>
        <time>2024-10-02T13:04:25.999Z</time>
      </trkpt>
      <trkpt lat="42.67165" lon="-0.32263">
        <ele>1038.38</ele>
        <time>2024-10-02T13:04:31.999Z</time>
      </trkpt>
      <trkpt lat="42.67175" lon="-0.32266">
        <ele>1039.06</ele>
        <time>2024-10-02T13:04:37.999Z</time>
      </trkpt>
      <trkpt lat="42.67185" lon="-0.32271">
        <ele>1039.75</ele>
        <time>2024-10-02T13:04:43.999Z</time>
      </trkpt>
      <trkpt lat="42.67194" lon="-0.32274">
        <ele>1040.34</ele>
        <time>2024-10-02T13:04:48.999Z</time>
      </trkpt>
      <trkpt lat="42.67205" lon="-0.32276">
        <ele>1041.19</ele>
        <time>2024-10-02T13:04:55.999Z</time>
      </trkpt>
      <trkpt lat="42.67214" lon="-0.32278">
        <ele>1041.86</ele>
        <time>2024-10-02T13:05:01.999Z</time>
      </trkpt>
      <trkpt lat="42.67225" lon="-0.32278">
        <ele>1042.6</ele>
        <time>2024-10-02T13:05:07.999Z</time>
      </trkpt>
      <trkpt lat="42.67234" lon="-0.32278">
        <ele>1043.42</ele>
        <time>2024-10-02T13:05:13.999Z</time>
      </trkpt>
      <trkpt lat="42.67244" lon="-0.32278">
        <ele>1044.47</ele>
        <time>2024-10-02T13:05:20.999Z</time>
      </trkpt>
      <trkpt lat="42.67253" lon="-0.32278">
        <ele>1045.4</ele>
        <time>2024-10-02T13:05:26.999Z</time>
      </trkpt>
      <trkpt lat="42.67263" lon="-0.32276">
        <ele>1046.46</ele>
        <time>2024-10-02T13:05:33.999Z</time>
      </trkpt>
      <trkpt lat="42.67272" lon="-0.32274">
        <ele>1047.29</ele>
        <time>2024-10-02T13:05:38.999Z</time>
      </trkpt>
      <trkpt lat="42.67282" lon="-0.3227">
        <ele>1048.13</ele>
        <time>2024-10-02T13:05:43.999Z</time>
      </trkpt>
      <trkpt lat="42.67292" lon="-0.32267">
        <ele>1049.11</ele>
        <time>2024-10-02T13:05:49.999Z</time>
      </trkpt>
      <trkpt lat="42.67302" lon="-0.32266">
        <ele>1050.32</ele>
        <time>2024-10-02T13:05:56.999Z</time>
      </trkpt>
      <trkpt lat="42.67312" lon="-0.32265">
        <ele>1051.49</ele>
        <time>2024-10-02T13:06:02.999Z</time>
      </trkpt>
      <trkpt lat="42.67321" lon="-0.32266">
        <ele>1052.5</ele>
        <time>2024-10-02T13:06:07.999Z</time>
      </trkpt>
      <trkpt lat="42.67331" lon="-0.32266">
        <ele>1053.51</ele>
        <time>2024-10-02T13:06:12.999Z</time>
      </trkpt>
      <trkpt lat="42.67343" lon="-0.32264">
        <ele>1054.39</ele>
        <time>2024-10-02T13:06:17.999Z</time>
      </trkpt>
      <trkpt lat="42.67353" lon="-0.32266">
        <ele>1055.21</ele>
        <time>2024-10-02T13:06:22.999Z</time>
      </trkpt>
      <trkpt lat="42.67362" lon="-0.32268">
        <ele>1056.3</ele>
        <time>2024-10-02T13:06:29.999Z</time>
      </trkpt>
      <trkpt lat="42.67372" lon="-0.32269">
        <ele>1057.38</ele>
        <time>2024-10-02T13:06:36.999Z</time>
      </trkpt>
      <trkpt lat="42.67382" lon="-0.32272">
        <ele>1058.43</ele>
        <time>2024-10-02T13:06:43.999Z</time>
      </trkpt>
      <trkpt lat="42.67392" lon="-0.32274">
        <ele>1059.64</ele>
        <time>2024-10-02T13:06:52.999Z</time>
      </trkpt>
      <trkpt lat="42.67401" lon="-0.32277">
        <ele>1060.4</ele>
        <time>2024-10-02T13:06:58.999Z</time>
      </trkpt>
      <trkpt lat="42.6741" lon="-0.3228">
        <ele>1061.26</ele>
        <time>2024-10-02T13:07:05.999Z</time>
      </trkpt>
      <trkpt lat="42.67419" lon="-0.32281">
        <ele>1061.94</ele>
        <time>2024-10-02T13:07:11.999Z</time>
      </trkpt>
      <trkpt lat="42.6743" lon="-0.32282">
        <ele>1062.72</ele>
        <time>2024-10-02T13:07:18.999Z</time>
      </trkpt>
      <trkpt lat="42.67439" lon="-0.32282">
        <ele>1063.41</ele>
        <time>2024-10-02T13:07:24.999Z</time>
      </trkpt>
      <trkpt lat="42.67449" lon="-0.32283">
        <ele>1064.37</ele>
        <time>2024-10-02T13:07:31.999Z</time>
      </trkpt>
      <trkpt lat="42.67459" lon="-0.32281">
        <ele>1065.43</ele>
        <time>2024-10-02T13:07:38.999Z</time>
      </trkpt>
      <trkpt lat="42.67468" lon="-0.32281">
        <ele>1066.34</ele>
        <time>2024-10-02T13:07:44.999Z</time>
      </trkpt>
      <trkpt lat="42.67478" lon="-0.3228">
        <ele>1067.47</ele>
        <time>2024-10-02T13:07:51.999Z</time>
      </trkpt>
      <trkpt lat="42.67488" lon="-0.3228">
        <ele>1068.63</ele>
        <time>2024-10-02T13:07:58.999Z</time>
      </trkpt>
      <trkpt lat="42.67498" lon="-0.32278">
        <ele>1069.85</ele>
        <time>2024-10-02T13:08:05.999Z</time>
      </trkpt>
      <trkpt lat="42.67507" lon="-0.32275">
        <ele>1070.82</ele>
        <time>2024-10-02T13:08:11.999Z</time>
      </trkpt>
      <trkpt lat="42.67517" lon="-0.32275">
        <ele>1071.75</ele>
        <time>2024-10-02T13:08:17.999Z</time>
      </trkpt>
      <trkpt lat="42.67526" lon="-0.32274">
        <ele>1072.7</ele>
        <time>2024-10-02T13:08:23.999Z</time>
      </trkpt>
      <trkpt lat="42.67536" lon="-0.32274">
        <ele>1073.98</ele>
        <time>2024-10-02T13:08:31.999Z</time>
      </trkpt>
      <trkpt lat="42.67546" lon="-0.32274">
        <ele>1075.04</ele>
        <time>2024-10-02T13:08:39.000Z</time>
      </trkpt>
      <trkpt lat="42.67556" lon="-0.32273">
        <ele>1076.02</ele>
        <time>2024-10-02T13:08:46.000Z</time>
      </trkpt>
      <trkpt lat="42.67566" lon="-0.32271">
        <ele>1076.85</ele>
        <time>2024-10-02T13:08:52.000Z</time>
      </trkpt>
      <trkpt lat="42.67575" lon="-0.3227">
        <ele>1077.83</ele>
        <time>2024-10-02T13:08:59.000Z</time>
      </trkpt>
      <trkpt lat="42.67585" lon="-0.32267">
        <ele>1078.85</ele>
        <time>2024-10-02T13:09:06.000Z</time>
      </trkpt>
      <trkpt lat="42.67594" lon="-0.32263">
        <ele>1079.7</ele>
        <time>2024-10-02T13:09:12.000Z</time>
      </trkpt>
      <trkpt lat="42.67603" lon="-0.3226">
        <ele>1080.73</ele>
        <time>2024-10-02T13:09:19.000Z</time>
      </trkpt>
      <trkpt lat="42.67612" lon="-0.32254">
        <ele>1081.55</ele>
        <time>2024-10-02T13:09:25.000Z</time>
      </trkpt>
      <trkpt lat="42.6762" lon="-0.32249">
        <ele>1082.33</ele>
        <time>2024-10-02T13:09:31.000Z</time>
      </trkpt>
      <trkpt lat="42.6763" lon="-0.32243">
        <ele>1083.24</ele>
        <time>2024-10-02T13:09:38.000Z</time>
      </trkpt>
      <trkpt lat="42.67637" lon="-0.32235">
        <ele>1083.85</ele>
        <time>2024-10-02T13:09:43.000Z</time>
      </trkpt>
      <trkpt lat="42.67645" lon="-0.32227">
        <ele>1084.5</ele>
        <time>2024-10-02T13:09:49.000Z</time>
      </trkpt>
      <trkpt lat="42.67652" lon="-0.32218">
        <ele>1085.1</ele>
        <time>2024-10-02T13:09:55.000Z</time>
      </trkpt>
      <trkpt lat="42.67659" lon="-0.32208">
        <ele>1085.74</ele>
        <time>2024-10-02T13:10:02.000Z</time>
      </trkpt>
      <trkpt lat="42.67666" lon="-0.32199">
        <ele>1086.25</ele>
        <time>2024-10-02T13:10:08.000Z</time>
      </trkpt>
      <trkpt lat="42.67671" lon="-0.32188">
        <ele>1086.83</ele>
        <time>2024-10-02T13:10:15.000Z</time>
      </trkpt>
      <trkpt lat="42.67675" lon="-0.32177">
        <ele>1087.44</ele>
        <time>2024-10-02T13:10:23.000Z</time>
      </trkpt>
      <trkpt lat="42.67681" lon="-0.32166">
        <ele>1087.93</ele>
        <time>2024-10-02T13:10:30.000Z</time>
      </trkpt>
      <trkpt lat="42.67686" lon="-0.32155">
        <ele>1088.47</ele>
        <time>2024-10-02T13:10:38.000Z</time>
      </trkpt>
      <trkpt lat="42.67692" lon="-0.32146">
        <ele>1088.86</ele>
        <time>2024-10-02T13:10:44.000Z</time>
      </trkpt>
      <trkpt lat="42.67699" lon="-0.32137">
        <ele>1089.26</ele>
        <time>2024-10-02T13:10:50.000Z</time>
      </trkpt>
      <trkpt lat="42.67706" lon="-0.32129">
        <ele>1089.65</ele>
        <time>2024-10-02T13:10:56.000Z</time>
      </trkpt>
      <trkpt lat="42.67713" lon="-0.32119">
        <ele>1090.1</ele>
        <time>2024-10-02T13:11:03.000Z</time>
      </trkpt>
      <trkpt lat="42.67721" lon="-0.32112">
        <ele>1090.48</ele>
        <time>2024-10-02T13:11:10.000Z</time>
      </trkpt>
      <trkpt lat="42.67728" lon="-0.32104">
        <ele>1090.84</ele>
        <time>2024-10-02T13:11:17.000Z</time>
      </trkpt>
      <trkpt lat="42.67737" lon="-0.32097">
        <ele>1091.22</ele>
        <time>2024-10-02T13:11:24.000Z</time>
      </trkpt>
      <trkpt lat="42.67745" lon="-0.32094">
        <ele>1091.73</ele>
        <time>2024-10-02T13:11:32.000Z</time>
      </trkpt>
      <trkpt lat="42.67755" lon="-0.32091">
        <ele>1092.3</ele>
        <time>2024-10-02T13:11:40.000Z</time>
      </trkpt>
      <trkpt lat="42.67766" lon="-0.32088">
        <ele>1092.82</ele>
        <time>2024-10-02T13:11:47.000Z</time>
      </trkpt>
      <trkpt lat="42.67776" lon="-0.32087">
        <ele>1093.35</ele>
        <time>2024-10-02T13:11:54.000Z</time>
      </trkpt>
      <trkpt lat="42.67786" lon="-0.32087">
        <ele>1093.92</ele>
        <time>2024-10-02T13:12:01.000Z</time>
      </trkpt>
      <trkpt lat="42.67795" lon="-0.32089">
        <ele>1094.52</ele>
        <time>2024-10-02T13:12:08.000Z</time>
      </trkpt>
      <trkpt lat="42.67805" lon="-0.3209">
        <ele>1095.2</ele>
        <time>2024-10-02T13:12:16.000Z</time>
      </trkpt>
      <trkpt lat="42.67815" lon="-0.32092">
        <ele>1095.81</ele>
        <time>2024-10-02T13:12:23.000Z</time>
      </trkpt>
      <trkpt lat="42.67825" lon="-0.32094">
        <ele>1096.43</ele>
        <time>2024-10-02T13:12:29.000Z</time>
      </trkpt>
      <trkpt lat="42.67835" lon="-0.32093">
        <ele>1097.05</ele>
        <time>2024-10-02T13:12:35.000Z</time>
      </trkpt>
      <trkpt lat="42.67845" lon="-0.32094">
        <ele>1097.77</ele>
        <time>2024-10-02T13:12:42.000Z</time>
      </trkpt>
      <trkpt lat="42.67857" lon="-0.32093">
        <ele>1098.5</ele>
        <time>2024-10-02T13:12:49.000Z</time>
      </trkpt>
      <trkpt lat="42.67867" lon="-0.32093">
        <ele>1099.17</ele>
        <time>2024-10-02T13:12:54.000Z</time>
      </trkpt>
      <trkpt lat="42.67878" lon="-0.32094">
        <ele>1100.12</ele>
        <time>2024-10-02T13:13:00.000Z</time>
      </trkpt>
      <trkpt lat="42.67887" lon="-0.32095">
        <ele>1101.16</ele>
        <time>2024-10-02T13:13:06.000Z</time>
      </trkpt>
      <trkpt lat="42.67897" lon="-0.32098">
        <ele>1102.24</ele>
        <time>2024-10-02T13:13:12.000Z</time>
      </trkpt>
      <trkpt lat="42.67906" lon="-0.321">
        <ele>1103.16</ele>
        <time>2024-10-02T13:13:17.000Z</time>
      </trkpt>
      <trkpt lat="42.67916" lon="-0.32101">
        <ele>1104.25</ele>
        <time>2024-10-02T13:13:23.000Z</time>
      </trkpt>
      <trkpt lat="42.67925" lon="-0.32101">
        <ele>1105.34</ele>
        <time>2024-10-02T13:13:29.000Z</time>
      </trkpt>
      <trkpt lat="42.67936" lon="-0.32102">
        <ele>1106.44</ele>
        <time>2024-10-02T13:13:35.000Z</time>
      </trkpt>
      <trkpt lat="42.67946" lon="-0.32104">
        <ele>1107.53</ele>
        <time>2024-10-02T13:13:41.000Z</time>
      </trkpt>
      <trkpt lat="42.67956" lon="-0.32106">
        <ele>1108.59</ele>
        <time>2024-10-02T13:13:47.000Z</time>
      </trkpt>
      <trkpt lat="42.67967" lon="-0.32109">
        <ele>1109.44</ele>
        <time>2024-10-02T13:13:52.000Z</time>
      </trkpt>
      <trkpt lat="42.67979" lon="-0.3211">
        <ele>1110.22</ele>
        <time>2024-10-02T13:13:57.000Z</time>
      </trkpt>
      <trkpt lat="42.67992" lon="-0.32112">
        <ele>1110.93</ele>
        <time>2024-10-02T13:14:02.000Z</time>
      </trkpt>
      <trkpt lat="42.68003" lon="-0.32114">
        <ele>1111.63</ele>
        <time>2024-10-02T13:14:07.000Z</time>
      </trkpt>
      <trkpt lat="42.68014" lon="-0.32114">
        <ele>1112.3</ele>
        <time>2024-10-02T13:14:12.000Z</time>
      </trkpt>
      <trkpt lat="42.68027" lon="-0.32112">
        <ele>1112.94</ele>
        <time>2024-10-02T13:14:17.000Z</time>
      </trkpt>
      <trkpt lat="42.68039" lon="-0.32108">
        <ele>1113.52</ele>
        <time>2024-10-02T13:14:22.000Z</time>
      </trkpt>
      <trkpt lat="42.68051" lon="-0.32104">
        <ele>1114.12</ele>
        <time>2024-10-02T13:14:27.000Z</time>
      </trkpt>
      <trkpt lat="42.68066" lon="-0.32099">
        <ele>1114.76</ele>
        <time>2024-10-02T13:14:32.000Z</time>
      </trkpt>
      <trkpt lat="42.68082" lon="-0.32091">
        <ele>1116.4</ele>
        <time>2024-10-02T13:14:37.000Z</time>
      </trkpt>
      <trkpt lat="42.68102" lon="-0.32082">
        <ele>1118.91</ele>
        <time>2024-10-02T13:14:42.000Z</time>
      </trkpt>
      <trkpt lat="42.68121" lon="-0.32076">
        <ele>1119.36</ele>
        <time>2024-10-02T13:14:47.000Z</time>
      </trkpt>
      <trkpt lat="42.68141" lon="-0.32075">
        <ele>1120.09</ele>
        <time>2024-10-02T13:14:52.000Z</time>
      </trkpt>
      <trkpt lat="42.68159" lon="-0.32074">
        <ele>1120.28</ele>
        <time>2024-10-02T13:14:57.000Z</time>
      </trkpt>
      <trkpt lat="42.6817" lon="-0.32074">
        <ele>1122.09</ele>
        <time>2024-10-02T13:15:36.000Z</time>
      </trkpt>
      <trkpt lat="42.68187" lon="-0.32077">
        <ele>1124.5</ele>
        <time>2024-10-02T13:15:41.000Z</time>
      </trkpt>
      <trkpt lat="42.68221" lon="-0.32081">
        <ele>1130</ele>
        <time>2024-10-02T13:15:46.000Z</time>
      </trkpt>
      <trkpt lat="42.68273" lon="-0.32087">
        <ele>1130.63</ele>
        <time>2024-10-02T13:15:51.000Z</time>
      </trkpt>
      <trkpt lat="42.68332" lon="-0.32091">
        <ele>1129.99</ele>
        <time>2024-10-02T13:15:56.000Z</time>
      </trkpt>
      <trkpt lat="42.68382" lon="-0.32075">
        <ele>1127.32</ele>
        <time>2024-10-02T13:16:01.000Z</time>
      </trkpt>
      <trkpt lat="42.68425" lon="-0.32044">
        <ele>1124.17</ele>
        <time>2024-10-02T13:16:06.000Z</time>
      </trkpt>
      <trkpt lat="42.68465" lon="-0.32014">
        <ele>1121.75</ele>
        <time>2024-10-02T13:16:11.000Z</time>
      </trkpt>
      <trkpt lat="42.68509" lon="-0.32">
        <ele>1119.83</ele>
        <time>2024-10-02T13:16:16.000Z</time>
      </trkpt>
      <trkpt lat="42.6855" lon="-0.31994">
        <ele>1118.4</ele>
        <time>2024-10-02T13:16:21.000Z</time>
      </trkpt>
      <trkpt lat="42.6859" lon="-0.31992">
        <ele>1117.34</ele>
        <time>2024-10-02T13:16:26.000Z</time>
      </trkpt>
      <trkpt lat="42.68623" lon="-0.31988">
        <ele>1116.71</ele>
        <time>2024-10-02T13:16:31.000Z</time>
      </trkpt>
      <trkpt lat="42.6865" lon="-0.31984">
        <ele>1116.42</ele>
        <time>2024-10-02T13:16:36.000Z</time>
      </trkpt>
      <trkpt lat="42.68673" lon="-0.31983">
        <ele>1116.32</ele>
        <time>2024-10-02T13:16:41.000Z</time>
      </trkpt>
      <trkpt lat="42.68697" lon="-0.31982">
        <ele>1115.47</ele>
        <time>2024-10-02T13:16:46.000Z</time>
      </trkpt>
      <trkpt lat="42.68724" lon="-0.3198">
        <ele>1116.04</ele>
        <time>2024-10-02T13:16:51.000Z</time>
      </trkpt>
      <trkpt lat="42.68748" lon="-0.31977">
        <ele>1116.39</ele>
        <time>2024-10-02T13:16:56.000Z</time>
      </trkpt>
      <trkpt lat="42.6877" lon="-0.31972">
        <ele>1116.29</ele>
        <time>2024-10-02T13:17:01.000Z</time>
      </trkpt>
      <trkpt lat="42.68791" lon="-0.31964">
        <ele>1115.74</ele>
        <time>2024-10-02T13:17:06.000Z</time>
      </trkpt>
      <trkpt lat="42.68819" lon="-0.3195">
        <ele>1115</ele>
        <time>2024-10-02T13:17:11.000Z</time>
      </trkpt>
      <trkpt lat="42.68839" lon="-0.31932">
        <ele>1113.94</ele>
        <time>2024-10-02T13:17:16.000Z</time>
      </trkpt>
      <trkpt lat="42.68854" lon="-0.31912">
        <ele>1112.98</ele>
        <time>2024-10-02T13:17:21.000Z</time>
      </trkpt>
      <trkpt lat="42.68865" lon="-0.31886">
        <ele>1112.11</ele>
        <time>2024-10-02T13:17:26.000Z</time>
      </trkpt>
      <trkpt lat="42.68874" lon="-0.3186">
        <ele>1111.55</ele>
        <time>2024-10-02T13:17:31.000Z</time>
      </trkpt>
      <trkpt lat="42.68881" lon="-0.31836">
        <ele>1111.29</ele>
        <time>2024-10-02T13:17:36.000Z</time>
      </trkpt>
      <trkpt lat="42.68888" lon="-0.31809">
        <ele>1110.99</ele>
        <time>2024-10-02T13:17:41.000Z</time>
      </trkpt>
      <trkpt lat="42.68893" lon="-0.31781">
        <ele>1110.41</ele>
        <time>2024-10-02T13:17:46.000Z</time>
      </trkpt>
      <trkpt lat="42.68899" lon="-0.31753">
        <ele>1109.82</ele>
        <time>2024-10-02T13:17:51.000Z</time>
      </trkpt>
      <trkpt lat="42.68904" lon="-0.31724">
        <ele>1109.22</ele>
        <time>2024-10-02T13:17:56.000Z</time>
      </trkpt>
      <trkpt lat="42.68908" lon="-0.317">
        <ele>1109.01</ele>
        <time>2024-10-02T13:18:01.000Z</time>
      </trkpt>
      <trkpt lat="42.68915" lon="-0.31678">
        <ele>1108.91</ele>
        <time>2024-10-02T13:18:06.000Z</time>
      </trkpt>
      <trkpt lat="42.68923" lon="-0.31657">
        <ele>1108.59</ele>
        <time>2024-10-02T13:18:11.000Z</time>
      </trkpt>
      <trkpt lat="42.68934" lon="-0.31639">
        <ele>1108.49</ele>
        <time>2024-10-02T13:18:16.000Z</time>
      </trkpt>
      <trkpt lat="42.6895" lon="-0.31624">
        <ele>1108.2</ele>
        <time>2024-10-02T13:18:21.000Z</time>
      </trkpt>
      <trkpt lat="42.68965" lon="-0.31611">
        <ele>1108.03</ele>
        <time>2024-10-02T13:18:26.000Z</time>
      </trkpt>
      <trkpt lat="42.68981" lon="-0.31599">
        <ele>1107.98</ele>
        <time>2024-10-02T13:18:31.000Z</time>
      </trkpt>
      <trkpt lat="42.68999" lon="-0.31588">
        <ele>1108.01</ele>
        <time>2024-10-02T13:18:36.000Z</time>
      </trkpt>
      <trkpt lat="42.69017" lon="-0.31579">
        <ele>1108.12</ele>
        <time>2024-10-02T13:18:41.000Z</time>
      </trkpt>
      <trkpt lat="42.69035" lon="-0.31572">
        <ele>1108.18</ele>
        <time>2024-10-02T13:18:46.000Z</time>
      </trkpt>
      <trkpt lat="42.69054" lon="-0.31566">
        <ele>1108.66</ele>
        <time>2024-10-02T13:18:51.000Z</time>
      </trkpt>
      <trkpt lat="42.69072" lon="-0.31563">
        <ele>1108.95</ele>
        <time>2024-10-02T13:18:56.000Z</time>
      </trkpt>
      <trkpt lat="42.69093" lon="-0.31561">
        <ele>1109.39</ele>
        <time>2024-10-02T13:19:01.000Z</time>
      </trkpt>
      <trkpt lat="42.69112" lon="-0.31562">
        <ele>1109.83</ele>
        <time>2024-10-02T13:19:06.000Z</time>
      </trkpt>
      <trkpt lat="42.69133" lon="-0.31566">
        <ele>1110.2</ele>
        <time>2024-10-02T13:19:11.000Z</time>
      </trkpt>
      <trkpt lat="42.69153" lon="-0.31571">
        <ele>1110.55</ele>
        <time>2024-10-02T13:19:16.000Z</time>
      </trkpt>
      <trkpt lat="42.69177" lon="-0.31577">
        <ele>1110.97</ele>
        <time>2024-10-02T13:19:21.000Z</time>
      </trkpt>
      <trkpt lat="42.69204" lon="-0.31577">
        <ele>1111.37</ele>
        <time>2024-10-02T13:19:26.000Z</time>
      </trkpt>
      <trkpt lat="42.69232" lon="-0.31575">
        <ele>1111.72</ele>
        <time>2024-10-02T13:19:31.000Z</time>
      </trkpt>
      <trkpt lat="42.69259" lon="-0.31574">
        <ele>1111.91</ele>
        <time>2024-10-02T13:19:36.000Z</time>
      </trkpt>
      <trkpt lat="42.69288" lon="-0.31573">
        <ele>1112.09</ele>
        <time>2024-10-02T13:19:41.000Z</time>
      </trkpt>
      <trkpt lat="42.6931" lon="-0.31581">
        <ele>1112.22</ele>
        <time>2024-10-02T13:19:46.000Z</time>
      </trkpt>
      <trkpt lat="42.69331" lon="-0.31594">
        <ele>1112.37</ele>
        <time>2024-10-02T13:19:51.000Z</time>
      </trkpt>
      <trkpt lat="42.69355" lon="-0.31608">
        <ele>1112.53</ele>
        <time>2024-10-02T13:19:56.000Z</time>
      </trkpt>
      <trkpt lat="42.69379" lon="-0.3162">
        <ele>1112.67</ele>
        <time>2024-10-02T13:20:01.000Z</time>
      </trkpt>
      <trkpt lat="42.69403" lon="-0.31628">
        <ele>1112.77</ele>
        <time>2024-10-02T13:20:06.000Z</time>
      </trkpt>
      <trkpt lat="42.69426" lon="-0.31628">
        <ele>1112.85</ele>
        <time>2024-10-02T13:20:11.000Z</time>
      </trkpt>
      <trkpt lat="42.6945" lon="-0.31626">
        <ele>1112.88</ele>
        <time>2024-10-02T13:20:16.000Z</time>
      </trkpt>
      <trkpt lat="42.6947" lon="-0.31618">
        <ele>1112.93</ele>
        <time>2024-10-02T13:20:21.000Z</time>
      </trkpt>
      <trkpt lat="42.6949" lon="-0.3161">
        <ele>1112.97</ele>
        <time>2024-10-02T13:20:26.000Z</time>
      </trkpt>
      <trkpt lat="42.69513" lon="-0.31604">
        <ele>1113.04</ele>
        <time>2024-10-02T13:20:31.000Z</time>
      </trkpt>
      <trkpt lat="42.69535" lon="-0.31606">
        <ele>1113.12</ele>
        <time>2024-10-02T13:20:36.000Z</time>
      </trkpt>
      <trkpt lat="42.69557" lon="-0.31614">
        <ele>1113.19</ele>
        <time>2024-10-02T13:20:41.999Z</time>
      </trkpt>
      <trkpt lat="42.69575" lon="-0.31627">
        <ele>1113.86</ele>
        <time>2024-10-02T13:20:46.999Z</time>
      </trkpt>
      <trkpt lat="42.6959" lon="-0.31646">
        <ele>1114.42</ele>
        <time>2024-10-02T13:20:51.999Z</time>
      </trkpt>
      <trkpt lat="42.69608" lon="-0.31667">
        <ele>1114.9</ele>
        <time>2024-10-02T13:20:56.999Z</time>
      </trkpt>
      <trkpt lat="42.69623" lon="-0.31693">
        <ele>1115.26</ele>
        <time>2024-10-02T13:21:01.999Z</time>
      </trkpt>
      <trkpt lat="42.69633" lon="-0.3172">
        <ele>1115.44</ele>
        <time>2024-10-02T13:21:06.999Z</time>
      </trkpt>
      <trkpt lat="42.69641" lon="-0.31747">
        <ele>1115.46</ele>
        <time>2024-10-02T13:21:11.999Z</time>
      </trkpt>
      <trkpt lat="42.69648" lon="-0.31775">
        <ele>1115.41</ele>
        <time>2024-10-02T13:21:16.999Z</time>
      </trkpt>
      <trkpt lat="42.69658" lon="-0.31799">
        <ele>1115.38</ele>
        <time>2024-10-02T13:21:21.999Z</time>
      </trkpt>
      <trkpt lat="42.69675" lon="-0.31817">
        <ele>1115.31</ele>
        <time>2024-10-02T13:21:26.999Z</time>
      </trkpt>
      <trkpt lat="42.69691" lon="-0.31836">
        <ele>1115.24</ele>
        <time>2024-10-02T13:21:31.999Z</time>
      </trkpt>
      <trkpt lat="42.69709" lon="-0.31852">
        <ele>1115.24</ele>
        <time>2024-10-02T13:21:36.999Z</time>
      </trkpt>
      <trkpt lat="42.69724" lon="-0.31867">
        <ele>1115.25</ele>
        <time>2024-10-02T13:21:41.999Z</time>
      </trkpt>
      <trkpt lat="42.69742" lon="-0.31881">
        <ele>1115.33</ele>
        <time>2024-10-02T13:21:46.999Z</time>
      </trkpt>
      <trkpt lat="42.69759" lon="-0.31892">
        <ele>1115.35</ele>
        <time>2024-10-02T13:21:51.999Z</time>
      </trkpt>
      <trkpt lat="42.69774" lon="-0.31903">
        <ele>1115.36</ele>
        <time>2024-10-02T13:21:56.999Z</time>
      </trkpt>
      <trkpt lat="42.69794" lon="-0.31916">
        <ele>1115.38</ele>
        <time>2024-10-02T13:22:01.999Z</time>
      </trkpt>
      <trkpt lat="42.69813" lon="-0.31925">
        <ele>1115.41</ele>
        <time>2024-10-02T13:22:06.999Z</time>
      </trkpt>
      <trkpt lat="42.69834" lon="-0.3193">
        <ele>1115.48</ele>
        <time>2024-10-02T13:22:11.999Z</time>
      </trkpt>
      <trkpt lat="42.69859" lon="-0.31932">
        <ele>1115.56</ele>
        <time>2024-10-02T13:22:16.999Z</time>
      </trkpt>
      <trkpt lat="42.69883" lon="-0.31935">
        <ele>1115.48</ele>
        <time>2024-10-02T13:22:21.999Z</time>
      </trkpt>
      <trkpt lat="42.69903" lon="-0.31936">
        <ele>1115.21</ele>
        <time>2024-10-02T13:22:26.999Z</time>
      </trkpt>
      <trkpt lat="42.69925" lon="-0.31938">
        <ele>1115.03</ele>
        <time>2024-10-02T13:22:31.999Z</time>
      </trkpt>
      <trkpt lat="42.69946" lon="-0.31941">
        <ele>1114.2</ele>
        <time>2024-10-02T13:22:36.999Z</time>
      </trkpt>
      <trkpt lat="42.69968" lon="-0.31942">
        <ele>1113.24</ele>
        <time>2024-10-02T13:22:41.999Z</time>
      </trkpt>
      <trkpt lat="42.69988" lon="-0.31945">
        <ele>1112.9</ele>
        <time>2024-10-02T13:22:46.999Z</time>
      </trkpt>
      <trkpt lat="42.70003" lon="-0.31947">
        <ele>1112.67</ele>
        <time>2024-10-02T13:22:51.999Z</time>
      </trkpt>
      <trkpt lat="42.70021" lon="-0.3195">
        <ele>1112.42</ele>
        <time>2024-10-02T13:22:56.999Z</time>
      </trkpt>
      <trkpt lat="42.70043" lon="-0.31953">
        <ele>1112.04</ele>
        <time>2024-10-02T13:23:01.999Z</time>
      </trkpt>
      <trkpt lat="42.70062" lon="-0.31957">
        <ele>1112.12</ele>
        <time>2024-10-02T13:23:06.999Z</time>
      </trkpt>
      <trkpt lat="42.70083" lon="-0.31961">
        <ele>1113.04</ele>
        <time>2024-10-02T13:23:11.999Z</time>
      </trkpt>
      <trkpt lat="42.70105" lon="-0.31963">
        <ele>1113.6</ele>
        <time>2024-10-02T13:23:16.999Z</time>
      </trkpt>
      <trkpt lat="42.70122" lon="-0.31967">
        <ele>1113.96</ele>
        <time>2024-10-02T13:23:21.999Z</time>
      </trkpt>
      <trkpt lat="42.70131" lon="-0.31969">
        <ele>1114.04</ele>
        <time>2024-10-02T13:24:00.999Z</time>
      </trkpt>
      <trkpt lat="42.70145" lon="-0.31972">
        <ele>1113.98</ele>
        <time>2024-10-02T13:24:05.999Z</time>
      </trkpt>
      <trkpt lat="42.70161" lon="-0.31975">
        <ele>1113.94</ele>
        <time>2024-10-02T13:24:10.999Z</time>
      </trkpt>
      <trkpt lat="42.70179" lon="-0.31979">
        <ele>1113.9</ele>
        <time>2024-10-02T13:24:15.999Z</time>
      </trkpt>
      <trkpt lat="42.70199" lon="-0.31984">
        <ele>1113.99</ele>
        <time>2024-10-02T13:24:20.999Z</time>
      </trkpt>
      <trkpt lat="42.70219" lon="-0.31989">
        <ele>1114.5</ele>
        <time>2024-10-02T13:24:25.999Z</time>
      </trkpt>
      <trkpt lat="42.7024" lon="-0.31993">
        <ele>1115.42</ele>
        <time>2024-10-02T13:24:30.999Z</time>
      </trkpt>
      <trkpt lat="42.70263" lon="-0.31998">
        <ele>1116.2</ele>
        <time>2024-10-02T13:24:35.999Z</time>
      </trkpt>
      <trkpt lat="42.70287" lon="-0.31998">
        <ele>1116.7</ele>
        <time>2024-10-02T13:24:40.999Z</time>
      </trkpt>
      <trkpt lat="42.70311" lon="-0.31993">
        <ele>1117.02</ele>
        <time>2024-10-02T13:24:45.999Z</time>
      </trkpt>
      <trkpt lat="42.70333" lon="-0.31981">
        <ele>1117.26</ele>
        <time>2024-10-02T13:24:50.999Z</time>
      </trkpt>
      <trkpt lat="42.70354" lon="-0.31963">
        <ele>1117.09</ele>
        <time>2024-10-02T13:24:55.999Z</time>
      </trkpt>
      <trkpt lat="42.70368" lon="-0.31942">
        <ele>1116.7</ele>
        <time>2024-10-02T13:25:00.999Z</time>
      </trkpt>
      <trkpt lat="42.7038" lon="-0.31913">
        <ele>1116.33</ele>
        <time>2024-10-02T13:25:05.999Z</time>
      </trkpt>
      <trkpt lat="42.70389" lon="-0.31883">
        <ele>1115.92</ele>
        <time>2024-10-02T13:25:10.999Z</time>
      </trkpt>
      <trkpt lat="42.70397" lon="-0.31853">
        <ele>1115.64</ele>
        <time>2024-10-02T13:25:15.999Z</time>
      </trkpt>
      <trkpt lat="42.70405" lon="-0.31824">
        <ele>1115.56</ele>
        <time>2024-10-02T13:25:20.999Z</time>
      </trkpt>
      <trkpt lat="42.70412" lon="-0.31795">
        <ele>1115.62</ele>
        <time>2024-10-02T13:25:25.999Z</time>
      </trkpt>
      <trkpt lat="42.70419" lon="-0.31768">
        <ele>1115.8</ele>
        <time>2024-10-02T13:25:30.999Z</time>
      </trkpt>
      <trkpt lat="42.70429" lon="-0.31742">
        <ele>1115.93</ele>
        <time>2024-10-02T13:25:35.999Z</time>
      </trkpt>
      <trkpt lat="42.70441" lon="-0.31718">
        <ele>1116.06</ele>
        <time>2024-10-02T13:25:40.999Z</time>
      </trkpt>
      <trkpt lat="42.70453" lon="-0.31699">
        <ele>1116.19</ele>
        <time>2024-10-02T13:25:45.999Z</time>
      </trkpt>
      <trkpt lat="42.70466" lon="-0.31681">
        <ele>1116.33</ele>
        <time>2024-10-02T13:25:50.999Z</time>
      </trkpt>
      <trkpt lat="42.7048" lon="-0.31664">
        <ele>1116.36</ele>
        <time>2024-10-02T13:25:55.999Z</time>
      </trkpt>
      <trkpt lat="42.70494" lon="-0.31649">
        <ele>1116.39</ele>
        <time>2024-10-02T13:26:00.999Z</time>
      </trkpt>
      <trkpt lat="42.7051" lon="-0.31635">
        <ele>1116.47</ele>
        <time>2024-10-02T13:26:05.999Z</time>
      </trkpt>
      <trkpt lat="42.70527" lon="-0.31622">
        <ele>1116.57</ele>
        <time>2024-10-02T13:26:10.999Z</time>
      </trkpt>
      <trkpt lat="42.70541" lon="-0.3161">
        <ele>1116.69</ele>
        <time>2024-10-02T13:26:15.999Z</time>
      </trkpt>
      <trkpt lat="42.70557" lon="-0.31598">
        <ele>1116.83</ele>
        <time>2024-10-02T13:26:20.999Z</time>
      </trkpt>
      <trkpt lat="42.70573" lon="-0.31586">
        <ele>1116.98</ele>
        <time>2024-10-02T13:26:25.999Z</time>
      </trkpt>
      <trkpt lat="42.70588" lon="-0.31575">
        <ele>1117.37</ele>
        <time>2024-10-02T13:26:30.999Z</time>
      </trkpt>
      <trkpt lat="42.70601" lon="-0.31556">
        <ele>1117.59</ele>
        <time>2024-10-02T13:26:35.999Z</time>
      </trkpt>
      <trkpt lat="42.70617" lon="-0.31541">
        <ele>1117.75</ele>
        <time>2024-10-02T13:26:40.999Z</time>
      </trkpt>
      <trkpt lat="42.70632" lon="-0.31527">
        <ele>1117.92</ele>
        <time>2024-10-02T13:26:45.999Z</time>
      </trkpt>
      <trkpt lat="42.70647" lon="-0.31512">
        <ele>1118.41</ele>
        <time>2024-10-02T13:26:50.999Z</time>
      </trkpt>
      <trkpt lat="42.70661" lon="-0.31498">
        <ele>1118.57</ele>
        <time>2024-10-02T13:26:55.999Z</time>
      </trkpt>
      <trkpt lat="42.70674" lon="-0.31483">
        <ele>1118.73</ele>
        <time>2024-10-02T13:27:00.999Z</time>
      </trkpt>
      <trkpt lat="42.70686" lon="-0.31464">
        <ele>1118.89</ele>
        <time>2024-10-02T13:27:05.999Z</time>
      </trkpt>
      <trkpt lat="42.70697" lon="-0.31442">
        <ele>1119.71</ele>
        <time>2024-10-02T13:27:10.999Z</time>
      </trkpt>
      <trkpt lat="42.70706" lon="-0.31416">
        <ele>1120.38</ele>
        <time>2024-10-02T13:27:15.999Z</time>
      </trkpt>
      <trkpt lat="42.70714" lon="-0.31388">
        <ele>1120.65</ele>
        <time>2024-10-02T13:27:20.999Z</time>
      </trkpt>
      <trkpt lat="42.70721" lon="-0.31355">
        <ele>1120.77</ele>
        <time>2024-10-02T13:27:25.999Z</time>
      </trkpt>
      <trkpt lat="42.70727" lon="-0.31322">
        <ele>1120.88</ele>
        <time>2024-10-02T13:27:30.999Z</time>
      </trkpt>
      <trkpt lat="42.70732" lon="-0.31286">
        <ele>1121.04</ele>
        <time>2024-10-02T13:27:35.999Z</time>
      </trkpt>
      <trkpt lat="42.70739" lon="-0.31251">
        <ele>1121.16</ele>
        <time>2024-10-02T13:27:40.999Z</time>
      </trkpt>
      <trkpt lat="42.70754" lon="-0.31215">
        <ele>1121.27</ele>
        <time>2024-10-02T13:27:45.999Z</time>
      </trkpt>
      <trkpt lat="42.70777" lon="-0.31185">
        <ele>1121.49</ele>
        <time>2024-10-02T13:27:50.999Z</time>
      </trkpt>
      <trkpt lat="42.70809" lon="-0.31165">
        <ele>1121.99</ele>
        <time>2024-10-02T13:27:55.999Z</time>
      </trkpt>
      <trkpt lat="42.70843" lon="-0.31151">
        <ele>1122.58</ele>
        <time>2024-10-02T13:28:00.999Z</time>
      </trkpt>
      <trkpt lat="42.70877" lon="-0.31132">
        <ele>1122.98</ele>
        <time>2024-10-02T13:28:05.999Z</time>
      </trkpt>
      <trkpt lat="42.70911" lon="-0.31113">
        <ele>1122.88</ele>
        <time>2024-10-02T13:28:10.999Z</time>
      </trkpt>
      <trkpt lat="42.70947" lon="-0.31094">
        <ele>1123.28</ele>
        <time>2024-10-02T13:28:15.999Z</time>
      </trkpt>
      <trkpt lat="42.70984" lon="-0.31073">
        <ele>1123.61</ele>
        <time>2024-10-02T13:28:20.999Z</time>
      </trkpt>
      <trkpt lat="42.71019" lon="-0.31051">
        <ele>1123.47</ele>
        <time>2024-10-02T13:28:25.999Z</time>
      </trkpt>
      <trkpt lat="42.71051" lon="-0.31036">
        <ele>1122.59</ele>
        <time>2024-10-02T13:28:30.999Z</time>
      </trkpt>
      <trkpt lat="42.71077" lon="-0.31027">
        <ele>1121.96</ele>
        <time>2024-10-02T13:28:35.999Z</time>
      </trkpt>
      <trkpt lat="42.71098" lon="-0.31026">
        <ele>1122.14</ele>
        <time>2024-10-02T13:28:40.999Z</time>
      </trkpt>
      <trkpt lat="42.71115" lon="-0.31026">
        <ele>1122.04</ele>
        <time>2024-10-02T13:28:45.999Z</time>
      </trkpt>
      <trkpt lat="42.7113" lon="-0.31026">
        <ele>1121.97</ele>
        <time>2024-10-02T13:28:50.999Z</time>
      </trkpt>
      <trkpt lat="42.71142" lon="-0.31029">
        <ele>1122.13</ele>
        <time>2024-10-02T13:28:55.999Z</time>
      </trkpt>
      <trkpt lat="42.71155" lon="-0.31036">
        <ele>1122.52</ele>
        <time>2024-10-02T13:29:00.999Z</time>
      </trkpt>
      <trkpt lat="42.71168" lon="-0.31046">
        <ele>1122.9</ele>
        <time>2024-10-02T13:29:05.999Z</time>
      </trkpt>
      <trkpt lat="42.71181" lon="-0.31054">
        <ele>1123.21</ele>
        <time>2024-10-02T13:29:10.999Z</time>
      </trkpt>
      <trkpt lat="42.71196" lon="-0.31063">
        <ele>1123.46</ele>
        <time>2024-10-02T13:29:15.999Z</time>
      </trkpt>
      <trkpt lat="42.71211" lon="-0.31072">
        <ele>1123.69</ele>
        <time>2024-10-02T13:29:20.999Z</time>
      </trkpt>
      <trkpt lat="42.71226" lon="-0.31081">
        <ele>1123.89</ele>
        <time>2024-10-02T13:29:25.999Z</time>
      </trkpt>
      <trkpt lat="42.71242" lon="-0.31091">
        <ele>1124.04</ele>
        <time>2024-10-02T13:29:30.999Z</time>
      </trkpt>
      <trkpt lat="42.7126" lon="-0.311">
        <ele>1124.15</ele>
        <time>2024-10-02T13:29:35.999Z</time>
      </trkpt>
      <trkpt lat="42.71277" lon="-0.31108">
        <ele>1124.21</ele>
        <time>2024-10-02T13:29:40.999Z</time>
      </trkpt>
      <trkpt lat="42.71296" lon="-0.31111">
        <ele>1124.22</ele>
        <time>2024-10-02T13:29:45.999Z</time>
      </trkpt>
      <trkpt lat="42.71314" lon="-0.3111">
        <ele>1124.21</ele>
        <time>2024-10-02T13:29:50.999Z</time>
      </trkpt>
      <trkpt lat="42.71331" lon="-0.31107">
        <ele>1124.19</ele>
        <time>2024-10-02T13:29:55.999Z</time>
      </trkpt>
      <trkpt lat="42.71348" lon="-0.31098">
        <ele>1124.16</ele>
        <time>2024-10-02T13:30:00.999Z</time>
      </trkpt>
      <trkpt lat="42.71363" lon="-0.31083">
        <ele>1123.75</ele>
        <time>2024-10-02T13:30:05.999Z</time>
      </trkpt>
      <trkpt lat="42.71375" lon="-0.31066">
        <ele>1123.6</ele>
        <time>2024-10-02T13:30:10.999Z</time>
      </trkpt>
      <trkpt lat="42.71388" lon="-0.31045">
        <ele>1123</ele>
        <time>2024-10-02T13:30:15.999Z</time>
      </trkpt>
      <trkpt lat="42.71401" lon="-0.31021">
        <ele>1122.19</ele>
        <time>2024-10-02T13:30:20.999Z</time>
      </trkpt>
      <trkpt lat="42.71416" lon="-0.30997">
        <ele>1121.64</ele>
        <time>2024-10-02T13:30:25.999Z</time>
      </trkpt>
      <trkpt lat="42.71434" lon="-0.30975">
        <ele>1121.42</ele>
        <time>2024-10-02T13:30:30.999Z</time>
      </trkpt>
      <trkpt lat="42.71455" lon="-0.30956">
        <ele>1121.15</ele>
        <time>2024-10-02T13:30:35.999Z</time>
      </trkpt>
      <trkpt lat="42.71479" lon="-0.30939">
        <ele>1120.69</ele>
        <time>2024-10-02T13:30:40.999Z</time>
      </trkpt>
      <trkpt lat="42.71505" lon="-0.30924">
        <ele>1120.44</ele>
        <time>2024-10-02T13:30:45.999Z</time>
      </trkpt>
      <trkpt lat="42.71528" lon="-0.30909">
        <ele>1120.37</ele>
        <time>2024-10-02T13:30:50.999Z</time>
      </trkpt>
      <trkpt lat="42.71549" lon="-0.30895">
        <ele>1120.48</ele>
        <time>2024-10-02T13:30:55.999Z</time>
      </trkpt>
      <trkpt lat="42.71568" lon="-0.30882">
        <ele>1120.61</ele>
        <time>2024-10-02T13:31:00.999Z</time>
      </trkpt>
      <trkpt lat="42.71586" lon="-0.30868">
        <ele>1120.73</ele>
        <time>2024-10-02T13:31:05.999Z</time>
      </trkpt>
      <trkpt lat="42.71602" lon="-0.30857">
        <ele>1120.79</ele>
        <time>2024-10-02T13:31:10.999Z</time>
      </trkpt>
      <trkpt lat="42.71619" lon="-0.30845">
        <ele>1120.94</ele>
        <time>2024-10-02T13:31:15.999Z</time>
      </trkpt>
      <trkpt lat="42.71637" lon="-0.30832">
        <ele>1121.07</ele>
        <time>2024-10-02T13:31:20.999Z</time>
      </trkpt>
      <trkpt lat="42.71649" lon="-0.30817">
        <ele>1121.09</ele>
        <time>2024-10-02T13:31:25.999Z</time>
      </trkpt>
      <trkpt lat="42.71661" lon="-0.30799">
        <ele>1121.11</ele>
        <time>2024-10-02T13:31:30.999Z</time>
      </trkpt>
      <trkpt lat="42.7167" lon="-0.30783">
        <ele>1121.11</ele>
        <time>2024-10-02T13:31:35.999Z</time>
      </trkpt>
      <trkpt lat="42.71676" lon="-0.30771">
        <ele>1121.09</ele>
        <time>2024-10-02T13:31:40.999Z</time>
      </trkpt>
      <trkpt lat="42.7168" lon="-0.30759">
        <ele>1120.9</ele>
        <time>2024-10-02T13:32:07.999Z</time>
      </trkpt>
      <trkpt lat="42.7169" lon="-0.30752">
        <ele>1120.79</ele>
        <time>2024-10-02T13:32:12.999Z</time>
      </trkpt>
      <trkpt lat="42.71699" lon="-0.30737">
        <ele>1120.69</ele>
        <time>2024-10-02T13:32:17.999Z</time>
      </trkpt>
      <trkpt lat="42.71711" lon="-0.30716">
        <ele>1120.44</ele>
        <time>2024-10-02T13:32:22.999Z</time>
      </trkpt>
      <trkpt lat="42.71724" lon="-0.30704">
        <ele>1120.06</ele>
        <time>2024-10-02T13:32:27.999Z</time>
      </trkpt>
      <trkpt lat="42.71738" lon="-0.30687">
        <ele>1119.73</ele>
        <time>2024-10-02T13:32:32.999Z</time>
      </trkpt>
      <trkpt lat="42.71749" lon="-0.30674">
        <ele>1119.49</ele>
        <time>2024-10-02T13:32:37.999Z</time>
      </trkpt>
      <trkpt lat="42.71767" lon="-0.3066">
        <ele>1118.7</ele>
        <time>2024-10-02T13:32:42.999Z</time>
      </trkpt>
      <trkpt lat="42.71786" lon="-0.30647">
        <ele>1117.88</ele>
        <time>2024-10-02T13:32:48.000Z</time>
      </trkpt>
      <trkpt lat="42.71804" lon="-0.30638">
        <ele>1117.68</ele>
        <time>2024-10-02T13:32:53.000Z</time>
      </trkpt>
      <trkpt lat="42.71825" lon="-0.30627">
        <ele>1117.55</ele>
        <time>2024-10-02T13:32:58.000Z</time>
      </trkpt>
      <trkpt lat="42.71848" lon="-0.3062">
        <ele>1117.41</ele>
        <time>2024-10-02T13:33:03.000Z</time>
      </trkpt>
      <trkpt lat="42.71871" lon="-0.30615">
        <ele>1117.24</ele>
        <time>2024-10-02T13:33:08.000Z</time>
      </trkpt>
      <trkpt lat="42.71894" lon="-0.30614">
        <ele>1117.06</ele>
        <time>2024-10-02T13:33:13.000Z</time>
      </trkpt>
      <trkpt lat="42.71917" lon="-0.30615">
        <ele>1116.85</ele>
        <time>2024-10-02T13:33:18.000Z</time>
      </trkpt>
      <trkpt lat="42.7194" lon="-0.30617">
        <ele>1116.67</ele>
        <time>2024-10-02T13:33:23.000Z</time>
      </trkpt>
      <trkpt lat="42.71965" lon="-0.30619">
        <ele>1116.67</ele>
        <time>2024-10-02T13:33:28.000Z</time>
      </trkpt>
      <trkpt lat="42.71989" lon="-0.30621">
        <ele>1116.77</ele>
        <time>2024-10-02T13:33:33.000Z</time>
      </trkpt>
      <trkpt lat="42.72011" lon="-0.30623">
        <ele>1116.91</ele>
        <time>2024-10-02T13:33:38.000Z</time>
      </trkpt>
      <trkpt lat="42.72031" lon="-0.30625">
        <ele>1117.02</ele>
        <time>2024-10-02T13:33:43.000Z</time>
      </trkpt>
      <trkpt lat="42.72051" lon="-0.30626">
        <ele>1117.2</ele>
        <time>2024-10-02T13:33:48.000Z</time>
      </trkpt>
      <trkpt lat="42.72071" lon="-0.30629">
        <ele>1117.16</ele>
        <time>2024-10-02T13:33:53.000Z</time>
      </trkpt>
      <trkpt lat="42.7209" lon="-0.30631">
        <ele>1117.11</ele>
        <time>2024-10-02T13:33:58.000Z</time>
      </trkpt>
      <trkpt lat="42.72108" lon="-0.30632">
        <ele>1117.09</ele>
        <time>2024-10-02T13:34:03.000Z</time>
      </trkpt>
      <trkpt lat="42.72126" lon="-0.30633">
        <ele>1117.09</ele>
        <time>2024-10-02T13:34:08.000Z</time>
      </trkpt>
      <trkpt lat="42.72143" lon="-0.30634">
        <ele>1117.09</ele>
        <time>2024-10-02T13:34:13.000Z</time>
      </trkpt>
      <trkpt lat="42.72161" lon="-0.30636">
        <ele>1117.12</ele>
        <time>2024-10-02T13:34:18.000Z</time>
      </trkpt>
      <trkpt lat="42.72178" lon="-0.30639">
        <ele>1117.18</ele>
        <time>2024-10-02T13:34:23.000Z</time>
      </trkpt>
      <trkpt lat="42.72196" lon="-0.30639">
        <ele>1117.39</ele>
        <time>2024-10-02T13:34:28.000Z</time>
      </trkpt>
      <trkpt lat="42.72213" lon="-0.30641">
        <ele>1117.48</ele>
        <time>2024-10-02T13:34:33.000Z</time>
      </trkpt>
      <trkpt lat="42.72231" lon="-0.30642">
        <ele>1117.58</ele>
        <time>2024-10-02T13:34:38.000Z</time>
      </trkpt>
      <trkpt lat="42.7225" lon="-0.30644">
        <ele>1117.66</ele>
        <time>2024-10-02T13:34:43.000Z</time>
      </trkpt>
      <trkpt lat="42.72267" lon="-0.30646">
        <ele>1117.7</ele>
        <time>2024-10-02T13:34:48.000Z</time>
      </trkpt>
      <trkpt lat="42.72281" lon="-0.30649">
        <ele>1117.62</ele>
        <time>2024-10-02T13:34:53.000Z</time>
      </trkpt>
      <trkpt lat="42.72295" lon="-0.30651">
        <ele>1117.52</ele>
        <time>2024-10-02T13:34:58.000Z</time>
      </trkpt>
      <trkpt lat="42.7231" lon="-0.30653">
        <ele>1117.38</ele>
        <time>2024-10-02T13:35:03.000Z</time>
      </trkpt>
      <trkpt lat="42.72324" lon="-0.30654">
        <ele>1117.34</ele>
        <time>2024-10-02T13:35:08.000Z</time>
      </trkpt>
      <trkpt lat="42.72338" lon="-0.30656">
        <ele>1117.33</ele>
        <time>2024-10-02T13:35:13.000Z</time>
      </trkpt>
      <trkpt lat="42.72349" lon="-0.30659">
        <ele>1117.3</ele>
        <time>2024-10-02T13:35:18.000Z</time>
      </trkpt>
      <trkpt lat="42.72362" lon="-0.3066">
        <ele>1117.23</ele>
        <time>2024-10-02T13:35:23.000Z</time>
      </trkpt>
      <trkpt lat="42.72375" lon="-0.30662">
        <ele>1117.27</ele>
        <time>2024-10-02T13:35:28.000Z</time>
      </trkpt>
      <trkpt lat="42.72387" lon="-0.30666">
        <ele>1117.38</ele>
        <time>2024-10-02T13:35:33.000Z</time>
      </trkpt>
      <trkpt lat="42.72401" lon="-0.30668">
        <ele>1117.49</ele>
        <time>2024-10-02T13:35:38.000Z</time>
      </trkpt>
      <trkpt lat="42.72415" lon="-0.3067">
        <ele>1117.67</ele>
        <time>2024-10-02T13:35:43.000Z</time>
      </trkpt>
      <trkpt lat="42.72428" lon="-0.30674">
        <ele>1117.89</ele>
        <time>2024-10-02T13:35:48.000Z</time>
      </trkpt>
      <trkpt lat="42.72442" lon="-0.30679">
        <ele>1118.09</ele>
        <time>2024-10-02T13:35:53.000Z</time>
      </trkpt>
      <trkpt lat="42.72456" lon="-0.30683">
        <ele>1118.28</ele>
        <time>2024-10-02T13:35:58.000Z</time>
      </trkpt>
      <trkpt lat="42.7247" lon="-0.30688">
        <ele>1118.51</ele>
        <time>2024-10-02T13:36:03.000Z</time>
      </trkpt>
      <trkpt lat="42.72484" lon="-0.30692">
        <ele>1118.8</ele>
        <time>2024-10-02T13:36:08.000Z</time>
      </trkpt>
      <trkpt lat="42.72499" lon="-0.30696">
        <ele>1119.12</ele>
        <time>2024-10-02T13:36:13.000Z</time>
      </trkpt>
      <trkpt lat="42.72515" lon="-0.30699">
        <ele>1119.51</ele>
        <time>2024-10-02T13:36:18.000Z</time>
      </trkpt>
      <trkpt lat="42.72531" lon="-0.30703">
        <ele>1119.95</ele>
        <time>2024-10-02T13:36:23.000Z</time>
      </trkpt>
      <trkpt lat="42.72546" lon="-0.30706">
        <ele>1120.41</ele>
        <time>2024-10-02T13:36:28.000Z</time>
      </trkpt>
      <trkpt lat="42.72562" lon="-0.30708">
        <ele>1120.86</ele>
        <time>2024-10-02T13:36:33.000Z</time>
      </trkpt>
      <trkpt lat="42.72575" lon="-0.3071">
        <ele>1121.34</ele>
        <time>2024-10-02T13:36:38.000Z</time>
      </trkpt>
      <trkpt lat="42.72591" lon="-0.30713">
        <ele>1121.84</ele>
        <time>2024-10-02T13:36:43.000Z</time>
      </trkpt>
      <trkpt lat="42.72606" lon="-0.30715">
        <ele>1122.4</ele>
        <time>2024-10-02T13:36:48.000Z</time>
      </trkpt>
      <trkpt lat="42.72621" lon="-0.30717">
        <ele>1123.15</ele>
        <time>2024-10-02T13:36:53.000Z</time>
      </trkpt>
      <trkpt lat="42.72637" lon="-0.30717">
        <ele>1124.03</ele>
        <time>2024-10-02T13:36:58.000Z</time>
      </trkpt>
      <trkpt lat="42.72651" lon="-0.30718">
        <ele>1124.95</ele>
        <time>2024-10-02T13:37:03.000Z</time>
      </trkpt>
      <trkpt lat="42.72665" lon="-0.30718">
        <ele>1125.82</ele>
        <time>2024-10-02T13:37:08.000Z</time>
      </trkpt>
      <trkpt lat="42.72679" lon="-0.30714">
        <ele>1126.62</ele>
        <time>2024-10-02T13:37:13.000Z</time>
      </trkpt>
      <trkpt lat="42.72691" lon="-0.30709">
        <ele>1127.37</ele>
        <time>2024-10-02T13:37:18.000Z</time>
      </trkpt>
      <trkpt lat="42.72702" lon="-0.30703">
        <ele>1128.08</ele>
        <time>2024-10-02T13:37:23.000Z</time>
      </trkpt>
      <trkpt lat="42.72713" lon="-0.30703">
        <ele>1128.78</ele>
        <time>2024-10-02T13:37:28.000Z</time>
      </trkpt>
      <trkpt lat="42.72725" lon="-0.30712">
        <ele>1129.49</ele>
        <time>2024-10-02T13:37:33.000Z</time>
      </trkpt>
      <trkpt lat="42.72736" lon="-0.30722">
        <ele>1130.19</ele>
        <time>2024-10-02T13:37:38.000Z</time>
      </trkpt>
      <trkpt lat="42.72751" lon="-0.30726">
        <ele>1130.88</ele>
        <time>2024-10-02T13:37:43.000Z</time>
      </trkpt>
      <trkpt lat="42.72765" lon="-0.30738">
        <ele>1131.55</ele>
        <time>2024-10-02T13:37:48.000Z</time>
      </trkpt>
      <trkpt lat="42.7278" lon="-0.3075">
        <ele>1132.19</ele>
        <time>2024-10-02T13:37:53.000Z</time>
      </trkpt>
      <trkpt lat="42.72793" lon="-0.30765">
        <ele>1132.79</ele>
        <time>2024-10-02T13:37:58.000Z</time>
      </trkpt>
      <trkpt lat="42.72803" lon="-0.30786">
        <ele>1133.38</ele>
        <time>2024-10-02T13:38:03.000Z</time>
      </trkpt>
      <trkpt lat="42.72814" lon="-0.30806">
        <ele>1133.94</ele>
        <time>2024-10-02T13:38:08.000Z</time>
      </trkpt>
      <trkpt lat="42.72823" lon="-0.3082">
        <ele>1134.44</ele>
        <time>2024-10-02T13:38:13.000Z</time>
      </trkpt>
      <trkpt lat="42.72833" lon="-0.30838">
        <ele>1134.9</ele>
        <time>2024-10-02T13:38:18.000Z</time>
      </trkpt>
      <trkpt lat="42.72843" lon="-0.30859">
        <ele>1135.35</ele>
        <time>2024-10-02T13:38:23.000Z</time>
      </trkpt>
      <trkpt lat="42.72851" lon="-0.30878">
        <ele>1135.74</ele>
        <time>2024-10-02T13:38:28.000Z</time>
      </trkpt>
      <trkpt lat="42.7286" lon="-0.30898">
        <ele>1136.03</ele>
        <time>2024-10-02T13:38:33.000Z</time>
      </trkpt>
      <trkpt lat="42.72872" lon="-0.30915">
        <ele>1136.28</ele>
        <time>2024-10-02T13:38:38.000Z</time>
      </trkpt>
      <trkpt lat="42.72888" lon="-0.30924">
        <ele>1136.51</ele>
        <time>2024-10-02T13:38:43.000Z</time>
      </trkpt>
      <trkpt lat="42.72905" lon="-0.30925">
        <ele>1136.73</ele>
        <time>2024-10-02T13:38:48.000Z</time>
      </trkpt>
      <trkpt lat="42.72924" lon="-0.30923">
        <ele>1136.97</ele>
        <time>2024-10-02T13:38:53.000Z</time>
      </trkpt>
      <trkpt lat="42.72939" lon="-0.30918">
        <ele>1137.29</ele>
        <time>2024-10-02T13:38:58.000Z</time>
      </trkpt>
      <trkpt lat="42.72952" lon="-0.30908">
        <ele>1137.69</ele>
        <time>2024-10-02T13:39:03.000Z</time>
      </trkpt>
      <trkpt lat="42.72964" lon="-0.30897">
        <ele>1138.13</ele>
        <time>2024-10-02T13:39:08.000Z</time>
      </trkpt>
      <trkpt lat="42.72979" lon="-0.30892">
        <ele>1138.57</ele>
        <time>2024-10-02T13:39:13.000Z</time>
      </trkpt>
      <trkpt lat="42.72994" lon="-0.30891">
        <ele>1139.01</ele>
        <time>2024-10-02T13:39:18.000Z</time>
      </trkpt>
      <trkpt lat="42.73008" lon="-0.30888">
        <ele>1139.46</ele>
        <time>2024-10-02T13:39:23.000Z</time>
      </trkpt>
      <trkpt lat="42.73022" lon="-0.30883">
        <ele>1139.9</ele>
        <time>2024-10-02T13:39:28.000Z</time>
      </trkpt>
      <trkpt lat="42.7303" lon="-0.30865">
        <ele>1140.38</ele>
        <time>2024-10-02T13:39:33.000Z</time>
      </trkpt>
      <trkpt lat="42.73032" lon="-0.30842">
        <ele>1140.95</ele>
        <time>2024-10-02T13:39:38.000Z</time>
      </trkpt>
      <trkpt lat="42.73025" lon="-0.30824">
        <ele>1141.58</ele>
        <time>2024-10-02T13:39:43.000Z</time>
      </trkpt>
      <trkpt lat="42.73013" lon="-0.3081">
        <ele>1142.19</ele>
        <time>2024-10-02T13:39:48.000Z</time>
      </trkpt>
      <trkpt lat="42.73002" lon="-0.30796">
        <ele>1142.76</ele>
        <time>2024-10-02T13:39:53.000Z</time>
      </trkpt>
      <trkpt lat="42.72993" lon="-0.30784">
        <ele>1143.36</ele>
        <time>2024-10-02T13:39:58.000Z</time>
      </trkpt>
      <trkpt lat="42.72982" lon="-0.30773">
        <ele>1143.91</ele>
        <time>2024-10-02T13:40:03.000Z</time>
      </trkpt>
      <trkpt lat="42.72973" lon="-0.30763">
        <ele>1144.36</ele>
        <time>2024-10-02T13:40:08.000Z</time>
      </trkpt>
      <trkpt lat="42.72964" lon="-0.30751">
        <ele>1144.8</ele>
        <time>2024-10-02T13:40:13.000Z</time>
      </trkpt>
      <trkpt lat="42.7296" lon="-0.30736">
        <ele>1145.22</ele>
        <time>2024-10-02T13:40:18.000Z</time>
      </trkpt>
      <trkpt lat="42.72961" lon="-0.30719">
        <ele>1145.67</ele>
        <time>2024-10-02T13:40:23.000Z</time>
      </trkpt>
      <trkpt lat="42.72962" lon="-0.307">
        <ele>1146.16</ele>
        <time>2024-10-02T13:40:28.000Z</time>
      </trkpt>
      <trkpt lat="42.72964" lon="-0.30681">
        <ele>1146.65</ele>
        <time>2024-10-02T13:40:33.000Z</time>
      </trkpt>
      <trkpt lat="42.72968" lon="-0.30663">
        <ele>1147.17</ele>
        <time>2024-10-02T13:40:38.000Z</time>
      </trkpt>
      <trkpt lat="42.72973" lon="-0.30645">
        <ele>1147.69</ele>
        <time>2024-10-02T13:40:43.000Z</time>
      </trkpt>
      <trkpt lat="42.72979" lon="-0.30627">
        <ele>1148.19</ele>
        <time>2024-10-02T13:40:48.000Z</time>
      </trkpt>
      <trkpt lat="42.72984" lon="-0.3061">
        <ele>1148.66</ele>
        <time>2024-10-02T13:40:53.000Z</time>
      </trkpt>
      <trkpt lat="42.72988" lon="-0.30594">
        <ele>1149.1</ele>
        <time>2024-10-02T13:40:58.000Z</time>
      </trkpt>
      <trkpt lat="42.72992" lon="-0.30574">
        <ele>1149.52</ele>
        <time>2024-10-02T13:41:03.000Z</time>
      </trkpt>
      <trkpt lat="42.72994" lon="-0.30553">
        <ele>1149.93</ele>
        <time>2024-10-02T13:41:08.000Z</time>
      </trkpt>
      <trkpt lat="42.72993" lon="-0.30531">
        <ele>1150.33</ele>
        <time>2024-10-02T13:41:13.000Z</time>
      </trkpt>
      <trkpt lat="42.72989" lon="-0.30509">
        <ele>1150.73</ele>
        <time>2024-10-02T13:41:18.000Z</time>
      </trkpt>
      <trkpt lat="42.72985" lon="-0.30489">
        <ele>1151.14</ele>
        <time>2024-10-02T13:41:23.000Z</time>
      </trkpt>
      <trkpt lat="42.72983" lon="-0.30468">
        <ele>1151.54</ele>
        <time>2024-10-02T13:41:28.000Z</time>
      </trkpt>
      <trkpt lat="42.72984" lon="-0.30448">
        <ele>1151.93</ele>
        <time>2024-10-02T13:41:33.000Z</time>
      </trkpt>
      <trkpt lat="42.72989" lon="-0.30429">
        <ele>1152.33</ele>
        <time>2024-10-02T13:41:38.000Z</time>
      </trkpt>
      <trkpt lat="42.72995" lon="-0.3041">
        <ele>1152.71</ele>
        <time>2024-10-02T13:41:43.000Z</time>
      </trkpt>
      <trkpt lat="42.72999" lon="-0.30389">
        <ele>1153.08</ele>
        <time>2024-10-02T13:41:48.000Z</time>
      </trkpt>
      <trkpt lat="42.73001" lon="-0.30368">
        <ele>1153.45</ele>
        <time>2024-10-02T13:41:53.000Z</time>
      </trkpt>
      <trkpt lat="42.72999" lon="-0.30347">
        <ele>1153.82</ele>
        <time>2024-10-02T13:41:58.000Z</time>
      </trkpt>
      <trkpt lat="42.72996" lon="-0.30326">
        <ele>1154.18</ele>
        <time>2024-10-02T13:42:03.000Z</time>
      </trkpt>
      <trkpt lat="42.72991" lon="-0.30305">
        <ele>1154.52</ele>
        <time>2024-10-02T13:42:08.000Z</time>
      </trkpt>
      <trkpt lat="42.72983" lon="-0.30286">
        <ele>1154.82</ele>
        <time>2024-10-02T13:42:13.000Z</time>
      </trkpt>
      <trkpt lat="42.72975" lon="-0.30267">
        <ele>1155.09</ele>
        <time>2024-10-02T13:42:18.000Z</time>
      </trkpt>
      <trkpt lat="42.72967" lon="-0.30249">
        <ele>1155.32</ele>
        <time>2024-10-02T13:42:23.000Z</time>
      </trkpt>
      <trkpt lat="42.72962" lon="-0.30229">
        <ele>1155.53</ele>
        <time>2024-10-02T13:42:28.000Z</time>
      </trkpt>
      <trkpt lat="42.72958" lon="-0.30209">
        <ele>1155.73</ele>
        <time>2024-10-02T13:42:33.000Z</time>
      </trkpt>
      <trkpt lat="42.72953" lon="-0.30192">
        <ele>1155.94</ele>
        <time>2024-10-02T13:42:38.000Z</time>
      </trkpt>
      <trkpt lat="42.72941" lon="-0.30179">
        <ele>1156.16</ele>
        <time>2024-10-02T13:42:43.000Z</time>
      </trkpt>
      <trkpt lat="42.72925" lon="-0.30173">
        <ele>1156.41</ele>
        <time>2024-10-02T13:42:48.000Z</time>
      </trkpt>
      <trkpt lat="42.72909" lon="-0.30181">
        <ele>1156.68</ele>
        <time>2024-10-02T13:42:53.000Z</time>
      </trkpt>
      <trkpt lat="42.72897" lon="-0.30193">
        <ele>1156.94</ele>
        <time>2024-10-02T13:42:58.000Z</time>
      </trkpt>
      <trkpt lat="42.72886" lon="-0.30204">
        <ele>1157.22</ele>
        <time>2024-10-02T13:43:03.000Z</time>
      </trkpt>
      <trkpt lat="42.72873" lon="-0.30215">
        <ele>1157.52</ele>
        <time>2024-10-02T13:43:08.000Z</time>
      </trkpt>
      <trkpt lat="42.72857" lon="-0.30219">
        <ele>1157.85</ele>
        <time>2024-10-02T13:43:13.000Z</time>
      </trkpt>
      <trkpt lat="42.72842" lon="-0.3021">
        <ele>1158.21</ele>
        <time>2024-10-02T13:43:18.000Z</time>
      </trkpt>
      <trkpt lat="42.72827" lon="-0.30197">
        <ele>1158.56</ele>
        <time>2024-10-02T13:43:23.000Z</time>
      </trkpt>
      <trkpt lat="42.72816" lon="-0.3018">
        <ele>1158.9</ele>
        <time>2024-10-02T13:43:28.000Z</time>
      </trkpt>
      <trkpt lat="42.72809" lon="-0.30165">
        <ele>1159.25</ele>
        <time>2024-10-02T13:43:33.000Z</time>
      </trkpt>
      <trkpt lat="42.72803" lon="-0.30153">
        <ele>1159.6</ele>
        <time>2024-10-02T13:43:38.000Z</time>
      </trkpt>
      <trkpt lat="42.72795" lon="-0.30141">
        <ele>1159.94</ele>
        <time>2024-10-02T13:43:43.000Z</time>
      </trkpt>
      <trkpt lat="42.72785" lon="-0.30131">
        <ele>1160.29</ele>
        <time>2024-10-02T13:43:48.000Z</time>
      </trkpt>
      <trkpt lat="42.72774" lon="-0.30122">
        <ele>1160.63</ele>
        <time>2024-10-02T13:43:53.000Z</time>
      </trkpt>
      <trkpt lat="42.72762" lon="-0.30117">
        <ele>1160.94</ele>
        <time>2024-10-02T13:43:58.000Z</time>
      </trkpt>
      <trkpt lat="42.72747" lon="-0.30117">
        <ele>1161.25</ele>
        <time>2024-10-02T13:44:03.000Z</time>
      </trkpt>
      <trkpt lat="42.72733" lon="-0.30121">
        <ele>1161.58</ele>
        <time>2024-10-02T13:44:08.000Z</time>
      </trkpt>
      <trkpt lat="42.72719" lon="-0.30131">
        <ele>1161.89</ele>
        <time>2024-10-02T13:44:13.000Z</time>
      </trkpt>
      <trkpt lat="42.72709" lon="-0.30145">
        <ele>1162.21</ele>
        <time>2024-10-02T13:44:18.000Z</time>
      </trkpt>
      <trkpt lat="42.72699" lon="-0.30158">
        <ele>1162.52</ele>
        <time>2024-10-02T13:44:23.000Z</time>
      </trkpt>
      <trkpt lat="42.72688" lon="-0.30168">
        <ele>1162.84</ele>
        <time>2024-10-02T13:44:28.000Z</time>
      </trkpt>
      <trkpt lat="42.72669" lon="-0.30167">
        <ele>1164.51</ele>
        <time>2024-10-02T13:44:33.000Z</time>
      </trkpt>
      <trkpt lat="42.72639" lon="-0.30168">
        <ele>1166.03</ele>
        <time>2024-10-02T13:44:38.000Z</time>
      </trkpt>
      <trkpt lat="42.72612" lon="-0.30184">
        <ele>1166.81</ele>
        <time>2024-10-02T13:44:43.000Z</time>
      </trkpt>
      <trkpt lat="42.72587" lon="-0.30199">
        <ele>1167.26</ele>
        <time>2024-10-02T13:44:48.000Z</time>
      </trkpt>
      <trkpt lat="42.72563" lon="-0.30214">
        <ele>1167.6</ele>
        <time>2024-10-02T13:44:53.000Z</time>
      </trkpt>
      <trkpt lat="42.72534" lon="-0.30229">
        <ele>1167.95</ele>
        <time>2024-10-02T13:44:58.999Z</time>
      </trkpt>
      <trkpt lat="42.72499" lon="-0.30232">
        <ele>1168.15</ele>
        <time>2024-10-02T13:45:03.999Z</time>
      </trkpt>
      <trkpt lat="42.72452" lon="-0.3023">
        <ele>1168.2</ele>
        <time>2024-10-02T13:45:08.999Z</time>
      </trkpt>
      <trkpt lat="42.72404" lon="-0.30231">
        <ele>1167.51</ele>
        <time>2024-10-02T13:45:13.999Z</time>
      </trkpt>
      <trkpt lat="42.7236" lon="-0.30229">
        <ele>1165.68</ele>
        <time>2024-10-02T13:45:18.999Z</time>
      </trkpt>
      <trkpt lat="42.72327" lon="-0.30208">
        <ele>1165.17</ele>
        <time>2024-10-02T13:45:23.999Z</time>
      </trkpt>
      <trkpt lat="42.7231" lon="-0.3017">
        <ele>1163.6</ele>
        <time>2024-10-02T13:45:28.999Z</time>
      </trkpt>
      <trkpt lat="42.72283" lon="-0.30134">
        <ele>1161.44</ele>
        <time>2024-10-02T13:45:33.999Z</time>
      </trkpt>
      <trkpt lat="42.72256" lon="-0.30108">
        <ele>1159.7</ele>
        <time>2024-10-02T13:45:38.999Z</time>
      </trkpt>
      <trkpt lat="42.72224" lon="-0.30095">
        <ele>1157.94</ele>
        <time>2024-10-02T13:45:43.999Z</time>
      </trkpt>
      <trkpt lat="42.72204" lon="-0.30063">
        <ele>1156.28</ele>
        <time>2024-10-02T13:45:48.999Z</time>
      </trkpt>
      <trkpt lat="42.72197" lon="-0.30018">
        <ele>1153.47</ele>
        <time>2024-10-02T13:45:53.999Z</time>
      </trkpt>
      <trkpt lat="42.72192" lon="-0.29978">
        <ele>1150.35</ele>
        <time>2024-10-02T13:45:58.999Z</time>
      </trkpt>
      <trkpt lat="42.72185" lon="-0.29946">
        <ele>1146.81</ele>
        <time>2024-10-02T13:46:03.999Z</time>
      </trkpt>
      <trkpt lat="42.72166" lon="-0.2995">
        <ele>1144.84</ele>
        <time>2024-10-02T13:46:08.999Z</time>
      </trkpt>
      <trkpt lat="42.72154" lon="-0.29955">
        <ele>1144.6</ele>
        <time>2024-10-02T13:46:13.999Z</time>
      </trkpt>
      <trkpt lat="42.72146" lon="-0.29948">
        <ele>1144.14</ele>
        <time>2024-10-02T13:46:19.999Z</time>
      </trkpt>
      <trkpt lat="42.7214" lon="-0.29935">
        <ele>1143.64</ele>
        <time>2024-10-02T13:46:24.999Z</time>
      </trkpt>
      <trkpt lat="42.72136" lon="-0.29921">
        <ele>1143.67</ele>
        <time>2024-10-02T13:46:43.999Z</time>
      </trkpt>
      <trkpt lat="42.72126" lon="-0.29914">
        <ele>1143.71</ele>
        <time>2024-10-02T13:46:48.999Z</time>
      </trkpt>
      <trkpt lat="42.72115" lon="-0.29907">
        <ele>1143.57</ele>
        <time>2024-10-02T13:46:53.999Z</time>
      </trkpt>
      <trkpt lat="42.72103" lon="-0.29897">
        <ele>1143.23</ele>
        <time>2024-10-02T13:46:58.999Z</time>
      </trkpt>
      <trkpt lat="42.72087" lon="-0.29886">
        <ele>1142.75</ele>
        <time>2024-10-02T13:47:03.999Z</time>
      </trkpt>
      <trkpt lat="42.72068" lon="-0.29874">
        <ele>1138.99</ele>
        <time>2024-10-02T13:47:08.999Z</time>
      </trkpt>
      <trkpt lat="42.72047" lon="-0.29867">
        <ele>1138.21</ele>
        <time>2024-10-02T13:47:13.999Z</time>
      </trkpt>
      <trkpt lat="42.72033" lon="-0.29862">
        <ele>1137.99</ele>
        <time>2024-10-02T13:47:18.999Z</time>
      </trkpt>
      <trkpt lat="42.72025" lon="-0.29859">
        <ele>1137.64</ele>
        <time>2024-10-02T13:47:26.999Z</time>
      </trkpt>
      <trkpt lat="42.72034" lon="-0.29861">
        <ele>1137.21</ele>
        <time>2024-10-02T13:47:39.999Z</time>
      </trkpt>
      <trkpt lat="42.72047" lon="-0.29864">
        <ele>1137.08</ele>
        <time>2024-10-02T13:47:44.999Z</time>
      </trkpt>
      <trkpt lat="42.72058" lon="-0.29872">
        <ele>1136.92</ele>
        <time>2024-10-02T13:47:49.999Z</time>
      </trkpt>
      <trkpt lat="42.7206" lon="-0.29886">
        <ele>1136.67</ele>
        <time>2024-10-02T13:47:54.999Z</time>
      </trkpt>
      <trkpt lat="42.72064" lon="-0.299">
        <ele>1136.37</ele>
        <time>2024-10-02T13:47:59.999Z</time>
      </trkpt>
      <trkpt lat="42.72071" lon="-0.29914">
        <ele>1136</ele>
        <time>2024-10-02T13:48:04.999Z</time>
      </trkpt>
      <trkpt lat="42.72078" lon="-0.29924">
        <ele>1135.58</ele>
        <time>2024-10-02T13:48:09.999Z</time>
      </trkpt>
      <trkpt lat="42.72067" lon="-0.29925">
        <ele>1134.45</ele>
        <time>2024-10-02T13:48:14.999Z</time>
      </trkpt>
      <trkpt lat="42.72044" lon="-0.29919">
        <ele>1131.77</ele>
        <time>2024-10-02T13:48:19.999Z</time>
      </trkpt>
      <trkpt lat="42.72027" lon="-0.29911">
        <ele>1131.55</ele>
        <time>2024-10-02T13:48:24.999Z</time>
      </trkpt>
      <trkpt lat="42.7201" lon="-0.29906">
        <ele>1131.34</ele>
        <time>2024-10-02T13:48:29.999Z</time>
      </trkpt>
      <trkpt lat="42.72001" lon="-0.29906">
        <ele>1130.87</ele>
        <time>2024-10-02T13:48:44.999Z</time>
      </trkpt>
      <trkpt lat="42.7199" lon="-0.29897">
        <ele>1130.63</ele>
        <time>2024-10-02T13:48:49.999Z</time>
      </trkpt>
      <trkpt lat="42.71983" lon="-0.29888">
        <ele>1129.98</ele>
        <time>2024-10-02T13:49:08.999Z</time>
      </trkpt>
      <trkpt lat="42.71981" lon="-0.29903">
        <ele>1129.46</ele>
        <time>2024-10-02T13:49:40.999Z</time>
      </trkpt>
      <trkpt lat="42.71979" lon="-0.29915">
        <ele>1126.51</ele>
        <time>2024-10-02T13:52:23.999Z</time>
      </trkpt>
      <trkpt lat="42.71988" lon="-0.29914">
        <ele>1126.06</ele>
        <time>2024-10-02T13:53:51.999Z</time>
      </trkpt>
      <trkpt lat="42.71984" lon="-0.29902">
        <ele>1119.07</ele>
        <time>2024-10-02T13:56:01.999Z</time>
      </trkpt>
      <trkpt lat="42.71978" lon="-0.29891">
        <ele>1118.13</ele>
        <time>2024-10-02T13:56:40.999Z</time>
      </trkpt>
      <trkpt lat="42.71988" lon="-0.29896">
        <ele>1117.94</ele>
        <time>2024-10-02T13:56:50.999Z</time>
      </trkpt>
      <trkpt lat="42.71979" lon="-0.29897">
        <ele>1117.61</ele>
        <time>2024-10-02T13:57:13.000Z</time>
      </trkpt>
      <trkpt lat="42.71969" lon="-0.299">
        <ele>1117.47</ele>
        <time>2024-10-02T13:57:21.000Z</time>
      </trkpt>
      <trkpt lat="42.71979" lon="-0.29897">
        <ele>1118.14</ele>
        <time>2024-10-02T14:00:13.000Z</time>
      </trkpt>
      <trkpt lat="42.71989" lon="-0.29899">
        <ele>1118.21</ele>
        <time>2024-10-02T14:00:25.000Z</time>
      </trkpt>
      <trkpt lat="42.71991" lon="-0.29912">
        <ele>1118.03</ele>
        <time>2024-10-02T14:01:10.000Z</time>
      </trkpt>
      <trkpt lat="42.71997" lon="-0.29922">
        <ele>1117.95</ele>
        <time>2024-10-02T14:01:25.000Z</time>
      </trkpt>
      <trkpt lat="42.72007" lon="-0.29926">
        <ele>1117.94</ele>
        <time>2024-10-02T14:01:31.000Z</time>
      </trkpt>
      <trkpt lat="42.72026" lon="-0.29929">
        <ele>1117.95</ele>
        <time>2024-10-02T14:01:36.000Z</time>
      </trkpt>
      <trkpt lat="42.7204" lon="-0.29928">
        <ele>1117.99</ele>
        <time>2024-10-02T14:01:41.000Z</time>
      </trkpt>
      <trkpt lat="42.72052" lon="-0.29927">
        <ele>1118.02</ele>
        <time>2024-10-02T14:01:46.000Z</time>
      </trkpt>
      <trkpt lat="42.72062" lon="-0.29929">
        <ele>1118.05</ele>
        <time>2024-10-02T14:01:52.000Z</time>
      </trkpt>
      <trkpt lat="42.72071" lon="-0.29928">
        <ele>1118.06</ele>
        <time>2024-10-02T14:01:57.000Z</time>
      </trkpt>
      <trkpt lat="42.72081" lon="-0.29929">
        <ele>1118.08</ele>
        <time>2024-10-02T14:02:03.000Z</time>
      </trkpt>
      <trkpt lat="42.7209" lon="-0.2993">
        <ele>1118.1</ele>
        <time>2024-10-02T14:02:09.000Z</time>
      </trkpt>
      <trkpt lat="42.72099" lon="-0.29932">
        <ele>1118.15</ele>
        <time>2024-10-02T14:02:16.000Z</time>
      </trkpt>
      <trkpt lat="42.72109" lon="-0.29933">
        <ele>1118.25</ele>
        <time>2024-10-02T14:02:23.000Z</time>
      </trkpt>
      <trkpt lat="42.72118" lon="-0.29934">
        <ele>1118.42</ele>
        <time>2024-10-02T14:02:29.000Z</time>
      </trkpt>
      <trkpt lat="42.72128" lon="-0.29938">
        <ele>1118.65</ele>
        <time>2024-10-02T14:02:35.000Z</time>
      </trkpt>
      <trkpt lat="42.72137" lon="-0.29945">
        <ele>1118.9</ele>
        <time>2024-10-02T14:02:41.000Z</time>
      </trkpt>
      <trkpt lat="42.72145" lon="-0.29953">
        <ele>1119.13</ele>
        <time>2024-10-02T14:02:47.000Z</time>
      </trkpt>
      <trkpt lat="42.72147" lon="-0.29966">
        <ele>1119.32</ele>
        <time>2024-10-02T14:02:52.000Z</time>
      </trkpt>
      <trkpt lat="42.72139" lon="-0.29983">
        <ele>1119.52</ele>
        <time>2024-10-02T14:02:57.000Z</time>
      </trkpt>
      <trkpt lat="42.72121" lon="-0.29995">
        <ele>1120.01</ele>
        <time>2024-10-02T14:03:02.000Z</time>
      </trkpt>
      <trkpt lat="42.72103" lon="-0.30002">
        <ele>1120.38</ele>
        <time>2024-10-02T14:03:07.000Z</time>
      </trkpt>
      <trkpt lat="42.7209" lon="-0.30004">
        <ele>1120.45</ele>
        <time>2024-10-02T14:03:12.000Z</time>
      </trkpt>
      <trkpt lat="42.72081" lon="-0.29998">
        <ele>1120.49</ele>
        <time>2024-10-02T14:03:18.000Z</time>
      </trkpt>
      <trkpt lat="42.72076" lon="-0.29987">
        <ele>1120.47</ele>
        <time>2024-10-02T14:03:30.000Z</time>
      </trkpt>
      <trkpt lat="42.72071" lon="-0.29977">
        <ele>1119.71</ele>
        <time>2024-10-02T14:04:29.000Z</time>
      </trkpt>
      <trkpt lat="42.72063" lon="-0.29966">
        <ele>1118.14</ele>
        <time>2024-10-02T14:28:33.000Z</time>
      </trkpt>
    </trkseg>
  </trk>
</gpx>